[[{"header":{"parameterUnit":"m.s-1","parameterCategory":1,"la1":30.6,"la2":28.766,"lo1":-90.7593,"lo2":-88.6598,"dy":0.0162,"dx":0.0183,"nx":116,"ny":114,"refTime":"2023-08-17T06:00:00:Z","depth":0,"parameterNumber":2,"parameterNumberName":"U-component_of_WINDS"},"data":[0.0,0.0,0.0,0.0,0.0,0.0,0.0,0.0,0.0,0.0,0.0,0.0,0.0,0.0,0.0,0.0,0.0,0.0,0.0,0.0,0.0,0.0,0.0,0.0,0.0,0.0,0.0,0.0,0.0,0.0,0.0,0.0,0.0,0.0,0.0,0.0,0.0,0.0,0.0,0.0,0.0,0.0,0.0,0.0,0.0,0.0,0.0,0.0,0.0,0.0,0.0,0.0,0.0,0.0,0.0,0.0,0.0,0.0,0.0,0.0,0.0,0.0,0.0,0.0,0.0,0.0,0.0,0.0,0.0,0.0,0.0,0.0,0.0,0.0,0.0,0.0,0.0,0.0,0.0,0.0,0.0,0.0,0.0,0.0,0.0,0.0,0.0,0.0,0.0,0.0,0.0,0.0,0.0,0.0,0.0,0.0,0.0,0.0,0.0,0.0,0.0,0.0,0.0,0.0,0.0,0.0,0.0,0.0,0.0,0.0,0.0,0.0,0.0,0.0,0.0,0.0,0.0,0.0,0.0,0.0,0.0,0.0,0.0,0.0,0.0,0.0,0.0,0.0,0.0,0.0,0.0,0.0,0.0,0.0,0.0,0.0,0.0,0.0,0.0,0.0,0.0,0.0,0.0,0.0,0.0,0.0,0.0,0.0,0.0,0.0,0.0,0.0,0.0,0.0,0.0,0.0,0.0,0.0,0.0,0.0,0.0,0.0,0.0,0.0,0.0,0.0,0.0,0.0,0.0,0.0,0.0,0.0,0.0,0.0,0.0,0.0,0.0,0.0,0.0,0.0,0.0,0.0,0.0,0.0,0.0,0.0,0.0,0.0,0.0,0.0,0.0,0.0,0.0,0.0,0.0,0.0,0.0,0.0,0.0,0.0,0.0,0.0,0.0,0.0,0.0,0.0,0.0,0.0,0.0,0.0,0.0,0.0,0.0,0.0,0.0,0.0,0.0,0.0,0.0,0.0,0.0,0.0,0.0,0.0,0.0,0.0,0.0,0.0,0.0,0.0,0.0,0.0,0.0,0.0,0.0,0.0,0.0,0.0,0.0,0.0,0.0,0.0,0.0,0.0,0.0,0.0,0.0,0.0,0.0,0.0,0.0,0.0,0.0,0.0,0.0,0.0,0.0,0.0,0.0,0.0,0.0,0.0,0.0,0.0,0.0,0.0,0.0,0.0,0.0,0.0,0.0,0.0,0.0,0.0,0.0,0.0,0.0,0.0,0.0,0.0,0.0,0.0,0.0,0.0,0.0,0.0,0.0,0.0,0.0,0.0,0.0,0.0,0.0,0.0,0.0,0.0,0.0,0.0,0.0,0.0,0.0,0.0,0.0,0.0,0.0,0.0,0.0,0.0,0.0,0.0,0.0,0.0,0.0,0.0,0.0,0.0,0.0,0.0,0.0,0.0,0.0,0.0,0.0,0.0,0.0,0.0,0.0,0.0,0.0,0.0,0.0,0.0,0.0,0.0,0.0,0.0,0.0,0.0,0.0,0.0,0.0,0.0,0.0,0.0,0.0,0.0,0.0,0.0,0.0,0.0,0.0,0.0,0.0,0.0,0.0,0.0,0.0,0.0,0.0,0.0,0.0,0.0,0.0,0.0,0.0,0.0,0.0,0.0,0.0,0.0,0.0,0.0,0.0,0.0,0.0,0.0,0.0,0.0,0.0,0.0,0.0,0.0,0.0,0.0,0.0,0.0,0.0,0.0,0.0,0.0,0.0,0.0,0.0,0.0,0.0,0.0,0.0,0.0,0.0,0.0,0.0,0.0,0.0,0.0,0.0,0.0,0.0,0.0,0.0,0.0,0.0,0.0,0.0,0.0,0.0,0.0,0.0,0.0,0.0,0.0,0.0,0.0,0.0,0.0,0.0,0.0,0.0,0.0,0.0,0.0,0.0,0.0,0.0,0.0,0.0,0.0,0.0,0.0,0.0,0.0,0.0,0.0,0.0,0.0,0.0,0.0,0.0,0.0,0.0,0.0,0.0,0.0,0.0,0.0,0.0,0.0,0.0,0.0,0.0,0.0,0.0,0.0,0.0,0.0,0.0,0.0,0.0,0.0,0.0,0.0,0.0,0.0,0.0,0.0,0.0,0.0,0.0,0.0,0.0,0.0,0.0,0.0,0.0,0.0,0.0,0.0,0.0,0.0,0.0,0.0,0.0,0.0,0.0,0.0,0.0,0.0,0.0,0.0,0.0,0.0,0.0,0.0,0.0,0.0,0.0,0.0,0.0,0.0,0.0,0.0,0.0,0.0,0.0,0.0,0.0,0.0,0.0,0.0,0.0,0.0,0.0,0.0,0.0,0.0,0.0,0.0,0.0,0.0,0.0,0.0,0.0,0.0,0.0,0.0,0.0,0.0,0.0,0.0,0.0,0.0,0.0,0.0,0.0,0.0,0.0,0.0,0.0,0.0,0.0,0.0,0.0,0.0,0.0,0.0,0.0,0.0,0.0,0.0,0.0,0.0,0.0,0.0,0.0,0.0,0.0,0.0,0.0,0.0,0.0,0.0,0.0,0.0,0.0,0.0,0.0,0.0,0.0,0.0,0.0,0.0,0.0,0.0,0.0,0.0,0.0,0.0,0.0,0.0,0.0,0.0,0.0,0.0,0.0,0.0,0.0,0.0,0.0,0.0,0.0,0.0,0.0,0.0,0.0,0.0,0.0,0.0,0.0,0.0,0.0,0.0,0.0,0.0,0.0,0.0,0.0,0.0,0.0,0.0,0.0,0.0,0.0,0.0,0.0,0.0,0.0,0.0,0.0,0.0,0.0,0.0,0.0,0.0,0.0,0.0,0.0,0.0,0.0,0.0,0.0,0.0,0.0,0.0,0.0,0.0,0.0,0.0,0.0,0.0,0.0,0.0,0.0,0.0,0.0,0.0,0.0,0.0,0.0,0.0,0.0,0.0,0.0,0.0,0.0,0.0,0.0,0.0,0.0,0.0,0.0,0.0,0.0,0.0,0.0,0.0,0.0,0.0,0.0,0.0,0.0,0.0,0.0,0.0,0.0,0.0,0.0,0.0,0.0,0.0,0.0,0.0,0.0,0.0,0.0,0.0,0.0,0.0,0.0,0.0,0.0,0.0,0.0,0.0,0.0,0.0,0.0,0.0,0.0,0.0,0.0,0.0,0.0,0.0,0.0,0.0,0.0,0.0,0.0,0.0,0.0,0.0,0.0,0.0,0.0,0.0,0.0,0.0,0.0,0.0,0.0,0.0,0.0,0.0,0.0,0.0,0.0,0.0,0.0,0.0,0.0,0.0,0.0,0.0,0.0,0.0,0.0,0.0,0.0,0.0,0.0,0.0,0.0,0.0,0.0,0.0,0.0,0.0,0.0,0.0,0.0,0.0,0.0,0.0,0.0,0.0,0.0,0.0,0.0,0.0,0.0,0.0,0.0,0.0,0.0,0.0,0.0,0.0,0.0,0.0,0.0,0.0,0.0,0.0,0.0,0.0,0.0,0.0,0.0,0.0,0.0,0.0,0.0,0.0,0.0,0.0,0.0,0.0,0.0,0.0,0.0,0.0,0.0,0.0,0.0,0.0,0.0,0.0,0.0,0.0,0.0,0.0,0.0,0.0,0.0,0.0,0.0,0.0,0.0,0.0,0.0,0.0,0.0,0.0,0.0,0.0,0.0,0.0,0.0,0.0,0.0,0.0,0.0,0.0,0.0,0.0,0.0,0.0,0.0,0.0,0.0,0.0,0.0,0.0,0.0,0.0,0.0,0.0,0.0,0.0,0.0,0.0,0.0,0.0,0.0,0.0,0.0,0.0,0.0,0.0,0.0,0.0,0.0,0.0,0.0,0.0,0.0,0.0,0.0,0.0,0.0,0.0,0.0,0.0,0.0,0.0,0.0,0.0,0.0,0.0,0.0,0.0,0.0,0.0,0.0,0.0,0.0,0.0,0.0,0.0,0.0,0.0,0.0,0.0,0.0,0.0,0.0,0.0,0.0,0.0,0.0,0.0,0.0,0.0,0.0,0.0,0.0,0.0,0.0,0.0,0.0,0.0,0.0,0.0,0.0,0.0,0.0,0.0,0.0,0.0,0.0,0.0,0.0,0.0,0.0,0.0,0.0,0.0,0.0,0.0,0.0,0.0,0.0,0.0,0.0,0.0,0.0,0.0,0.0,0.0,0.0,0.0,0.0,0.0,0.0,0.0,0.0,0.0,0.0,0.0,0.0,0.0,0.0,0.0,0.0,0.0,0.0,0.0,0.0,0.0,0.0,0.0,0.0,0.0,0.0,0.0,0.0,0.0,0.0,0.0,0.0,0.0,0.0,0.0,0.0,0.0,0.0,0.0,0.0,0.0,0.0,0.0,0.0,0.0,0.0,0.0,0.0,0.0,0.0,0.0,0.0,0.0,0.0,0.0,0.0,0.0,0.0,0.0,0.0,0.0,0.0,0.0,0.0,0.0,0.0,0.0,0.0,0.0,0.0,0.0,0.0,0.0,0.0,0.0,0.0,0.0,0.0,0.0,0.0,0.0,0.0,0.0,0.0,0.0,0.0,0.0,0.0,0.0,0.0,0.0,0.0,0.0,0.0,0.0,0.0,0.0,0.0,0.0,0.0,0.0,0.0,0.0,0.0,0.0,0.0,0.0,0.0,0.0,0.0,0.0,0.0,0.0,0.0,0.0,0.0,0.0,0.0,0.0,0.0,0.0,0.0,0.0,0.0,0.0,0.0,0.0,0.0,0.0,0.0,0.0,0.0,0.0,0.0,0.0,0.0,0.0,0.0,0.0,0.0,0.0,0.0,0.0,0.0,0.0,0.0,0.0,0.0,0.0,0.0,0.0,0.0,0.0,0.0,0.0,0.0,0.0,0.0,0.0,0.0,0.0,0.0,0.0,0.0,0.0,0.0,0.0,0.0,0.0,0.0,0.0,0.0,0.0,0.0,0.0,0.0,0.0,0.0,0.0,0.0,0.0,0.0,0.0,0.0,0.0,0.0,0.0,0.0,0.0,0.0,0.0,0.0,0.0,0.0,0.0,0.0,0.0,0.0,0.0,0.0,0.0,0.0,0.0,0.0,0.0,0.0,0.0,0.0,0.0,0.0,0.0,0.0,0.0,0.0,0.0,0.0,0.0,0.0,0.0,0.0,0.0,0.0,0.0,0.0,0.0,0.0,0.0,0.0,0.0,0.0,0.0,0.0,0.0,0.0,0.0,0.0,0.0,0.0,0.0,0.0,0.0,0.0,0.0,0.0,0.0,0.0,0.0,0.0,0.0,0.0,0.0,0.0,0.0,0.0,0.0,0.0,0.0,0.0,0.0,0.0,0.0,0.0,0.0,0.0,0.0,0.0,0.0,0.0,0.0,0.0,0.0,0.0,0.0,0.0,0.0,0.0,0.0,0.0,0.0,0.0,0.0,0.0,0.0,0.0,0.0,0.0,0.0,0.0,0.0,0.0,0.0,0.0,0.0,0.0,0.0,0.0,0.0,0.0,0.0,0.0,0.0,0.0,0.0,0.0,0.0,0.0,0.0,0.0,0.0,0.0,0.0,0.0,0.0,0.0,0.0,0.0,0.0,0.0,0.0,0.0,0.0,0.0,0.0,0.0,0.0,0.0,0.0,0.0,0.0,0.0,0.0,0.0,0.0,0.0,0.0,0.0,0.0,0.0,0.0,0.0,0.0,0.0,0.0,0.0,0.0,0.0,0.0,0.0,0.0,0.0,0.0,0.0,0.0,0.0,0.0,0.0,0.0,0.0,0.0,0.0,0.0,0.0,0.0,0.0,0.0,0.0,0.0,0.0,0.0,0.0,0.0,0.0,0.0,0.0,0.0,0.0,0.0,0.0,0.0,0.0,0.0,0.0,0.0,0.0,0.0,0.0,0.0,0.0,0.0,0.0,0.0,0.0,0.0,0.0,0.0,0.0,0.0,0.0,0.0,0.0,0.0,0.0,0.0,0.0,0.0,0.0,0.0,0.0,0.0,0.0,0.0,0.0,0.0,0.0,0.0,0.0,0.0,0.0,0.0,0.0,0.0,0.0,0.0,0.0,0.0,0.0,0.0,0.0,0.0,0.0,0.0,0.0,0.0,0.0,0.0,0.0,0.0,0.0,0.0,0.0,0.0,0.0,0.0,2.1201,0.0,0.0,0.0,0.0,0.0,0.0,0.0,0.0,0.0,0.0,0.0,0.0,0.0,0.0,0.0,0.0,0.0,0.0,0.0,0.0,0.0,0.0,0.0,0.0,0.0,0.0,0.0,0.0,0.0,0.0,0.0,0.0,0.0,0.0,0.0,0.0,0.0,0.0,0.0,0.0,0.0,0.0,0.0,0.0,0.0,0.0,0.0,0.0,0.0,0.0,0.0,0.0,0.0,0.0,0.0,0.0,0.0,0.0,0.0,0.0,0.0,0.0,0.0,0.0,0.0,0.0,0.0,0.0,0.0,0.0,0.0,0.0,0.0,0.0,0.0,0.0,0.0,0.0,0.0,0.0,0.0,0.0,0.0,0.0,0.0,0.0,0.0,0.0,0.0,0.0,0.0,0.0,0.0,0.0,0.0,0.0,0.0,0.0,0.0,0.0,0.0,0.0,0.0,0.0,0.0,0.0,0.0,0.0,0.0,0.0,0.0,0.0,0.0,0.0,0.0,0.0,2.2073,0.0,0.0,0.0,0.0,0.0,0.0,0.0,0.0,0.0,0.0,0.0,0.0,0.0,0.0,0.0,0.0,0.0,0.0,0.0,0.0,0.0,0.0,0.0,0.0,0.0,0.0,0.0,0.0,0.0,0.0,0.0,0.0,0.0,0.0,0.0,0.0,0.0,0.0,0.0,0.0,0.0,0.0,0.0,0.0,0.0,0.0,0.0,0.0,0.0,0.0,0.0,0.0,0.0,0.0,0.0,0.0,0.0,0.0,0.0,0.0,0.0,0.0,0.0,0.0,0.0,0.0,0.0,0.0,0.0,0.0,0.0,0.0,0.0,0.0,0.0,0.0,0.0,0.0,0.0,0.0,0.0,0.0,0.0,0.0,0.0,0.0,0.0,0.0,0.0,0.0,0.0,0.0,0.0,0.0,0.0,0.0,0.0,0.0,0.0,0.0,0.0,0.0,0.0,0.0,0.0,0.0,0.0,0.0,2.5222,2.519,2.5182,2.5015,2.4834,2.4579,2.3926,2.3003,2.1989,2.2375,0.0,0.0,0.0,0.0,0.0,0.0,0.0,0.0,0.0,0.0,0.0,0.0,0.0,0.0,0.0,0.0,0.0,0.0,0.0,0.0,0.0,0.0,0.0,0.0,0.0,0.0,0.0,0.0,0.0,0.0,0.0,0.0,0.0,0.0,0.0,0.0,0.0,0.0,-0.4783,-0.8311,-0.7736,-0.3844,0.0,0.0,0.0,0.0,0.0,0.0,0.0,0.0,0.0,0.0,0.0,0.0,0.0,0.0,0.0,0.0,0.0,0.0,0.0,0.0,0.0,0.0,0.0,0.0,0.0,0.0,0.0,0.0,0.0,0.0,0.0,0.0,0.0,0.0,0.0,0.0,0.0,0.0,0.0,0.0,0.0,0.0,0.0,0.0,2.2505,2.1798,0.0,0.0,0.0,0.0,0.0,0.0,0.0,0.0,0.0,0.0,0.0,0.0,0.0,2.5478,2.5465,2.5561,2.5632,2.5622,2.5575,2.5526,2.553,2.5271,2.5109,2.4996,2.4507,0.0,2.2565,2.2141,0.0,0.0,0.0,0.0,0.0,0.0,0.0,0.0,0.0,0.0,0.0,0.0,0.0,0.0,0.0,0.0,0.0,0.0,0.0,0.0,0.0,0.0,0.0,0.0,0.0,0.0,0.0,0.0,0.0,0.0,0.0,0.0,0.0,0.0,0.0,0.0,0.0,0.0,0.0,0.0,-1.0157,-0.6152,-0.9739,-0.8622,-0.3836,-0.0107,0.0,0.0,0.0,0.0,0.0,0.0,0.0,0.0,0.0,0.0,0.0,0.0,0.0,0.0,0.0,0.0,0.0,0.0,0.0,0.0,0.0,0.0,0.0,0.0,0.0,0.0,0.0,0.0,0.0,0.0,0.0,0.0,0.0,0.0,0.0,0.0,0.0,0.0,0.0,2.157,2.233,2.2423,2.3577,2.4404,0.0,0.0,0.0,0.0,0.0,0.0,0.0,0.0,0.0,2.5637,2.5683,2.5703,2.5698,2.5701,2.5698,2.5691,2.563,2.5604,2.5601,2.5485,2.5302,2.507,2.4763,2.4079,2.3173,2.2634,2.2079,2.1497,0.0,0.0,0.0,0.0,1.893,1.8563,0.0,0.0,0.0,0.0,0.0,0.0,0.0,0.0,0.0,0.0,0.0,0.0,0.0,0.0,0.0,-0.5421,0.0,0.0,0.0,0.0,0.0,0.0,0.0,0.0,0.0,0.0,0.0,0.0,0.0,0.0,0.0,0.0,0.0,0.0,0.0,0.0,-0.2119,0.0682,0.2949,0.0,0.0,0.0,0.0,0.0,0.0,0.0,0.0,0.0,0.0,0.0,0.0,0.0,0.0,0.0,0.0,0.0,0.0,0.0,0.0,0.0,0.0,0.0,0.0,0.0,0.0,0.0,0.0,0.0,0.0,0.0,0.0,0.0,0.0,0.0,0.0,0.0,0.0,2.1697,2.2588,2.3231,2.4114,2.4921,0.0,0.0,0.0,0.0,0.0,0.0,2.5511,2.5593,2.5642,2.5623,2.5677,2.5701,2.5691,2.5696,2.5702,2.5702,2.5648,2.5619,2.5604,2.5605,2.5434,2.512,2.4903,2.446,2.3765,2.3035,2.2478,2.1995,2.0863,2.0483,2.0434,1.9522,1.8869,1.8355,0.0,0.0,0.0,0.0,0.0,0.0,0.0,0.0,0.0,0.0,0.0,0.0,0.0,0.0,-0.5138,-0.5459,-0.5658,-0.5421,0.0,0.0,0.0,0.0,0.0,0.0,0.0,0.0,0.0,0.0,0.0,0.0,0.0,0.0,0.0,0.0,0.0,0.0,0.0,0.0,0.0653,0.3887,0.0,0.0,0.0,0.0,0.0,0.0,0.0,0.0,0.0,0.0,0.0,0.0,0.0,0.0,0.0,0.0,0.0,0.0,0.0,0.0,0.0,0.0,0.0,0.0,0.0,0.0,0.0,0.0,0.0,0.0,0.0,0.0,0.0,0.0,0.0,0.0,0.0,0.0,0.0,2.4126,2.4919,0.0,0.0,0.0,0.0,2.5511,2.5511,2.5511,2.5511,2.5507,2.556,2.5697,2.57,2.57,2.5699,2.5693,2.5709,2.5691,2.5701,2.5659,2.5597,2.5595,2.5459,2.5187,2.4981,2.4728,2.4344,2.3053,2.2337,2.2012,2.1197,2.0861,2.0747,1.9748,1.8896,1.8182,0.0,0.0,0.0,0.0,0.0,0.0,0.0,0.0,0.0,0.0,0.0,0.0,0.0,-0.5662,-0.9233,-0.9351,-1.1176,-0.995,-0.4341,0.0,0.0,0.0,0.0,0.0,0.0,0.0,0.0,0.0,0.0,0.0,0.0,0.0,0.0,0.0,0.0,0.0,0.0,0.0,0.0,0.0,0.0,0.0,0.0,0.0,0.0,0.0,0.0,0.0,0.0,0.0,0.0,0.0,0.0,0.0,0.0,0.0,0.0,0.0,0.0,0.0,0.0,0.0,0.0,0.0,0.0,0.0,0.0,0.0,0.0,0.0,0.0,0.0,0.0,0.0,0.0,0.0,0.0,0.0,0.0,2.4196,2.4969,0.0,2.5505,2.5495,2.5511,2.5511,2.5511,2.5511,2.5511,2.5495,2.5515,2.5562,2.5606,2.5646,2.5639,2.5679,2.5707,2.5707,2.5703,2.5657,2.5601,2.5601,2.5441,2.5187,2.5,2.4761,2.4414,2.3053,2.2443,2.2255,2.1274,2.0663,2.0273,1.9919,1.9008,1.8001,0.0,0.0,0.0,0.0,0.0,0.0,0.0,0.0,0.0,0.0,0.0,0.0703,0.0646,-0.4591,-0.8086,-0.8066,-0.9928,-0.8703,-0.3008,0.0,0.0,0.0,0.0,0.0,0.0,0.0,0.0,0.0,0.0,0.0,0.0,0.0,0.0,0.0,0.0,0.0,0.0,0.0,0.0,0.0,0.0,0.0,1.325,0.0,0.0,0.0,0.0,0.0,0.0,0.0,0.0,0.0,0.0,0.0,0.0,0.0,0.0,0.0,0.0,0.0,0.0,0.0,0.0,0.0,0.0,0.0,0.0,0.0,0.0,0.0,0.0,0.0,0.0,0.0,0.0,0.0,0.0,0.0,2.4598,2.4598,2.51,2.5468,2.5468,2.5468,2.5468,2.5468,2.5468,2.5468,2.5468,2.547,2.549,2.5506,2.5566,2.5593,2.5604,2.5671,2.5707,2.5707,2.5683,2.564,2.5607,2.5503,2.5321,2.5098,2.486,2.4569,2.4173,2.3106,2.2617,2.239,2.1118,2.055,2.0406,1.9884,1.9137,1.8439,0.0,0.0,0.0,0.0,0.0,0.0,0.0,0.0,0.0,0.0,0.0,0.2313,0.2131,-0.0,-0.1419,-0.1343,-0.1347,-0.1128,-0.0643,-0.0643,0.0,0.0,0.0,0.0,0.0,0.0,0.0,0.0,0.0,0.0,0.0,0.0,0.0,0.0,0.0,0.0,0.0,0.0,0.0,0.0,0.0,0.0,1.3433,0.0,0.0,0.0,0.0,0.0,0.0,0.0,0.0,0.0,0.0,0.0,0.0,0.0,0.0,0.0,0.0,0.0,0.0,0.0,0.0,0.0,0.0,0.0,0.0,0.0,0.0,0.0,0.0,0.0,0.0,0.0,0.0,0.0,2.4248,2.4866,2.5406,2.5387,2.5406,2.5406,2.5387,2.5406,2.5406,2.5406,2.5406,2.5406,2.5406,2.5406,2.544,2.5495,2.557,2.56,2.564,2.5676,2.5707,2.5746,2.5642,2.5609,2.5588,2.533,2.5079,2.4892,2.4618,2.4227,2.3774,2.3212,2.2848,2.2476,2.0715,2.0619,2.1224,1.9708,1.9383,1.9479,0.0,0.0,0.0,0.0,0.0,0.0,0.0,0.0,0.0,0.0,0.3956,0.2317,0.2647,-0.0361,-0.2273,-0.1992,-0.2141,-0.0686,0.2953,0.0,0.0,0.0,0.0,0.0,0.0,0.0,0.0,0.0,0.0,0.0,0.0,0.0,0.0,0.0,0.0,0.0,0.0,0.0,0.0,0.0,0.0,0.0,1.3658,0.0,0.0,0.0,0.0,0.0,0.0,0.0,0.0,0.0,0.0,0.0,0.0,0.0,0.0,0.0,0.0,0.0,0.0,0.0,0.0,0.0,0.0,0.0,0.0,0.0,0.0,0.0,0.0,0.0,0.0,0.0,0.0,2.5311,2.5078,2.5252,2.536,2.5264,2.5351,2.536,2.5264,2.5351,2.5406,2.5406,2.5406,2.5406,2.5406,2.5397,2.5423,2.5495,2.5518,2.5848,2.6541,2.5988,2.6019,2.6626,2.5935,2.5609,2.5588,2.533,2.5079,2.4892,2.4618,2.4227,2.3774,2.3212,2.333,2.3632,2.1697,2.1126,2.1321,2.0704,2.0539,2.0373,0.0,0.0,0.0,0.0,0.0,0.0,0.0,0.0,0.0,0.0,0.5754,0.5132,0.5879,0.4034,0.3011,0.3646,0.3504,0.4603,0.7446,0.0,0.0,0.0,0.0,0.0,0.0,0.0,0.0,0.0,0.0,0.0,0.0,0.0,0.0,0.0,0.0,0.0,0.0,0.0,0.0,0.0,0.0,0.0,1.4122,1.4619,1.5696,1.6998,1.7082,1.7574,1.8204,1.79,0.0,0.0,0.0,0.0,0.0,0.0,0.0,0.0,0.0,0.0,0.0,0.0,0.0,0.0,0.0,0.0,0.0,0.0,0.0,0.0,0.0,0.0,0.0,0.0,2.5612,2.5718,2.5802,2.5504,2.5214,2.5091,2.5149,2.5182,2.516,2.5224,2.5293,2.5351,2.536,2.5514,2.588,2.59,2.6092,2.6494,2.6209,2.6318,2.6856,2.6097,2.5945,2.644,2.5875,2.5607,2.5598,2.5611,2.5359,0.0,2.5176,2.4666,2.3667,2.3608,2.3649,0.0,0.0,0.0,0.0,0.0,2.1021,2.0344,0.0,0.0,0.0,0.0,0.0,0.0,0.0,0.0,0.0,0.0,0.0,0.8997,0.9972,1.0286,1.0774,1.1652,1.1593,1.1548,0.0,0.0,0.0,0.0,0.0,0.0,0.0,0.0,0.0,0.0,0.0,0.0,0.0,0.0,0.0,0.0,0.0,0.0,0.0,0.0,0.0,0.0,0.0,0.0,1.4662,1.5501,1.6076,1.6506,1.7161,1.7622,1.8028,1.8163,0.0,0.0,0.0,0.0,0.0,0.0,0.0,0.0,0.0,0.0,0.0,0.0,0.0,0.0,0.0,0.0,0.0,0.0,0.0,0.0,0.0,0.0,0.0,0.0,2.6109,2.6233,2.6409,2.5787,2.5197,2.4907,2.4964,2.5037,2.5056,2.5072,2.5149,2.5264,2.538,2.5783,2.6553,0.0,0.0,0.0,0.0,2.6909,2.7115,2.6269,2.5951,2.6133,2.5947,2.5866,2.587,2.6168,2.5857,2.5146,2.5983,2.5366,2.3777,2.4208,2.3839,2.2959,2.2118,2.2738,2.3903,2.2361,2.1172,2.0192,0.0,0.0,0.0,0.0,0.0,0.0,0.0,0.0,0.0,0.748,0.7938,0.8467,0.9151,0.9734,1.0278,1.0711,1.056,1.0532,0.0,0.0,0.0,0.0,0.0,0.0,0.0,0.0,0.0,0.0,0.0,0.0,0.0,0.0,0.0,0.0,0.0,0.0,0.0,0.0,0.0,0.0,0.0,0.0,1.4326,1.4593,1.5299,1.6275,1.6879,1.7531,1.81,1.8306,1.8407,1.8477,1.833,0.0,0.0,0.0,0.0,0.0,0.0,0.0,0.0,0.0,0.0,0.0,0.0,0.0,0.0,0.0,0.0,0.0,0.0,0.0,0.0,2.5522,2.6171,2.669,2.6726,2.6576,2.603,2.487,2.5404,2.5579,2.485,2.4962,2.5115,2.5138,2.5896,2.6399,2.6521,2.7296,2.7802,2.7978,2.7262,2.7577,2.9048,2.7528,2.7457,2.8826,0.0,0.0,2.7446,2.7084,2.6712,2.6336,2.6151,2.5727,2.5128,2.45,2.3885,2.329,2.2987,2.2821,2.2626,2.1889,2.2088,2.253,0.0,0.0,0.0,0.0,0.0,0.0,0.0,0.0,0.0,0.0,0.784,0.8255,0.8839,0.9224,0.9614,1.0018,1.0013,0.0,0.0,0.0,0.0,0.0,0.0,0.0,0.0,0.0,0.0,0.0,0.0,0.0,0.0,0.0,0.0,0.0,0.0,0.0,0.0,0.0,0.0,0.0,0.0,0.0,1.4326,1.4651,1.5266,1.6051,1.674,1.7394,1.7959,1.8435,1.8462,1.8332,1.835,1.813,1.7883,0.0,0.0,0.0,0.0,0.0,0.0,0.0,0.0,0.0,0.0,0.0,0.0,0.0,0.0,2.4668,0.0,0.0,2.6528,2.6507,2.7145,2.7533,2.7237,2.7405,2.7114,2.5928,2.5862,2.5775,2.5423,2.5162,2.5227,2.5803,2.631,2.6968,2.7817,2.8327,2.8814,2.9303,2.8557,2.8591,2.9497,2.8268,2.8065,2.8886,2.8218,2.7905,2.7888,2.7506,2.7121,2.6712,2.6844,2.6224,2.5084,2.4232,2.3544,2.309,2.3073,2.2878,2.2646,2.2418,2.2594,2.275,0.0,0.0,0.0,0.0,0.0,0.0,0.0,0.0,0.0,0.0,0.0,0.8067,0.8501,0.8633,0.8905,0.0,0.0,0.0,0.0,0.0,0.0,0.0,0.0,0.0,0.0,0.0,0.0,0.0,0.0,0.0,0.0,0.0,0.0,0.0,0.0,0.0,0.0,0.0,0.0,0.0,0.0,0.0,1.4419,1.4789,1.5244,1.578,1.6498,1.7003,1.7464,1.8254,1.8223,1.7912,1.836,1.8165,1.7812,1.7966,1.8414,0.0,0.0,0.0,0.0,0.0,0.0,0.0,0.0,0.0,2.3777,2.3916,2.4662,2.5278,2.5254,2.6621,2.7766,2.7816,2.8265,2.8412,2.7978,2.8103,2.7983,2.7251,2.6483,2.5987,2.5928,2.5412,2.5511,2.6599,2.6779,2.7517,2.91,2.936,2.981,3.0591,2.9833,2.9507,2.9663,2.8934,2.8574,2.8639,2.8437,2.8315,2.8305,2.7959,2.758,2.7264,2.7583,2.6523,2.4542,2.3745,2.3145,2.2783,2.2512,2.2536,2.2699,2.2846,2.276,2.2524,0.0,0.0,0.0,0.0,0.0,0.0,0.0,0.0,0.0,0.0,0.0,0.0,0.0,0.0,0.0,0.0,0.0,0.0,0.0,0.0,0.0,0.0,0.0,0.0,0.0,0.0,0.0,0.0,0.0,0.0,0.0,0.0,0.0,0.0,0.0,0.0,0.0,0.0,0.0,0.0,0.0,0.0,1.4373,1.4316,1.4743,1.5377,1.564,1.5878,1.6175,1.726,1.7609,1.7702,1.8631,1.8644,1.8287,1.8127,0.0,1.7884,1.8355,1.9355,2.0254,2.0401,2.0955,2.1624,0.0,0.0,2.3779,2.4315,2.5436,2.638,2.6472,2.7688,2.8657,2.8669,2.8775,2.89,2.8998,2.8457,2.8076,2.8124,2.7544,2.6645,2.5431,2.5539,2.6035,2.6895,2.7395,2.8091,2.906,2.9959,3.051,3.0685,2.9913,2.9867,3.063,2.9844,2.9723,3.0247,2.9979,2.9813,2.9734,2.8874,2.8739,2.9106,2.7947,2.6278,2.4262,2.3332,2.2957,2.276,2.1268,2.1067,2.1627,2.1998,2.249,2.2938,0.0,0.0,0.0,0.0,0.0,0.0,0.0,0.0,0.0,0.0,0.0,0.0,0.0,0.0,0.0,0.0,0.0,0.0,0.0,0.0,0.0,0.0,0.0,0.0,0.0,0.0,0.0,0.0,0.0,0.0,0.0,0.0,0.0,0.0,0.0,0.0,0.0,0.0,0.0,0.0,0.0,0.0,1.4398,1.4339,1.4518,1.4836,1.5384,1.5495,0.0,0.0,1.6848,1.6976,1.7533,1.776,1.7755,1.7515,1.8129,0.0,1.9417,1.9956,2.04,0.0,2.1284,2.2118,2.2885,2.374,2.4411,2.4689,2.5539,2.647,2.7087,2.844,2.9316,0.0,2.9169,2.9152,2.8333,2.7467,2.6959,2.7113,2.6507,2.5979,2.5764,2.5054,2.5005,2.5875,2.6877,2.7873,2.8821,2.9969,3.0651,3.0759,3.042,3.0421,3.08,3.0353,3.0258,3.0497,2.9761,2.9398,2.9351,2.8622,2.8429,2.8501,2.627,2.5257,2.5042,2.3152,2.2264,2.1937,2.0917,2.0449,2.0523,2.1368,2.1888,2.2053,0.0,0.0,0.0,0.0,0.0,0.0,0.0,0.0,0.0,0.0,0.0,0.0,0.0,0.0,0.0,0.0,0.0,0.0,0.0,0.0,0.0,0.0,0.0,0.0,0.0,0.0,0.0,0.0,0.0,0.0,0.0,0.0,0.0,0.0,0.0,0.0,0.0,0.0,0.0,0.0,0.0,0.0,1.4281,1.4149,1.4073,1.4085,1.4736,1.4874,0.0,0.0,1.6019,1.6166,1.6662,1.7049,1.7316,1.7257,1.8346,1.9624,1.9759,0.0,0.0,2.0744,2.1618,2.2681,2.3488,2.4331,2.4997,2.521,2.5854,2.6645,2.7387,2.8454,2.9083,2.8814,2.8962,2.8734,2.7591,2.6653,2.607,2.5935,2.5253,2.4979,2.5428,2.4603,2.4433,2.5344,2.6501,2.7614,2.861,2.9883,3.0633,3.0804,3.0801,3.0876,3.1046,3.0895,3.0703,3.0419,2.9618,2.9058,2.8669,2.8392,2.7906,2.7122,2.5153,2.4646,2.5065,2.2738,2.159,2.1274,2.0771,2.0184,1.9737,2.0628,2.1126,2.1319,0.0,0.0,0.0,0.0,0.0,0.0,0.0,0.0,0.0,0.0,0.0,0.0,0.0,0.0,0.0,0.0,0.0,0.0,0.0,0.0,0.0,0.0,0.0,0.0,0.0,0.0,0.0,0.0,0.0,0.0,0.0,0.0,0.0,0.0,0.0,0.0,0.0,0.0,0.0,0.0,0.0,0.0,1.3982,1.3575,1.3231,1.2993,1.3264,0.0,0.0,0.0,1.501,1.5408,1.6487,1.6996,0.0,1.767,1.8494,1.9175,1.8471,0.0,2.1215,2.0557,2.1685,2.3049,2.3734,2.4462,2.5234,2.5978,2.6698,2.7217,2.7389,2.741,2.7601,2.8289,2.7828,2.7351,2.7299,2.6609,2.585,2.5109,2.4333,2.385,0.0,2.4378,2.5023,2.5894,2.6674,2.7551,2.8549,2.9805,3.0587,3.0779,3.0801,3.1073,3.1679,3.1679,3.1163,3.0219,3.0178,2.9453,2.8148,2.851,2.7482,2.5395,2.5431,2.4869,2.3747,2.1895,2.1126,2.1082,2.058,2.0041,1.9479,1.9538,2.0299,2.1236,0.0,0.0,0.0,0.0,0.0,0.0,0.0,0.0,0.0,0.0,0.0,0.0,0.0,0.0,0.0,0.0,0.0,0.0,0.0,0.0,0.0,0.0,0.0,0.0,0.0,0.0,0.0,0.0,0.0,0.0,0.0,0.0,0.0,0.0,0.0,0.0,0.0,0.0,0.0,0.0,0.0,0.0,1.3718,1.3458,1.3279,1.317,0.0,0.0,0.0,0.0,0.0,0.0,1.531,1.5733,1.627,1.7511,1.8715,1.9637,1.9609,0.0,2.1281,2.1308,2.2324,2.3497,2.4382,2.5329,2.5997,2.5923,2.595,2.6116,2.6493,2.6029,2.5859,2.6556,2.6251,2.5809,2.5555,2.4957,2.4695,2.4971,2.3867,0.0,0.0,0.0,0.0,2.4974,2.6084,2.7271,2.8537,2.9814,3.06,3.078,3.0679,3.0946,3.1699,3.0945,3.0449,3.0176,2.8443,2.77,2.7783,2.5994,2.527,2.5305,2.338,2.2825,2.3145,2.1316,2.0606,2.057,2.0029,1.9647,1.9404,1.9033,1.9378,1.9929,0.0,0.0,0.0,0.0,0.0,0.0,0.0,0.0,0.0,0.0,0.0,0.0,0.0,0.0,0.0,0.0,0.0,0.0,0.0,0.0,0.0,0.0,0.0,0.0,0.0,0.0,0.0,0.0,0.0,0.0,0.0,0.0,0.0,0.0,0.0,0.0,0.0,0.0,0.0,0.0,0.0,0.0,1.3482,1.3465,1.3311,0.0,0.0,0.0,0.0,0.0,0.0,0.0,1.492,1.5652,1.6542,1.753,1.8661,1.9556,1.9697,2.0676,2.1683,2.181,2.2978,2.4327,2.4992,2.5494,2.5783,2.5524,2.5085,2.4822,2.4885,2.4365,2.4164,2.4961,2.4805,2.4483,2.4228,2.4224,2.4354,2.4677,2.4165,2.436,0.0,0.0,0.0,2.5226,2.6465,2.7619,2.8557,2.977,3.0632,3.1113,3.0901,3.1174,3.1989,3.126,3.0466,2.9654,2.7282,2.6069,2.5853,2.4399,2.3963,2.4221,2.2008,2.1607,2.2258,2.0665,2.0008,1.9997,1.9801,1.9574,1.9329,1.8944,1.8927,1.9069,0.0,0.0,0.0,0.0,0.0,0.0,0.0,0.0,0.0,0.0,0.0,0.0,0.0,0.0,0.0,0.0,0.0,0.0,0.0,0.0,0.0,0.0,0.0,0.0,0.0,0.0,0.0,0.0,0.0,0.0,0.0,0.0,0.0,0.0,0.0,0.0,0.0,0.0,0.0,0.0,0.0,0.0,1.3319,1.3594,0.0,0.0,0.0,0.0,0.0,0.0,0.0,0.0,1.5241,1.6613,1.7934,1.7738,1.8414,1.915,1.893,2.0638,2.2359,2.203,2.3571,2.5253,2.5384,2.4995,2.4623,2.4638,2.4087,2.3465,0.0,0.0,2.2541,2.3539,2.3502,2.3413,2.3505,2.4327,2.476,0.0,0.0,0.0,0.0,0.0,0.0,2.6745,0.0,2.8569,2.8737,2.9721,3.0732,3.1708,3.1366,3.1594,3.2486,3.2362,3.1075,2.8662,2.6695,2.471,2.2773,2.3727,2.3391,2.2096,2.1436,2.1176,2.1093,1.9896,1.9389,1.9369,1.9825,1.9726,1.9243,1.9233,1.89,1.8499,0.0,0.0,0.0,0.0,0.0,0.0,0.0,0.0,0.0,0.0,0.0,0.0,0.0,0.0,0.0,0.0,0.0,0.0,0.0,0.0,0.0,0.0,0.0,0.0,0.0,0.0,0.0,0.0,0.0,0.0,0.0,0.0,0.0,0.0,0.0,0.0,0.0,0.0,0.0,0.0,0.0,0.0,1.332,0.0,0.0,0.0,0.0,0.0,0.0,0.0,0.0,0.0,0.0,1.6133,1.7302,1.7686,1.9186,2.0806,2.1049,2.199,2.2858,2.2849,2.3301,2.35,2.3031,2.3375,2.3473,2.2244,2.2353,2.2501,0.0,0.0,0.0,2.2352,2.2038,0.0,2.3604,2.3863,0.0,2.5739,0.0,2.625,2.7698,2.7928,0.0,0.0,2.917,2.9162,3.0687,3.0469,3.0911,3.225,3.0486,3.0471,3.2486,3.0632,2.9208,2.8201,2.5019,2.3511,2.3443,2.1623,2.0782,2.075,2.0162,1.9876,1.9802,1.9447,1.9065,1.8757,1.887,1.8844,1.8633,1.824,1.8037,1.7901,0.0,0.0,0.0,0.0,0.0,0.0,0.0,0.0,0.0,0.0,0.0,0.0,0.0,0.0,0.0,0.0,0.0,0.0,0.0,0.0,0.0,0.0,0.0,0.0,0.0,0.0,0.0,0.0,0.0,0.0,0.0,0.0,0.0,0.0,0.0,0.0,0.0,0.0,0.0,0.0,0.0,0.0,0.0,0.0,0.0,0.0,0.0,0.0,0.0,0.0,0.0,1.6159,1.6803,1.7531,1.8305,1.9171,0.0,2.1135,2.1926,2.2761,2.3327,2.3147,2.3281,2.3236,2.2683,2.2804,2.2774,2.1883,2.2034,0.0,2.1695,0.0,0.0,0.0,0.0,0.0,2.3806,2.4287,2.5141,0.0,2.7317,0.0,2.9072,2.9639,3.04,0.0,3.0161,2.9958,3.1464,3.0916,3.0985,3.1897,3.0874,3.0764,3.1678,2.9045,2.7434,2.6916,2.4139,2.2521,2.1884,2.0304,1.9625,1.9597,0.0,1.885,1.895,1.8754,1.8492,1.8181,1.8439,1.8375,1.8104,1.7842,1.7569,1.7373,0.0,0.0,0.0,0.0,0.0,0.0,0.0,0.0,0.0,0.0,0.0,0.0,0.0,0.0,0.0,0.0,0.0,0.0,0.0,0.0,0.0,0.0,0.0,0.0,0.0,0.0,0.0,0.0,0.0,0.0,0.0,0.0,0.0,0.0,0.0,0.0,0.0,0.0,0.0,0.0,0.0,0.0,0.0,0.0,0.0,0.0,0.0,0.0,0.0,0.0,1.7034,1.7619,1.8987,1.9594,1.997,2.1274,2.1328,2.1192,2.2297,2.3232,2.385,2.3325,2.3415,2.3475,2.3136,2.2638,2.2246,2.2241,0.0,2.2213,2.1678,2.1774,2.2084,2.2571,0.0,2.2661,2.4302,2.5213,2.6368,2.8108,2.9068,2.9798,3.0283,3.1197,3.174,3.1679,3.0973,3.0929,3.1789,3.1281,3.0902,3.0839,3.1538,3.1329,3.0132,2.7522,2.5845,2.517,2.3407,2.1468,1.9509,1.9487,1.9149,1.8566,1.8203,0.0,1.8539,1.8021,1.777,1.78,1.8168,1.7969,1.7569,1.7569,1.7304,1.6908,0.0,0.0,0.0,0.0,0.0,0.0,0.0,0.0,0.0,0.0,1.0284,0.0,0.0,0.0,0.0,0.0,0.0,0.0,0.0,0.0,0.0,0.0,0.0,0.0,0.0,0.0,0.0,0.0,0.0,0.0,0.0,0.0,0.0,0.0,0.0,0.0,0.0,0.0,0.0,0.0,0.0,0.0,0.0,0.0,0.0,0.0,0.0,0.0,0.0,0.0,1.7306,1.7936,1.9246,2.0046,2.0743,2.1969,2.2834,2.3548,2.4092,2.4467,2.4591,2.4464,2.3405,2.2337,2.1924,2.1678,0.0,0.0,2.124,2.2115,2.2029,2.2348,2.2785,2.3249,0.0,0.0,0.0,0.0,2.6884,0.0,0.0,0.0,0.0,0.0,0.0,0.0,0.0,3.2223,3.3048,3.1858,3.0454,2.8921,3.0221,2.9682,2.6995,2.5696,2.4509,2.3399,2.1225,1.9797,1.9018,1.8908,1.8589,1.8027,1.8354,0.0,1.8465,1.7929,1.7736,1.7678,1.7345,1.7107,1.7038,1.7038,1.6968,1.6908,0.0,0.0,0.0,0.0,0.0,0.0,0.0,0.0,0.0,1.123,1.1033,1.0837,0.0,0.0,0.0,0.0,0.0,0.0,0.0,0.0,0.0,0.0,0.0,0.0,0.0,0.0,0.0,0.0,0.0,0.0,0.0,0.0,0.0,0.0,0.0,0.0,0.0,0.0,0.0,0.0,0.0,0.0,0.0,0.0,0.0,0.0,0.0,0.0,0.0,0.0,1.771,1.8166,1.996,2.0579,2.101,2.3185,2.3659,2.378,2.4953,2.5213,2.5089,2.4464,2.3451,2.2484,2.1993,0.0,0.0,0.0,2.2163,2.2883,2.2876,2.3061,0.0,0.0,0.0,0.0,0.0,0.0,0.0,0.0,0.0,0.0,0.0,0.0,0.0,0.0,0.0,3.1883,3.2522,3.0885,2.9745,2.9254,2.8722,2.7652,2.5961,2.4218,2.2818,2.1734,2.0303,1.9309,1.876,1.8196,1.8105,1.8249,1.7714,0.0,1.8037,1.7501,1.7304,1.7245,1.6978,1.6908,1.6908,1.6908,1.6908,1.6839,0.0,0.0,0.0,0.0,0.0,0.0,0.0,1.1065,1.1192,1.1255,1.1022,1.097,1.1292,1.1075,1.0798,0.0,0.0,0.0,0.0,0.0,0.0,0.0,0.0,0.0,0.0,0.0,0.0,0.9358,0.0,0.0,0.0,0.0,0.0,0.0,0.0,0.0,0.0,0.0,0.0,0.0,0.0,0.0,0.0,0.0,0.0,0.0,0.0,0.0,0.0,0.0,1.7919,1.8171,2.0191,2.0679,2.0978,2.3511,2.3793,2.3615,2.5024,2.5522,2.5424,2.4458,2.3579,2.2871,2.2685,2.2388,0.0,0.0,2.3458,2.3783,2.3783,0.0,2.3878,0.0,2.4197,0.0,0.0,0.0,0.0,0.0,0.0,0.0,0.0,0.0,0.0,0.0,0.0,0.0,3.1269,2.9885,2.9264,2.9691,2.7465,2.598,2.5348,2.2797,2.1066,2.0205,1.9577,1.8942,1.8343,1.7796,1.7802,1.8178,1.7145,0.0,0.0,1.7107,1.6978,1.7038,1.6968,1.6908,1.6908,1.6908,1.6769,1.6621,0.0,0.0,0.0,0.0,0.0,0.0,0.0,1.0399,1.0398,1.0411,0.9048,0.9164,1.2042,1.1911,1.152,0.0,0.0,0.0,0.0,0.0,0.0,0.0,0.0,0.0,0.0,0.0,0.0,1.0908,1.094,0.0,0.0,0.0,0.0,0.0,0.0,0.0,0.0,0.0,0.0,0.0,0.0,0.0,0.0,0.0,0.0,0.0,0.0,0.0,0.0,0.0,0.0,1.7813,1.8956,1.9792,2.0625,2.1623,0.0,0.0,2.4069,2.4946,2.5765,2.5339,2.3953,2.2928,2.3983,0.0,0.0,2.3466,2.4059,2.4418,2.4418,2.452,2.469,0.0,0.0,2.6186,0.0,0.0,0.0,0.0,0.0,0.0,0.0,0.0,0.0,0.0,0.0,0.0,2.9546,2.9807,2.9509,2.8639,2.6889,2.5345,2.4191,2.1381,1.9695,1.9059,1.8397,1.7793,1.7347,1.8053,1.7949,1.7147,1.7437,0.0,0.0,1.7107,1.7176,1.7579,1.7107,1.6908,1.6908,1.6908,1.6473,1.5974,0.0,0.0,0.0,0.0,0.0,0.0,0.0,1.2056,1.1742,1.0882,1.0147,0.9848,1.0227,1.0976,1.148,0.0,0.0,0.0,0.0,0.0,0.0,0.0,0.0,0.0,0.0,0.0,0.0,1.1085,1.1132,0.0,0.0,0.0,0.0,0.0,0.0,1.1733,0.0,0.0,0.0,0.0,0.0,0.0,0.0,0.0,0.0,0.0,0.0,0.0,0.0,0.0,0.0,0.0,1.802,1.893,0.0,0.0,2.2018,2.2898,2.3298,2.4239,2.4958,2.4212,2.3553,2.3167,2.3521,0.0,2.3336,2.4039,2.4575,2.4908,2.4908,2.5027,2.5135,0.0,0.0,0.0,0.0,0.0,0.0,0.0,0.0,0.0,0.0,0.0,0.0,0.0,0.0,0.0,2.6258,2.6304,2.6532,2.6792,2.4445,2.2931,2.2386,2.06,1.9069,1.7934,1.8219,1.7937,1.7195,1.7496,1.757,1.7379,1.7043,0.0,0.0,1.6968,1.7038,1.7176,1.6968,1.6908,1.6908,1.6908,1.6691,1.6508,0.0,0.0,0.0,0.0,0.0,1.3748,1.3098,1.2536,1.1784,1.0709,0.9857,0.9229,0.8845,1.0096,1.1141,1.1543,0.0,0.0,0.0,0.0,0.0,0.0,0.0,0.0,0.0,0.0,0.0,1.1498,1.1579,1.1623,0.0,0.0,1.1694,1.1834,0.0,0.0,0.0,0.0,0.0,0.0,0.0,0.0,0.0,0.0,0.0,0.0,0.0,0.0,0.0,0.0,0.0,0.0,0.0,0.0,0.0,0.0,2.134,2.2349,2.2716,2.3603,2.4246,2.349,2.3351,2.3454,0.0,0.0,2.3911,2.4581,2.5012,2.5264,2.5264,2.5334,2.5371,0.0,0.0,2.7312,0.0,0.0,0.0,0.0,0.0,0.0,0.0,0.0,0.0,0.0,0.0,0.0,2.4253,2.3395,2.3578,2.4928,2.2392,2.0923,2.0858,1.9582,1.835,1.7273,1.775,1.763,1.6951,1.6889,1.6987,1.7252,1.6686,0.0,0.0,1.6908,1.6908,1.6908,1.6691,1.6551,1.656,1.6677,1.6581,1.6422,0.0,0.0,0.0,0.0,0.0,0.0,0.0,1.0848,0.9628,0.9359,0.7125,0.6378,0.8572,0.9658,1.0504,1.1231,0.0,0.0,0.0,0.0,0.0,0.0,0.0,0.0,0.0,0.0,0.0,1.2498,1.2537,1.2591,1.2591,1.2591,1.2591,1.2591,0.0,0.0,0.0,0.0,0.0,0.0,0.0,0.0,0.0,0.0,0.0,0.0,0.0,0.0,0.0,0.0,0.0,0.0,0.0,0.0,0.0,0.0,2.0857,2.2788,2.2347,2.3148,2.4035,2.3763,2.361,2.363,0.0,0.0,2.4409,2.5135,2.5354,2.5409,2.5408,2.5407,2.5407,2.5407,0.0,0.0,0.0,0.0,0.0,0.0,0.0,0.0,0.0,0.0,0.0,0.0,0.0,0.0,2.4336,2.1843,2.1274,2.3239,2.1154,1.9981,1.9812,1.8063,1.7252,1.7193,1.6681,1.6392,1.6402,1.6327,1.6321,0.0,0.0,0.0,0.0,1.6908,1.6908,1.683,1.6123,1.5833,1.5876,1.6246,1.5871,1.5486,0.0,0.0,0.0,0.0,0.0,0.0,0.0,1.3518,1.2664,1.1562,1.0595,0.9882,0.9525,1.0777,1.1726,1.1958,0.0,0.0,0.0,0.0,0.0,0.0,0.0,0.0,0.0,0.0,1.2657,1.2572,1.2646,1.2724,1.2806,1.2842,1.3287,1.404,1.4039,0.0,0.0,0.0,0.0,0.0,0.0,0.0,0.0,0.0,0.0,0.0,0.0,0.0,0.0,0.0,0.0,0.0,0.0,0.0,0.0,0.0,0.0,0.0,2.2659,2.3402,2.4118,2.3876,2.4218,2.4598,2.4577,0.0,2.5028,2.5302,2.5317,2.5255,2.5255,2.5181,2.5302,2.5871,2.6862,0.0,0.0,0.0,0.0,0.0,0.0,0.0,0.0,0.0,0.0,0.0,0.0,0.0,2.1681,2.0902,2.1116,2.2352,1.9947,1.8983,1.9625,1.847,1.7719,1.7316,1.7448,1.7264,1.6726,1.6729,1.6872,0.0,0.0,0.0,0.0,1.6968,1.6691,1.6263,1.5903,1.5833,1.5876,1.6246,1.661,1.7089,0.0,0.0,0.0,0.0,0.0,0.0,0.0,1.4369,1.3497,1.2539,1.1974,1.1206,0.9942,1.1565,1.2636,1.2355,0.0,0.0,0.0,0.0,0.0,0.0,0.0,0.0,0.0,1.3274,1.3259,1.316,1.3227,1.3309,1.3388,1.3727,1.4268,1.498,1.5314,0.0,0.0,0.0,0.0,0.0,0.0,0.0,1.9036,0.0,0.0,0.0,0.0,0.0,0.0,0.0,0.0,0.0,0.0,0.0,0.0,0.0,2.3723,0.0,0.0,2.3667,2.4075,2.3934,2.4422,0.0,0.0,0.0,2.5252,2.5223,2.515,2.51,2.5091,2.5279,2.5568,2.6072,2.7096,0.0,0.0,0.0,0.0,0.0,0.0,0.0,0.0,0.0,0.0,0.0,0.0,0.0,2.0556,2.0546,2.0887,2.142,1.9059,1.8212,1.9084,1.8415,1.7904,1.755,1.7591,1.7239,1.6679,1.6679,1.6817,0.0,0.0,0.0,0.0,1.6682,1.6333,1.5912,1.5703,1.561,1.5812,1.6616,1.7186,1.7516,0.0,0.0,0.0,0.0,0.0,0.0,0.0,0.0,0.0,1.2624,1.185,1.1024,1.0279,1.2241,1.3353,0.0,0.0,0.0,0.0,0.0,0.0,0.0,0.0,0.0,0.0,1.4093,1.4118,1.41,1.4234,1.4295,1.4325,1.5127,1.554,1.5645,1.6451,1.7223,1.7967,1.8661,1.9068,1.9243,1.9258,1.9258,0.0,0.0,0.0,0.0,0.0,0.0,0.0,0.0,0.0,0.0,0.0,0.0,0.0,0.0,0.0,0.0,0.0,2.3999,0.0,0.0,0.0,0.0,0.0,0.0,0.0,2.4918,2.4862,2.485,2.4917,2.5513,2.6046,2.6178,2.7481,0.0,0.0,0.0,0.0,0.0,0.0,0.0,0.0,0.0,0.0,0.0,0.0,0.0,2.0576,2.0484,2.0437,2.0406,1.8466,1.7677,1.8267,1.8061,1.7917,1.773,1.7203,1.6725,1.6404,1.6376,1.6395,0.0,0.0,0.0,0.0,1.6342,1.5981,1.5803,1.5495,1.547,1.584,1.7311,1.751,1.717,0.0,0.0,0.0,0.0,0.0,0.0,0.0,0.0,0.0,0.0,1.4437,1.4222,1.4038,1.4472,1.473,0.0,0.0,0.0,0.0,0.0,0.0,0.0,0.0,0.0,0.0,1.4324,1.4276,1.418,1.4817,1.5208,1.5372,1.6165,1.6927,1.762,1.7837,1.836,1.9119,1.938,1.9576,1.9675,1.9783,1.9861,0.0,0.0,0.0,0.0,2.0107,2.0697,0.0,0.0,0.0,0.0,0.0,0.0,0.0,0.0,2.5371,2.5231,2.5033,0.0,2.4959,2.4916,2.4988,2.5024,0.0,0.0,0.0,0.0,0.0,0.0,0.0,2.5167,2.5578,2.6823,2.7358,2.7565,0.0,0.0,0.0,0.0,0.0,0.0,0.0,0.0,0.0,0.0,0.0,1.943,1.8701,1.8607,1.8676,1.879,1.7904,1.7801,1.8623,1.8629,1.8142,1.7368,1.7345,1.7376,1.7441,1.7263,1.752,0.0,0.0,0.0,1.7276,1.6981,1.6527,1.6138,1.6762,1.7029,1.7081,1.7098,1.7519,1.7969,0.0,0.0,0.0,0.0,0.0,0.0,0.0,0.0,0.0,0.0,0.0,0.0,0.0,0.0,0.0,0.0,0.0,0.0,0.0,0.0,0.0,0.0,0.0,0.0,1.4719,1.5113,1.5283,1.5208,1.6052,1.6515,1.6631,1.7451,1.8092,1.8596,1.8993,1.9401,1.9839,1.9903,1.9954,1.9984,2.006,0.0,0.0,0.0,0.0,0.0,2.0706,2.1432,0.0,2.3137,2.3972,2.4779,0.0,0.0,0.0,0.0,2.5274,2.5201,2.5161,2.5174,2.5187,2.5117,2.5037,2.4935,0.0,0.0,0.0,0.0,0.0,0.0,0.0,0.0,0.0,0.0,2.6694,0.0,0.0,0.0,0.0,0.0,0.0,0.0,0.0,0.0,0.0,0.0,0.0,1.8839,1.8278,1.8536,1.8703,1.8633,1.8533,1.8518,1.8492,1.8504,1.8193,1.7588,1.7729,1.7764,1.7661,1.7764,1.7991,0.0,0.0,0.0,1.7859,1.7486,1.7168,1.6934,1.7587,1.7658,1.7464,1.7778,1.8005,1.8127,0.0,0.0,0.0,0.0,0.0,0.0,0.0,0.0,0.0,0.0,0.0,0.0,0.0,0.0,0.0,0.0,0.0,0.0,0.0,0.0,0.0,0.0,0.0,1.5511,1.5504,1.6214,1.6605,1.6612,1.7348,1.7771,1.7905,1.8594,1.8969,1.9131,1.9879,2.0214,2.0192,2.0219,2.0246,2.0238,2.0237,0.0,0.0,0.0,0.0,0.0,0.0,0.0,0.0,2.3882,2.4629,2.5288,2.5255,0.0,0.0,0.0,0.0,0.0,2.4917,2.4908,2.4878,2.4898,2.4799,2.4625,2.4368,0.0,0.0,0.0,0.0,0.0,0.0,0.0,0.0,0.0,0.0,0.0,0.0,0.0,0.0,0.0,0.0,0.0,0.0,0.0,0.0,0.0,0.0,1.8259,1.8213,1.8881,1.9093,1.8773,1.919,1.8961,1.7995,1.8134,1.8078,1.7872,1.8021,1.7862,1.7548,1.7891,1.8019,1.7962,0.0,0.0,1.8332,1.783,1.7707,1.7823,1.8109,1.8011,1.7778,1.8593,1.8559,1.8158,0.0,0.0,0.0,0.0,0.0,0.0,0.0,0.0,0.0,0.0,0.0,0.0,0.0,0.0,0.0,0.0,0.0,0.0,0.0,0.0,0.0,0.0,1.736,1.7298,1.7296,1.7423,1.754,1.7587,1.7664,1.8082,1.8806,1.887,1.9287,2.0005,2.0211,2.0244,2.0211,2.0379,2.0412,2.0367,2.0434,0.0,0.0,0.0,0.0,0.0,0.0,0.0,0.0,2.4109,2.463,2.5255,2.503,0.0,0.0,0.0,0.0,0.0,2.4551,2.4206,2.3934,2.4381,2.4551,2.4489,2.4002,0.0,0.0,0.0,0.0,0.0,0.0,0.0,0.0,0.0,0.0,0.0,0.0,0.0,0.0,0.0,0.0,0.0,0.0,0.0,0.0,0.0,0.0,1.732,1.6903,1.7339,1.7438,1.7172,1.748,1.7675,1.7585,1.8252,1.8199,1.7314,1.7636,1.7705,1.7647,1.7705,1.8004,1.8431,0.0,1.7492,1.8253,1.7845,1.8105,1.8749,1.8565,1.9207,1.9906,1.8621,1.8567,1.8975,0.0,0.0,0.0,0.0,0.0,0.0,0.0,0.0,0.0,0.0,0.0,0.0,0.0,0.0,0.0,0.0,0.0,0.0,0.0,0.0,0.0,1.9305,1.9245,1.8769,1.7838,1.8268,1.7827,1.6448,1.6886,1.6598,1.5636,1.7014,1.8622,2.0349,2.0383,2.0398,2.0371,2.0467,2.048,2.0451,0.0,0.0,0.0,0.0,0.0,0.0,0.0,0.0,0.0,0.0,2.4727,2.4936,2.4734,0.0,0.0,0.0,0.0,0.0,2.4044,2.379,2.3541,2.3587,2.3629,2.3605,2.331,0.0,0.0,0.0,0.0,0.0,0.0,0.0,0.0,0.0,0.0,0.0,0.0,0.0,0.0,0.0,0.0,0.0,0.0,0.0,0.0,0.0,0.0,0.0,1.6228,1.6519,1.6742,1.6725,1.6635,1.6918,1.7485,1.7716,1.7677,1.7442,1.7725,1.7784,1.7716,1.8025,1.8238,1.8299,0.0,1.8239,1.8658,1.7997,1.8293,1.908,1.8118,1.8443,1.9388,1.8408,1.8117,1.8215,0.0,0.0,0.0,0.0,0.0,0.0,0.0,0.0,0.0,0.0,0.0,0.0,0.0,0.0,0.0,0.0,0.0,0.0,0.0,0.0,2.0579,2.0536,2.0511,1.9899,1.8538,1.8584,1.7635,1.5596,1.5373,1.4226,1.2329,1.5131,1.7582,1.9602,2.024,2.0508,2.0499,2.049,2.0507,2.0515,0.0,0.0,0.0,0.0,0.0,0.0,0.0,0.0,0.0,0.0,0.0,0.0,0.0,0.0,0.0,2.3862,2.3801,2.3759,2.3512,2.3338,2.3153,2.2873,0.0,2.2898,2.2764,0.0,0.0,0.0,0.0,0.0,0.0,0.0,0.0,0.0,0.0,0.0,0.0,0.0,0.0,0.0,0.0,0.0,0.0,0.0,0.0,0.0,0.0,0.0,1.5989,1.6195,1.6336,1.65,1.6205,1.65,1.7302,1.711,1.7263,1.7706,1.793,1.794,1.7794,1.8191,1.8276,1.8094,1.849,1.8682,1.8623,1.7908,1.8128,1.8902,1.737,1.7348,1.8213,1.8127,1.8005,1.7735,0.0,0.0,0.0,0.0,0.0,0.0,0.0,0.0,0.0,0.0,0.0,0.0,0.0,0.0,0.0,0.0,0.0,0.0,0.0,0.0,2.0605,2.0585,2.0585,2.05,2.0318,1.8067,1.6769,1.6506,1.3027,1.1186,1.1011,1.4446,1.6343,1.6986,1.9424,2.0507,2.0508,2.049,2.0509,2.0575,2.1374,0.0,0.0,0.0,0.0,0.0,0.0,0.0,0.0,0.0,0.0,0.0,0.0,0.0,2.3566,2.3028,2.2883,2.291,2.294,2.2678,2.2392,2.2422,2.2721,0.0,2.2588,2.232,0.0,0.0,0.0,0.0,0.0,0.0,0.0,0.0,0.0,0.0,0.0,0.0,0.0,0.0,0.0,0.0,0.0,0.0,0.0,0.0,0.0,0.0,1.6114,1.6217,1.6176,1.5879,1.6215,1.6519,1.6763,1.6733,1.7048,1.7706,1.793,1.8008,1.794,1.7813,1.7832,1.7988,1.7861,1.7745,1.7576,1.711,1.7475,1.8138,1.6785,1.6584,1.7121,1.8195,1.8638,1.8597,0.0,0.0,0.0,0.0,0.0,0.0,0.0,0.0,0.0,0.0,0.0,0.0,0.0,0.0,0.0,0.0,0.0,0.0,0.0,0.0,2.0547,2.0547,2.0533,2.0522,2.0506,1.8001,1.5117,1.1873,1.0425,1.0396,1.1746,1.494,1.7357,1.9078,2.0066,2.0492,2.0504,2.0507,2.0745,2.1157,2.1482,2.1857,0.0,0.0,0.0,0.0,0.0,0.0,0.0,0.0,2.4003,2.3886,0.0,2.3206,2.3218,2.2892,2.2782,2.2764,2.2624,2.2237,2.1895,2.2039,0.0,0.0,0.0,0.0,0.0,0.0,0.0,0.0,0.0,0.0,0.0,0.0,0.0,0.0,0.0,0.0,0.0,0.0,0.0,0.0,0.0,0.0,0.0,0.0,0.0,0.0,1.6482,1.6524,1.6471,1.6347,1.6258,1.6355,1.6728,1.6455,1.6548,1.7077,1.7424,1.7687,1.7784,1.7862,1.7579,1.7166,1.7148,1.7162,1.7092,1.6438,1.6915,1.8005,1.7306,1.6694,1.6251,1.7168,1.7397,1.7208,0.0,0.0,0.0,0.0,0.0,0.0,0.0,0.0,0.0,0.0,0.0,0.0,0.0,0.0,0.0,0.0,0.0,0.0,0.0,2.0509,2.0494,2.0503,2.0506,2.0102,1.9297,1.6773,1.367,1.0017,0.8254,0.8551,1.0842,1.3874,1.6708,1.9301,2.0089,2.0446,2.0455,2.0665,2.1026,2.1484,2.197,2.244,0.0,0.0,0.0,0.0,0.0,0.0,0.0,0.0,2.3584,0.0,0.0,0.0,0.0,0.0,2.2392,2.2209,2.1953,2.1582,2.1259,0.0,0.0,0.0,0.0,0.0,0.0,0.0,0.0,0.0,0.0,0.0,0.0,0.0,0.0,0.0,0.0,0.0,0.0,0.0,0.0,0.0,0.0,0.0,0.0,0.0,0.0,0.0,0.0,1.6631,1.6503,1.6306,1.6035,1.5999,1.6309,1.6016,1.6084,1.6523,1.6826,1.7191,1.7591,1.7735,1.7532,1.7028,1.7157,1.7148,1.6862,1.6306,1.6524,1.7254,1.7333,1.6617,1.5752,1.6465,1.6681,1.6715,0.0,0.0,0.0,0.0,0.0,0.0,0.0,0.0,0.0,0.0,0.0,0.0,0.0,0.0,0.0,0.0,0.0,0.0,0.0,2.0502,2.0496,2.0497,2.0507,1.9297,1.6683,1.415,1.2605,1.2166,0.6672,0.5287,0.7834,1.0878,1.3842,1.6734,1.9212,2.0291,2.034,2.1015,2.1301,2.1443,2.298,2.3515,2.3491,0.0,0.0,0.0,0.0,0.0,0.0,0.0,2.3324,0.0,0.0,0.0,0.0,0.0,2.1521,2.1054,2.0863,2.0602,2.0385,0.0,0.0,0.0,0.0,0.0,0.0,0.0,0.0,0.0,0.0,0.0,0.0,0.0,0.0,0.0,0.0,0.0,0.0,0.0,0.0,0.0,0.0,0.0,0.0,0.0,0.0,0.0,0.0,1.6482,1.6026,1.541,1.541,1.541,1.541,1.541,1.5625,1.6115,1.6115,1.6523,1.7373,1.7383,1.7607,1.7998,1.8008,1.7579,1.6932,1.6932,1.6446,1.5816,1.6585,1.6376,1.5718,1.6093,1.6747,1.7605,0.0,0.0,0.0,0.0,0.0,0.0,0.0,0.0,0.0,0.0,0.0,0.0,0.0,0.0,0.0,0.0,0.0,0.0,0.0,2.0437,2.0427,2.043,2.0432,2.0064,1.9297,1.6452,1.3169,0.9465,0.9635,1.102,1.3532,1.6518,1.8332,1.915,1.9854,2.047,2.1005,2.1105,2.1782,2.2809,2.3168,2.3612,2.404,0.0,0.0,0.0,0.0,0.0,0.0,0.0,0.0,0.0,0.0,0.0,0.0,2.218,2.1991,2.1857,2.1702,2.1197,0.0,0.0,0.0,0.0,0.0,0.0,0.0,0.0,0.0,0.0,0.0,0.0,0.0,0.0,0.0,0.0,0.0,0.0,0.0,0.0,0.0,0.0,0.0,0.0,0.0,0.0,0.0,0.0,0.0,1.6978,1.6641,1.6026,1.6026,1.5853,1.541,1.541,1.5478,1.5605,1.5605,1.6064,1.6934,1.7246,1.7167,1.6738,1.7095,1.7079,1.6932,1.6932,1.6793,1.6515,1.6167,1.5877,1.5754,1.6439,1.6836,1.7128,0.0,0.0,0.0,0.0,0.0,0.0,0.0,0.0,0.0,0.0,0.0,0.0,0.0,0.0,0.0,0.0,0.0,0.0,0.0,0.0,2.0404,2.0395,2.039,1.9903,1.8834,1.6876,1.4422,1.1482,1.1902,1.341,1.5906,1.782,1.9228,2.0112,1.9068,1.9544,2.1085,2.0332,2.1287,2.3316,2.3483,2.3823,2.4191,0.0,0.0,0.0,0.0,0.0,0.0,0.0,0.0,0.0,0.0,0.0,0.0,2.1615,2.1337,2.1086,2.0718,0.0,0.0,0.0,0.0,0.0,0.0,0.0,0.0,0.0,0.0,0.0,0.0,0.0,0.0,0.0,0.0,0.0,0.0,0.0,0.0,0.0,0.0,0.0,0.0,0.0,0.0,0.0,0.0,0.0,0.0,1.6866,1.6585,1.5968,1.5911,1.5748,1.541,1.541,1.541,1.541,1.541,1.5693,1.623,1.6846,1.6937,1.6703,1.7116,1.7148,1.6932,1.6932,1.6724,1.6376,1.5886,1.5886,1.6237,1.6724,1.6932,1.6996,0.0,0.0,0.0,0.0,0.0,0.0,0.0,0.0,0.0,0.0,0.0,0.0,0.0,0.0,0.0,0.0,0.0,0.0,0.0,0.0,2.0399,2.0399,2.0392,1.9239,1.6784,1.6383,1.6352,1.6649,1.3746,1.3654,1.6203,1.6488,1.7907,2.0069,0.0,1.8339,2.0998,1.947,2.0497,2.3234,2.384,2.4074,2.4016,2.3834,0.0,0.0,0.0,0.0,0.0,0.0,0.0,0.0,0.0,0.0,2.1584,2.0716,2.0097,1.957,1.8896,0.0,0.0,0.0,0.0,0.0,0.0,0.0,0.0,0.0,0.0,0.0,0.0,0.0,0.0,0.0,0.0,0.0,0.0,0.0,0.0,0.0,0.0,0.0,0.0,0.0,0.0,0.0,0.0,0.0,0.0,1.6197,1.5968,1.541,1.541,1.541,1.541,1.541,1.541,1.541,1.541,1.541,1.5439,1.6328,1.6928,1.7385,1.7765,1.7491,1.6817,1.6775,1.6349,1.5764,1.5799,1.6237,1.6932,1.6932,1.6932,1.7135,0.0,0.0,0.0,0.0,0.0,0.0,0.0,0.0,0.0,0.0,0.0,0.0,0.0,0.0,0.0,0.0,0.0,0.0,0.0,0.0,2.0399,2.0399,2.0306,1.995,1.9313,1.922,1.9211,1.9277,1.629,1.6328,0.0,0.0,0.0,2.0709,0.0,2.0867,2.258,2.2063,2.2629,2.3876,2.3864,2.3771,2.3616,2.3458,2.3348,0.0,0.0,0.0,0.0,0.0,0.0,0.0,2.1568,2.1401,2.137,2.1166,2.0797,2.0403,0.0,1.9621,0.0,0.0,0.0,0.0,0.0,0.0,0.0,0.0,0.0,0.0,0.0,0.0,0.0,0.0,0.0,0.0,0.0,0.0,0.0,0.0,0.0,0.0,0.0,0.0,0.0,0.0,0.0,0.0,1.5633,1.5575,1.5517,1.541,1.541,1.541,1.541,1.541,1.541,0.0,1.541,1.541,1.5439,1.6328,1.6804,1.7027,1.7111,1.6825,1.6346,1.6035,1.5982,1.6143,1.6528,1.6724,1.6932,1.6932,1.7295,1.7666,0.0,0.0,0.0,0.0,0.0,0.0,0.0,0.0,0.0,0.0,0.0,0.0,0.0,0.0,0.0,0.0,0.0,0.0,0.0,0.0,0.0,2.0294,2.0211,2.0106,2.002,2.0001,1.995,1.9851,1.8301,0.0,0.0,0.0,0.0,2.0807,0.0,2.082,2.2868,2.1602,2.2136,2.381,2.3707,2.3531,2.3301,2.3247,2.3157,2.3084,2.2825,0.0,0.0,0.0,0.0,0.0,0.0,0.0,2.091,2.0698,2.0449,2.0143,0.0,0.0,0.0,0.0,0.0,0.0,0.0,0.0,0.0,0.0,0.0,0.0,0.0,0.0,0.0,0.0,0.0,0.0,0.0,0.0,0.0,0.0,0.0,0.0,0.0,0.0,0.0,0.0,0.0,1.5748,1.541,1.541,1.541,1.541,1.541,1.541,1.541,1.541,1.541,1.541,1.541,1.5341,1.5254,1.5908,1.6542,1.7139,1.6714,1.6459,1.6209,1.6002,1.5927,1.5944,1.6084,1.6256,1.6361,1.6361,1.649,1.6665,0.0,0.0,0.0,0.0,0.0,0.0,0.0,0.0,0.0,0.0,0.0,0.0,0.0,0.0,0.0,0.0,0.0,0.0,0.0,0.0,0.0,0.0,2.0088,2.001,1.9862,1.9851,1.9757,1.9569,0.0,0.0,0.0,0.0,0.0,2.1078,0.0,2.0497,2.2828,2.0858,2.1356,2.3504,2.3504,2.3301,2.3035,2.3035,2.301,2.2935,2.2712,2.2605,2.2579,2.222,0.0,0.0,0.0,0.0,2.0447,2.0089,1.9823,1.9603,0.0,0.0,0.0,0.0,0.0,0.0,0.0,0.0,0.0,0.0,0.0,0.0,0.0,0.0,0.0,0.0,0.0,0.0,0.0,0.0,0.0,0.0,0.0,0.0,0.0,0.0,0.0,0.0,0.0,1.541,1.541,1.541,1.541,1.541,1.541,1.541,1.541,1.541,1.541,1.541,1.541,1.5291,1.5158,1.545,1.6058,1.6863,1.6438,1.6108,1.599,1.6136,1.5982,1.5679,1.5553,1.5689,1.5927,1.567,1.5599,1.5806,0.0,0.0,0.0,0.0,0.0,0.0,0.0,0.0,0.0,0.0,0.0,0.0,0.0,0.0,0.0,0.0,0.0,0.0,2.0107,0.0,0.0,1.996,1.992,1.9839,1.9649,1.9636,1.9582,1.9423,0.0,0.0,0.0,0.0,0.0,2.252,0.0,0.0,2.3635,2.3319,2.3318,2.3504,2.3504,2.3206,2.2747,2.2747,2.2605,2.2377,2.231,2.231,2.2237,2.157,2.126,0.0,0.0,0.0,2.017,2.022,2.001,1.969,0.0,0.0,0.0,0.0,0.0,0.0,0.0,0.0,0.0,0.0,0.0,0.0,0.0,0.0,0.0,0.0,0.0,0.0,0.0,0.0,0.0,0.0,0.0,0.0,0.0,0.0,0.0,0.0,1.5468,1.541,1.541,1.541,1.541,1.541,1.541,1.541,1.541,1.541,1.541,1.541,1.541,1.5381,1.5341,1.551,1.5375,1.5055,1.5836,1.5789,1.5142,1.5898,1.6141,1.6036,1.6235,1.6421,1.6402,1.5219,1.5731,1.6968,0.0,0.0,0.0,0.0,0.0,0.0,0.0,0.0,0.0,0.0,0.0,0.0,0.0,0.0,0.0,1.9907,1.996,1.9981,1.9981,1.9947,1.9915,1.9907,1.9793,1.9701,1.9596,1.9527,1.9645,0.0,0.0,0.0,0.0,2.179,2.2136,0.0,0.0,0.0,0.0,0.0,2.3667,2.3683,2.3683,2.3281,2.2702,2.2943,2.2546,2.1886,2.2111,2.2111,2.1903,2.1554,2.1118,2.0731,2.053,0.0,0.0,0.0,2.0304,0.0,1.9043,0.0,0.0,0.0,0.0,0.0,0.0,0.0,0.0,0.0,0.0,0.0,0.0,0.0,0.0,0.0,0.0,0.0,0.0,0.0,0.0,0.0,0.0,0.0,0.0,0.0,0.0,0.0,1.541,1.541,1.541,1.541,1.541,1.541,1.541,1.541,1.541,1.541,1.541,1.541,1.4697,1.4519,1.4902,1.5189,1.5394,1.5475,1.5753,1.5725,1.5605,1.5753,1.5766,1.5662,1.5478,1.5423,1.5345,1.4556,1.4945,1.5776,0.0,0.0,0.0,0.0,0.0,0.0,0.0,0.0,0.0,0.0,0.0,0.0,0.0,0.0,0.0,0.0,1.9862,1.9862,1.9862,1.9837,1.9813,1.9828,1.9688,1.9587,1.9532,1.9597,0.0,0.0,0.0,0.0,2.2689,2.289,2.2982,0.0,2.3503,0.0,0.0,0.0,0.0,0.0,2.367,2.3262,2.2729,2.2751,2.2184,2.1493,2.1844,2.1814,2.157,2.1415,2.0991,2.0514,2.0496,2.0289,0.0,0.0,0.0,0.0,0.0,0.0,0.0,0.0,0.0,0.0,0.0,0.0,0.0,0.0,0.0,0.0,0.0,0.0,0.0,0.0,0.0,0.0,0.0,0.0,0.0,0.0,0.0,0.0,0.0,0.0,0.0,0.0,1.5294,1.5352,1.5177,1.5294,1.541,1.541,1.541,1.541,1.541,1.541,1.5294,1.5177,1.4341,1.4222,1.4715,1.5186,1.5562,1.5918,1.5779,1.5732,1.5696,1.5649,1.5498,1.5298,1.4921,1.4751,1.4748,1.4299,1.4388,1.4746,0.0,0.0,0.0,0.0,0.0,0.0,0.0,0.0,0.0,0.0,0.0,0.0,0.0,1.9807,1.9807,1.9807,1.9807,1.9807,1.9807,1.9807,1.9738,1.9609,1.9614,0.0,1.9314,1.9996,0.0,0.0,0.0,0.0,2.2727,2.3415,2.3635,2.3455,2.3508,2.3526,2.3517,0.0,0.0,0.0,0.0,0.0,0.0,0.0,2.1245,0.0,0.0,2.1339,2.1229,2.078,2.063,2.053,2.0239,2.01,2.0115,0.0,0.0,0.0,0.0,0.0,0.0,0.0,0.0,0.0,0.0,0.0,0.0,0.0,0.0,0.0,0.0,0.0,0.0,0.0,0.0,0.0,0.0,0.0,0.0,0.0,0.0,0.0,0.0,0.0,0.0,0.0,1.5059,1.5177,1.4588,1.5118,1.541,1.541,1.541,1.541,1.541,1.541,1.5118,1.4529,1.5059,1.5294,1.5371,1.5859,1.584,1.5469,1.5908,1.5489,1.4621,1.534,1.5414,1.5111,1.5195,1.5389,1.5478,1.4785,1.4771,1.4968,0.0,0.0,0.0,0.0,0.0,0.0,0.0,0.0,0.0,0.0,0.0,0.0,0.0,1.9807,1.9807,1.9807,1.9725,1.9668,1.9668,1.9582,1.9527,1.9467,1.9431,1.9614,1.9998,2.0224,0.0,0.0,0.0,2.288,2.3221,2.3472,2.3486,2.3253,2.3417,2.3584,2.3711,2.3884,0.0,0.0,0.0,0.0,0.0,0.0,0.0,0.0,0.0,0.0,0.0,2.0581,2.0395,2.0185,2.01,2.01,2.0157,2.0403,0.0,0.0,0.0,0.0,0.0,0.0,0.0,0.0,0.0,0.0,0.0,0.0,0.0,0.0,0.0,0.0,0.0,0.0,0.0,0.0,0.0,0.0,0.0,0.0,0.0,0.0,0.0,0.0,0.0,0.0,0.0,1.5294,1.5118,1.5294,1.541,1.541,1.5001,1.4824,1.4824,1.4401,1.446,1.5059,1.4883,1.5001,1.542,1.5566,1.5557,1.542,1.5576,1.5594,1.5508,1.5568,1.5779,1.6031,1.5393,1.5358,1.5504,1.4564,1.4255,1.4332,0.0,0.0,0.0,0.0,0.0,0.0,0.0,0.0,0.0,0.0,0.0,0.0,0.0,0.0,1.9668,1.9668,1.9582,1.9541,1.9541,1.9452,1.938,1.9368,1.9329,1.9632,2.035,2.0318,2.1097,0.0,0.0,0.0,0.0,2.3394,2.323,2.296,2.3157,2.343,0.0,0.0,0.0,2.5296,0.0,0.0,2.3128,0.0,0.0,0.0,0.0,0.0,0.0,0.0,1.9823,1.9639,1.9675,0.0,0.0,0.0,0.0,0.0,2.0659,0.0,0.0,0.0,0.0,0.0,0.0,0.0,0.0,0.0,0.0,0.0,0.0,0.0,0.0,0.0,0.0,0.0,0.0,0.0,0.0,0.0,0.0,0.0,0.0,0.0,0.0,0.0,0.0,0.0,1.5118,1.5294,1.5294,1.5118,1.4706,1.441,1.4172,1.4297,1.4598,1.5118,1.5084,1.5143,1.541,1.5177,1.5235,1.541,1.5177,1.5358,1.5779,1.5632,1.5818,1.6188,1.5571,1.5291,1.516,1.4449,1.4057,1.3823,0.0,0.0,0.0,0.0,0.0,0.0,0.0,0.0,0.0,0.0,0.0,0.0,0.0,0.0,0.0,1.9409,1.9394,1.9394,1.9394,1.9394,1.9368,1.9301,1.9319,1.9656,2.0318,2.0355,2.1133,0.0,0.0,0.0,0.0,0.0,2.2935,2.2685,2.2685,2.3099,2.3812,0.0,2.4725,2.4926,0.0,2.3189,2.2675,0.0,0.0,0.0,1.9833,1.969,0.0,1.908,0.0,0.0,0.0,0.0,0.0,0.0,0.0,0.0,0.0,0.0,0.0,0.0,0.0,0.0,0.0,0.0,0.0,0.0,0.0,0.0,0.0,0.0,0.0,0.0,0.0,0.0,0.0,0.0,0.0,0.0,0.0,0.0,0.0,0.0,0.0,0.0,1.5059,1.5118,1.4529,1.5059,1.5059,1.4529,1.4469,1.4172,1.3571,1.5219,1.553,1.4538,1.553,1.582,1.5352,1.4765,1.4765,1.5294,1.4765,1.4698,1.5111,1.5433,1.5498,1.535,1.5583,1.5234,1.4585,1.4601,1.4114,1.3492,0.0,0.0,0.0,0.0,0.0,0.0,0.0,0.0,0.0,0.0,0.0,0.0,0.0,0.0,1.9409,1.9409,1.9372,1.9329,1.9329,1.9232,1.9168,1.9172,1.97,2.0372,2.1151,2.1536,2.2264,2.3289,0.0,0.0,0.0,0.0,0.0,0.0,2.2405,2.2682,2.3214,2.4123,0.0,0.0,2.4092,2.3051,0.0,0.0,0.0,0.0,0.0,1.9132,1.9095,0.0,1.8893,1.8979,0.0,0.0,0.0,0.0,0.0,0.0,2.1704,0.0,0.0,0.0,0.0,0.0,0.0,0.0,0.0,0.0,0.0,0.0,0.0,0.0,0.0,0.0,0.0,0.0,0.0,0.0,0.0,0.0,0.0,0.0,0.0,0.0,0.0,0.0,1.4883,1.4706,1.4529,1.4222,1.4163,1.4469,1.4052,1.3932,1.4231,1.4699,1.4996,1.5177,1.501,1.4893,1.4706,1.4049,1.387,1.4043,1.435,1.4619,1.4775,1.5115,1.5405,1.5611,1.484,1.4429,1.4182,1.3886,1.3702,1.3492,0.0,0.0,0.0,0.0,0.0,0.0,0.0,0.0,0.0,0.0,0.0,0.0,0.0,0.0,1.9338,1.9277,1.9298,1.9285,1.9219,1.9137,1.9087,1.9087,1.9866,2.068,2.1477,2.1691,2.2353,2.3504,0.0,0.0,0.0,0.0,0.0,0.0,0.0,0.0,0.0,0.0,0.0,0.0,2.3606,0.0,0.0,2.0094,1.931,0.0,0.0,0.0,1.8717,1.8447,1.8498,0.0,0.0,0.0,0.0,0.0,0.0,0.0,0.0,0.0,0.0,0.0,0.0,0.0,1.9683,1.9267,1.8738,0.0,0.0,0.0,0.0,0.0,0.0,0.0,0.0,0.0,0.0,0.0,0.0,0.0,0.0,0.0,0.0,1.4874,1.4883,1.4638,1.4282,1.4231,1.4469,1.3872,1.3812,1.4469,1.4112,1.4112,1.4469,1.4943,1.5112,1.5001,1.5143,1.4777,1.4112,1.3965,1.3786,1.3511,1.3923,1.4118,1.4144,1.4029,1.4412,1.4996,1.4331,1.3939,1.3654,1.3512,1.3492,1.3492,0.0,0.0,0.0,0.0,0.0,0.0,0.0,0.0,0.0,0.0,0.0,0.0,0.0,0.0,0.0,0.0,1.9476,1.9492,1.9376,1.9359,1.9413,1.9503,2.0173,2.0934,2.1749,2.1473,2.2007,2.3458,0.0,0.0,0.0,0.0,0.0,0.0,0.0,0.0,0.0,0.0,0.0,2.3588,2.2683,2.1988,0.0,0.0,1.9026,1.8912,1.8553,1.8436,1.8358,1.7868,1.7929,0.0,0.0,0.0,0.0,0.0,2.1326,0.0,0.0,0.0,0.0,0.0,0.0,0.0,1.8939,1.8513,1.8093,1.7424,0.0,0.0,0.0,0.0,0.0,0.0,0.0,0.0,0.0,0.0,0.0,0.0,0.0,0.0,1.3752,1.4112,1.4172,1.3571,1.3511,1.3752,1.435,1.3812,1.3872,1.4588,1.4529,1.4519,1.4588,1.5432,1.5422,1.4538,1.5364,1.497,1.3511,1.4096,1.4036,1.3381,1.3442,1.3415,1.3319,1.2712,1.306,1.391,1.3921,1.3554,1.3001,1.336,1.3492,1.3492,1.9087,0.0,0.0,0.0,0.0,0.0,0.0,0.0,0.0,0.0,0.0,0.0,0.0,0.0,0.0,0.0,2.1116,2.1061,2.1025,2.1025,2.1332,2.1984,2.2165,2.2582,2.3324,2.2914,2.2864,2.3182,0.0,0.0,0.0,0.0,0.0,0.0,0.0,0.0,0.0,0.0,0.0,2.213,2.2255,0.0,2.0264,1.9069,1.8411,1.8109,1.8043,1.8029,1.7989,1.776,1.79,1.8368,0.0,0.0,0.0,0.0,0.0,0.0,0.0,0.0,0.0,0.0,0.0,0.0,1.9552,1.9344,1.9016,0.0,0.0,0.0,0.0,0.0,0.0,0.0,0.0,0.0,0.0,0.0,0.0,0.0,0.0,0.0,1.435,1.3932,1.3631,1.3511,1.3511,1.3571,1.3692,1.3563,1.4043,1.5177,1.4542,1.4542,1.5235,1.4734,1.4506,1.4469,1.415,1.3839,1.3511,1.364,1.3329,1.2757,1.326,1.3059,1.2296,1.2445,1.2631,1.2806,1.2795,1.275,1.2687,1.3279,1.3492,1.3492,1.9087,0.0,0.0,0.0,0.0,0.0,0.0,0.0,0.0,0.0,0.0,0.0,0.0,0.0,0.0,0.0,0.0,0.0,0.0,2.1514,2.1781,2.2413,2.2844,2.3334,2.3928,2.3989,2.4015,2.4015,0.0,0.0,0.0,0.0,0.0,0.0,0.0,0.0,0.0,0.0,2.2925,2.1963,2.1762,0.0,1.9561,1.8516,1.7989,1.7801,1.7801,1.7625,1.7352,1.7419,1.7787,0.0,0.0,1.9357,1.9984,0.0,2.0536,2.0233,0.0,0.0,0.0,1.9926,0.0,0.0,0.0,1.8857,1.8632,1.7809,1.7644,0.0,0.0,0.0,0.0,0.0,0.0,0.0,0.0,0.0,0.0,0.0,0.0,0.0,1.3554,1.3191,1.3009,1.3009,1.3009,1.3312,1.3992,1.3992,1.4401,1.5352,1.4972,1.4777,1.4777,1.4423,1.4016,1.3494,1.3865,1.351,1.2597,1.3571,1.3319,1.2097,1.2704,1.2561,1.1787,1.1987,1.2035,1.2088,1.2217,1.2277,1.2358,1.3009,1.325,1.3272,1.9087,0.0,0.0,0.0,0.0,0.0,0.0,0.0,0.0,0.0,0.0,0.0,0.0,0.0,0.0,0.0,0.0,0.0,0.0,0.0,0.0,2.2792,2.3431,2.4017,2.4558,2.478,2.489,2.489,0.0,0.0,0.0,0.0,0.0,0.0,0.0,0.0,0.0,0.0,0.0,2.2002,0.0,2.0301,1.927,1.8234,1.7828,1.7842,1.7679,1.7323,1.6921,1.7115,1.765,1.8248,1.8414,1.9274,0.0,0.0,0.0,0.0,0.0,0.0,0.0,0.0,0.0,1.8881,0.0,0.0,0.0,1.7479,0.0,0.0,0.0,0.0,0.0,0.0,0.0,0.0,0.0,0.0,0.0,0.0,0.0,0.0,0.0,1.2512,1.2573,1.2696,1.2818,1.3364,1.441,1.4588,1.4883,1.5352,1.541,1.4972,1.4091,1.4186,1.3666,1.2696,1.3683,1.3386,1.1988,1.3595,1.3395,1.1802,1.2274,1.2158,1.1622,1.1622,1.1622,1.1659,1.1911,1.1971,1.2109,1.2767,1.3009,1.306,1.9104,1.9087,0.0,0.0,0.0,0.0,0.0,0.0,0.0,0.0,0.0,0.0,0.0,0.0,0.0,0.0,0.0,0.0,2.328,0.0,0.0,2.5007,2.5068,2.5444,2.6188,2.5374,2.489,2.489,0.0,0.0,0.0,0.0,0.0,0.0,2.4907,0.0,0.0,0.0,2.2125,0.0,2.0513,2.0,0.0,1.8721,1.8397,1.8319,1.7679,1.7393,1.731,0.0,1.7606,1.8342,0.0,1.9079,1.9617,2.008,0.0,0.0,0.0,0.0,0.0,0.0,1.904,0.0,0.0,0.0,1.8709,1.8093,0.0,0.0,0.0,0.0,0.0,0.0,0.0,0.0,0.0,0.0,0.0,0.0,0.0,0.0,0.0,1.2512,1.2757,1.3321,1.3923,1.4341,1.4469,1.5001,1.5352,1.541,1.541,1.4972,1.4091,1.3408,1.3201,1.3381,1.2948,1.294,1.3277,1.3495,1.3153,1.2389,1.2451,1.2158,1.1622,1.1622,1.1622,1.1659,1.1911,1.1971,1.2109,1.2767,1.3009,1.306,1.9282,1.9086,0.0,0.0,0.0,0.0,0.0,0.0,0.0,0.0,0.0,0.0,0.0,0.0,0.0,0.0,0.0,2.3598,0.0,0.0,0.0,0.0,0.0,0.0,2.6602,2.6153,2.5936,2.5936,2.5825,0.0,0.0,0.0,0.0,0.0,2.4292,0.0,2.2897,0.0,2.1585,0.0,0.0,0.0,0.0,1.8475,1.7935,1.772,1.7475,1.7268,1.7074,0.0,1.7622,0.0,0.0,0.0,0.0,0.0,0.0,0.0,0.0,0.0,0.0,0.0,0.0,0.0,1.8987,0.0,1.8934,0.0,0.0,0.0,0.0,0.0,0.0,0.0,1.6312,0.0,0.0,0.0,0.0,0.0,0.0,0.0,0.0,0.0,0.0,0.0,1.435,1.4647,1.5001,1.5235,1.541,1.541,1.541,1.4972,1.4091,1.393,1.3717,1.3511,1.3189,1.2997,1.2895,1.2935,1.2554,1.1981,1.1981,1.1856,1.1622,1.1622,1.1622,1.1637,1.1706,1.1758,1.1838,1.2489,1.2723,1.2804,1.9989,0.0,0.0,0.0,0.0,0.0,0.0,0.0,0.0,0.0,0.0,0.0,2.3795,2.3795,0.0,0.0,2.362,2.3481,0.0,0.0,2.4222,0.0,0.0,0.0,0.0,0.0,2.6337,2.6556,2.6436,0.0,0.0,0.0,0.0,0.0,0.0,2.3014,2.2144,0.0,0.0,2.0321,1.9634,1.9338,1.9181,1.8343,1.7783,1.746,1.7518,1.7359,1.7103,1.723,1.7762,0.0,1.8142,0.0,0.0,0.0,0.0,0.0,1.8762,0.0,0.0,0.0,0.0,0.0,0.0,0.0,0.0,0.0,0.0,0.0,0.0,0.0,0.0,0.0,0.0,1.5921,0.0,0.0,0.0,0.0,0.0,0.0,0.0,0.0,0.0,1.4706,1.4588,1.4706,1.5118,1.4991,1.501,1.541,1.5254,1.4787,1.4091,1.4382,1.4154,1.3476,1.3339,1.2976,1.2504,1.236,1.1994,1.1622,1.1622,1.1622,1.1622,1.1622,1.1622,1.1622,1.1622,1.1611,1.1758,1.2314,1.2577,1.2738,2.1425,2.1406,0.0,0.0,0.0,0.0,0.0,0.0,0.0,0.0,0.0,0.0,0.0,0.0,0.0,0.0,0.0,2.3394,2.3116,0.0,2.3693,0.0,0.0,2.4896,0.0,0.0,2.5408,2.6139,2.5726,2.554,0.0,0.0,0.0,0.0,0.0,2.3,2.2547,2.0812,1.9861,1.9494,1.8793,1.8439,1.8279,0.0,1.8511,1.8127,1.794,0.0,0.0,1.7786,1.8154,0.0,0.0,0.0,0.0,0.0,0.0,0.0,0.0,0.0,0.0,1.8987,0.0,0.0,0.0,0.0,1.8655,0.0,0.0,0.0,0.0,0.0,0.0,0.0,0.0,0.0,0.0,0.0,0.0,0.0,0.0,0.0,0.0,0.0,1.4706,1.5352,1.4824,1.4529,1.4529,1.3923,1.4105,1.5379,1.4831,1.4382,1.4091,1.4382,1.4186,1.3511,1.2868,1.253,1.2472,1.1919,1.163,1.1622,1.1622,1.1622,1.1622,1.1622,1.1622,1.1622,1.1622,1.175,1.2058,1.2394,1.2723,1.3038,2.3039,0.0,0.0,0.0,0.0,0.0,0.0,2.3795,0.0,0.0,0.0,0.0,0.0,2.3795,2.3753,0.0,0.0,2.3133,2.285,2.3264,0.0,0.0,0.0,2.45,0.0,0.0,2.4562,2.5059,2.4899,2.4938,0.0,0.0,0.0,0.0,0.0,2.2017,0.0,0.0,0.0,0.0,0.0,1.8452,1.8719,0.0,0.0,1.7974,1.7927,1.7983,0.0,1.8091,1.8175,1.8225,1.8054,1.8116,1.8159,1.7424,1.7655,0.0,0.0,0.0,1.7809,1.7809,0.0,0.0,0.0,0.0,0.0,0.0,0.0,0.0,0.0,0.0,0.0,0.0,0.0,0.0,0.0,0.0,0.0,0.0,0.0,0.0,0.0,0.0,0.0,1.4765,1.4588,1.4291,1.3872,1.4401,1.4784,1.4771,1.4961,1.505,1.4972,1.4638,1.4405,1.4168,1.3024,1.2522,1.2472,1.1849,1.1622,1.1622,1.1622,1.1622,1.1622,1.1622,1.1622,1.1622,1.1622,1.1889,1.2343,1.2241,1.2541,1.306,2.3816,0.0,0.0,0.0,0.0,0.0,0.0,0.0,0.0,0.0,2.3795,0.0,2.3795,0.0,2.3642,0.0,2.3157,2.2876,2.2712,2.2903,0.0,2.2841,2.3294,0.0,0.0,0.0,0.0,2.3919,2.3791,2.3808,0.0,0.0,0.0,0.0,0.0,2.1188,1.9615,0.0,1.8724,0.0,0.0,1.8513,0.0,0.0,1.8401,1.8384,0.0,1.8396,1.843,1.8263,1.8266,1.8321,1.7644,1.7765,1.7941,1.6866,1.7146,1.771,1.7034,1.7034,0.0,1.7202,1.7479,0.0,1.7313,0.0,0.0,0.0,0.0,0.0,0.0,0.0,0.0,0.0,0.0,0.0,0.0,1.5508,0.0,0.0,0.0,0.0,0.0,0.0,1.4824,1.4824,1.4647,1.4291,0.0,0.0,1.4647,1.4469,1.4883,1.5059,1.5059,1.4786,1.4354,1.3788,1.304,1.2485,1.2189,1.1794,1.1622,1.1622,1.1622,1.1622,1.1622,1.1622,1.1622,1.1622,1.1622,1.1882,1.2336,1.2241,1.2621,1.3214,2.3795,0.0,0.0,0.0,2.3795,0.0,0.0,0.0,2.3795,0.0,2.3795,2.3795,2.3795,2.362,2.3504,2.3458,2.2985,2.2685,2.2685,2.2432,0.0,0.0,2.1797,2.196,2.2313,0.0,0.0,2.2821,2.245,2.2255,2.2286,0.0,0.0,0.0,2.1563,0.0,1.9504,1.8896,1.8262,1.7721,1.8198,1.853,1.8746,1.8746,1.897,1.9268,1.9056,1.8987,1.8881,1.8309,1.8429,1.8548,1.6866,1.7479,1.8429,1.6083,1.6641,1.7754,1.6585,1.6698,1.709,1.709,0.0,0.0,0.0,0.0,1.6978,0.0,0.0,0.0,0.0,0.0,0.0,0.0,0.0,0.0,0.0,0.0,0.0,0.0,0.0,0.0,0.0,1.5352,1.5352,1.5352,1.4824,0.0,0.0,0.0,1.3899,1.4497,1.4575,1.4524,1.4524,1.4698,1.4066,1.253,1.2805,1.248,1.1622,1.1622,1.1622,1.1622,1.1622,1.1622,1.1622,1.1622,1.1622,1.1622,1.1622,1.1765,1.2102,1.2423,1.2943,1.3477,2.3816,2.3685,2.3576,0.0,2.3689,2.3795,0.0,0.0,0.0,0.0,2.3795,2.3732,2.3598,2.3549,2.3324,2.2952,2.279,0.0,0.0,0.0,0.0,2.1811,2.1797,2.1622,2.1213,2.1129,0.0,2.1698,2.1605,2.1793,2.2286,0.0,0.0,0.0,0.0,0.0,1.8514,1.8967,1.8906,1.8387,1.8277,1.8707,0.0,0.0,1.9187,1.9457,1.915,1.8709,1.8321,1.8147,1.7589,1.6922,1.6472,1.6641,1.6754,1.569,1.6026,1.6585,1.5864,1.5748,1.5853,1.5853,1.6197,1.6415,0.0,0.0,0.0,0.0,0.0,0.0,0.0,0.0,0.0,0.0,0.0,0.0,0.0,0.0,0.0,1.5449,0.0,0.0,1.5352,1.5001,1.4706,1.4706,1.4588,0.0,0.0,0.0,0.0,1.497,1.5203,1.5296,1.5296,1.4081,1.3307,1.2883,1.2265,1.1856,1.1622,1.1622,1.1622,1.1622,1.1622,1.1622,1.1622,1.1622,1.1622,1.1622,1.1622,1.1904,1.2438,1.2767,1.2987,1.317,2.3692,0.0,0.0,2.3324,0.0,0.0,2.3685,0.0,0.0,2.3795,2.371,0.0,2.3945,2.349,2.315,2.3187,2.2767,0.0,2.231,0.0,0.0,2.1601,2.1448,2.1103,2.0595,2.0561,0.0,2.0875,0.0,0.0,2.1445,0.0,0.0,0.0,0.0,2.0348,0.0,1.9033,1.8993,1.8722,1.86,1.8879,0.0,1.9093,1.9146,1.9303,1.9093,1.8602,1.8038,1.7809,1.7257,1.6585,1.6083,1.6255,1.6528,1.5633,1.5806,1.6197,1.5575,1.541,1.541,1.541,1.5633,1.5806,1.5468,1.5633,1.5806,0.0,0.0,0.0,0.0,0.0,0.0,0.0,0.0,0.0,0.0,0.0,0.0,0.0,1.5396,0.0,1.5371,1.4824,1.4588,1.4883,1.4883,0.0,0.0,0.0,0.0,1.486,1.5194,1.4998,1.4245,1.3855,1.3236,1.2349,1.1939,1.1736,1.1622,1.1622,1.1622,1.1622,1.1622,1.1622,1.1637,1.1714,1.1765,1.178,1.1926,1.2292,1.276,1.2943,1.3097,1.325,2.3518,0.0,0.0,0.0,0.0,0.0,0.0,2.3602,0.0,2.3753,0.0,2.3821,2.4424,2.358,2.3237,2.3835,0.0,2.2569,2.2495,2.2245,2.1861,2.1391,2.1085,2.0722,2.0304,2.0235,2.0235,0.0,0.0,0.0,0.0,0.0,0.0,0.0,0.0,0.0,0.0,1.9021,1.8796,1.8845,1.8964,1.8987,1.8987,1.8987,1.8934,1.8881,1.8881,1.8483,1.7929,1.7368,1.709,1.6754,1.5748,1.614,1.6754,1.569,1.5748,1.6083,1.5526,1.541,1.541,1.541,1.541,1.541,1.541,1.541,1.5352,1.5294,1.4883,1.4488,0.0,0.0,0.0,0.0,0.0,0.0,0.0,0.0,0.0,0.0,0.0,0.0,1.5449,1.4942,1.4824,1.5352,0.0,0.0,0.0,0.0,0.0,1.4602,1.4866,1.4338,1.2894,0.0,1.3477,1.1788,1.1891,1.184,1.1622,1.1622,1.1622,1.1622,1.1622,1.1645,1.1641,1.1919,1.2058,1.2131,1.2453,1.276,1.3016,1.306,1.325,1.3492,0.0,0.0,0.0,0.0,0.0,2.2825,2.2825,2.3253,2.3553,2.3553,2.385,2.4033,2.3962,2.4275,2.4476,2.4394,2.4201,0.0,0.0,0.0,0.0,2.1766,2.1647,2.1208,2.032,1.9975,1.9797,0.0,0.0,0.0,0.0,0.0,0.0,0.0,0.0,0.0,1.9781,1.9077,0.0,1.896,1.9004,1.8987,1.8987,1.8987,1.8709,1.8255,1.8255,1.7863,1.7313,1.7257,1.6528,1.569,1.5468,1.5526,1.569,1.5468,1.5468,1.5517,1.541,1.541,1.541,1.541,1.541,1.541,1.541,1.541,1.5235,1.4765,1.4588,1.439,1.417,0.0,0.0,0.0,0.0,0.0,0.0,0.0,0.0,0.0,0.0,1.4363,0.0,1.5294,0.0,0.0,0.0,0.0,0.0,0.0,0.0,0.0,1.4771,0.0,0.0,0.0,1.3089,1.2772,1.2022,1.1633,1.1622,1.1622,1.1622,1.1622,1.1622,1.1714,1.1955,1.2014,1.2189,1.2467,1.2797,1.2958,1.3038,1.3309,1.3448,1.3492,0.0,0.0,0.0,0.0,0.0,0.0,0.0,2.4068,0.0,2.3883,2.392,2.4219,2.4873,2.4778,2.4781,2.5065,2.4538,2.4113,2.3901,2.3518,2.3045,2.2339,2.191,0.0,2.097,2.054,2.0308,2.0308,0.0,0.0,0.0,0.0,0.0,0.0,0.0,2.0454,0.0,0.0,0.0,1.9303,1.9093,1.8987,1.8987,1.8987,1.8655,1.8093,1.8093,1.7534,1.6754,1.6754,1.614,1.541,1.541,1.541,1.541,1.541,1.541,1.541,1.541,1.541,1.541,1.541,1.541,1.5294,1.5001,1.4942,1.4821,1.431,1.3978,1.3768,1.4016,1.4673,0.0,0.0,0.0,0.0,0.0,0.0,0.0,0.0,0.0,0.0,0.0,0.0,0.0,0.0,0.0,0.0,0.0,0.0,0.0,0.0,0.0,0.0,0.0,0.0,0.0,1.2462,1.2022,1.1707,1.1622,1.1622,1.1622,1.1622,1.1622,1.1743,1.2058,1.2401,1.2731,1.3038,1.3199,1.3258,1.3279,1.344,1.3492,1.3492,0.0,2.3374,0.0,0.0,2.4296,0.0,2.4802,2.4802,2.4712,2.44,2.4251,2.4602,2.5802,2.536,2.5186,2.5795,2.4929,2.4315,2.4247,2.3515,2.3005,2.2789,2.2028,2.1584,2.1435,2.0988,2.0781,0.0,0.0,0.0,0.0,0.0,0.0,0.0,0.0,0.0,0.0,0.0,1.9565,1.946,1.9146,1.8987,1.8987,1.8987,1.8536,1.7929,1.7929,1.7146,1.6083,1.6083,1.5806,1.541,1.541,1.541,1.541,1.541,1.541,1.541,1.541,1.541,1.541,1.541,1.541,1.5235,1.4647,1.4533,1.4439,1.3882,1.3357,1.3236,1.3974,1.4563,0.0,0.0,0.0,0.0,0.0,0.0,0.0,0.0,0.0,0.0,1.4258,0.0,0.0,0.0,0.0,0.0,0.0,0.0,0.0,0.0,0.0,1.3903,1.3533,0.0,1.318,1.231,1.219,1.1948,1.1663,1.1663,1.1663,1.1663,1.1663,1.1882,1.2284,1.287,1.3265,1.3492,1.3492,1.3492,1.3492,1.3492,1.3492,1.3492,0.0,0.0,0.0,0.0,0.0,0.0,2.4537,2.4537,2.4594,2.4804,2.5166,2.5471,2.5624,2.6133,2.6522,2.659,2.6165,2.5746,2.5366,2.4532,2.3641,2.2671,2.2142,2.1583,2.0961,2.0585,2.0344,0.0,0.0,2.0387,0.0,0.0,0.0,0.0,0.0,0.0,0.0,1.9656,1.9408,1.904,1.8999,1.8987,1.8987,1.8987,1.8267,1.7257,1.7257,1.6528,1.5468,1.5468,1.5468,1.541,1.541,1.541,1.541,1.541,1.541,1.541,1.541,1.541,1.541,1.541,1.541,1.5235,1.4647,1.4684,1.4515,1.3347,1.3027,1.32,1.3931,1.3869,1.3882,0.0,0.0,0.0,0.0,0.0,0.0,0.0,0.0,0.0,0.0,1.4638,0.0,0.0,1.5118,0.0,0.0,0.0,0.0,1.5053,0.0,1.4421,1.5349,1.4154,1.3491,1.3349,1.2766,1.2277,1.1992,1.1992,1.1992,1.1992,1.1992,1.2343,1.2943,1.3301,1.347,1.3492,1.3492,1.3492,1.3492,1.3492,1.3492,1.3492,0.0,0.0,0.0,0.0,0.0,0.0,0.0,2.5812,2.5876,2.5956,2.5758,2.5778,2.6201,2.6522,2.6624,2.635,2.598,2.5449,2.476,2.4184,2.3546,2.2834,2.2334,2.1951,2.1664,2.0969,2.0597,0.0,0.0,0.0,0.0,0.0,0.0,0.0,0.0,1.954,1.9056,1.9186,1.875,1.7984,1.8709,1.8762,1.8483,1.8483,1.7929,1.7146,1.681,1.614,1.541,1.541,1.541,1.541,1.541,1.541,1.541,1.541,1.541,1.541,1.541,1.541,1.5294,1.4942,1.4883,1.4643,1.3776,1.3689,1.3605,1.3124,1.3182,1.3366,1.3716,1.3958,1.4122,0.0,0.0,0.0,0.0,0.0,0.0,0.0,0.0,0.0,0.0,0.0,0.0,0.0,0.0,0.0,0.0,0.0,0.0,1.568,0.0,1.4188,1.53,1.3872,1.3233,1.3186,1.2694,1.2444,1.228,1.2109,1.2138,1.2336,1.2533,1.2767,1.3031,1.336,1.3492,1.3492,1.3492,1.3492,1.3492,1.3492,1.3623,1.3784,2.5485,0.0,2.593,0.0,2.6353,2.6691,2.6691,2.6691,2.6691,2.6691,2.6135,2.5983,2.664,2.6573,2.6401,2.6123,2.5615,2.5012,2.4236,2.3694,2.3201,2.2709,2.2217,0.0,2.1779,2.1153,2.0759,2.061,2.0993,0.0,0.0,0.0,0.0,0.0,1.9331,1.8845,1.8286,1.859,1.8255,1.7534,1.8602,1.8655,1.8093,1.8093,1.7644,1.6866,1.6472,1.5911,1.541,1.541,1.541,1.541,1.541,1.541,1.541,1.541,1.541,1.541,1.541,1.541,1.5235,1.4647,1.4469,1.427,1.321,1.3051,1.3131,1.3149,1.3331,1.3492,1.3492,1.3912,1.4122,1.3564,0.0,0.0,0.0,0.0,0.0,0.0,1.2691,1.2547,1.2687,1.3473,0.0,0.0,0.0,0.0,0.0,0.0,0.0,0.0,0.0,0.0,1.4922,1.3769,1.313,1.315,1.2946,1.2757,1.2639,1.2422,1.2445,1.2687,1.3009,1.3148,1.317,1.3404,1.3492,1.3492,1.3492,1.3492,1.3506,1.3601,1.3784,1.3996,2.6622,2.6674,2.6674,2.6674,2.6691,2.6691,2.6691,2.6691,2.6691,2.6691,2.635,2.6245,2.6657,2.6367,2.6104,2.6104,2.5351,2.4728,2.4236,2.3376,2.2709,0.0,0.0,2.1215,2.0858,2.0795,2.061,2.0233,0.0,0.0,2.0182,0.0,1.9279,1.8715,1.8309,1.7754,1.7257,1.7875,1.8093,1.8147,1.8762,1.8655,1.8093,1.8093,1.7368,1.6301,1.6312,1.5911,1.541,1.541,1.541,1.541,1.541,1.541,1.541,1.541,1.541,1.541,1.541,1.541,1.5235,1.4647,1.4469,1.427,1.321,1.3241,1.3497,1.3489,1.3492,1.3492,1.3492,1.3499,1.3492,1.3492,0.0,0.0,0.0,0.0,0.0,1.4,1.4371,1.421,1.3284,1.4372,0.0,0.0,0.0,0.0,0.0,0.0,0.0,1.4607,1.4242,0.0,1.4633,1.389,1.3484,1.3492,1.3484,1.3316,1.3001,1.3001,1.3001,1.3023,1.3353,1.3492,1.3492,1.3492,1.3492,1.3492,1.3492,1.3492,1.3536,1.3857,1.3982,1.4026,2.7034,2.6858,2.6691,2.6691,2.6691,2.6691,2.6691,2.6691,2.6624,2.6315,2.6175,2.6052,2.5908,2.5762,2.5449,0.0,2.4561,2.3945,0.0,2.2572,2.2217,2.1664,2.1471,2.1215,2.0795,2.051,2.0169,1.9772,0.0,0.0,0.0,1.9214,1.8727,1.8244,1.7754,1.7146,1.6641,1.7257,1.7257,1.6922,1.7534,1.7644,1.7424,1.7034,1.6641,1.6255,1.5853,1.5575,1.541,1.541,1.541,1.541,1.541,1.541,1.541,1.541,1.541,1.541,1.541,1.5118,1.4647,1.3992,1.3629,1.3345,1.2806,1.3126,1.3521,1.352,1.3492,1.3492,1.3492,1.3492,1.3492,1.3492,1.3492,0.0,0.0,0.0,0.0,0.0,1.3248,1.2979,1.2455,1.3172,0.0,0.0,0.0,0.0,0.0,0.0,0.0,0.0,1.4143,0.0,1.4561,1.3905,1.3492,1.3492,1.3244,1.3078,1.3016,1.3243,1.3338,1.3345,1.3448,1.3492,1.3492,1.3492,1.3492,1.3492,1.3492,1.3492,1.3536,1.3857,1.4121,1.4355,2.7103,2.6875,2.6742,2.6775,2.6742,2.6657,2.6505,2.647,2.6315,2.5908,2.5726,2.5486,2.5051,2.4855,0.0,2.4236,2.3918,2.3289,2.2278,2.2184,2.1949,2.1423,2.1264,2.097,2.056,2.0169,0.0,1.9356,1.9356,1.9239,1.9016,1.8898,1.8298,1.7424,1.7257,1.6754,1.6026,1.6585,1.6641,1.6358,1.6978,1.709,1.681,1.6415,1.614,1.5911,1.5526,1.541,1.541,1.541,1.541,1.541,1.541,1.541,1.541,1.541,1.5235,1.5059,1.5059,1.4579,1.4019,1.3428,1.3129,1.2977,1.2735,1.3111,1.3492,1.3492,1.3492,1.3492,1.3492,1.3492,1.3492,1.3492,1.3492,1.3492,1.3492,0.0,0.0,0.0,0.0,0.0,0.0,1.317,1.3531,0.0,0.0,0.0,0.0,0.0,0.0,1.43,1.3818,0.0,1.4171,1.3695,1.3492,1.3492,1.3317,1.3216,1.3199,1.3404,1.3492,1.3492,1.3492,1.3492,1.3492,1.3492,1.3492,1.3492,1.3492,1.3492,1.355,1.3996,1.4296,1.4531,2.6942,2.6792,2.6742,0.0,2.6792,0.0,2.6175,2.6104,2.5944,2.5503,2.5121,2.4688,2.421,2.3779,2.3651,2.4028,0.0,0.0,0.0,2.2137,2.1949,2.1423,2.1006,2.061,2.0233,1.9823,1.9396,1.8987,1.8934,1.8655,1.8093,1.859,1.7918,1.6301,1.6866,1.6472,1.541,1.6026,1.6255,1.6368,1.6866,1.6754,1.6312,1.6244,1.5911,1.541,1.541,1.541,1.541,1.541,1.541,1.541,1.5352,1.5352,1.5352,1.5352,1.4942,1.4469,1.441,1.395,1.3378,1.3084,1.3012,1.3037,1.3031,1.3279,1.3492,1.3492,1.3492,1.3492,1.3492,1.3492,1.3492,1.3492,1.3492,1.3492,1.3492,0.0,0.0,0.0,0.0,0.0,0.0,1.4008,1.3607,0.0,0.0,0.0,0.0,0.0,1.4409,1.3108,1.3338,1.3492,1.3492,1.3492,1.3492,1.3492,1.3492,1.3492,1.3492,1.3492,1.3492,1.3492,1.3492,1.3492,1.3492,1.3492,1.3492,1.3492,1.3492,1.3506,1.3601,1.4238,1.4487,1.4589,0.0,0.0,2.6842,2.6893,2.6792,2.6573,2.6175,2.6104,2.5835,2.5121,2.4632,2.421,2.3794,2.3024,2.2572,2.2649,2.248,2.2123,2.1616,2.1616,2.152,2.1423,2.1006,2.061,2.0233,1.9823,1.9396,1.8987,1.8548,1.8267,1.8093,1.7313,1.6698,1.6312,1.5968,1.569,1.541,1.5526,1.5853,1.6255,1.5968,1.6026,1.6244,1.5806,1.5526,1.541,1.541,1.541,1.541,1.541,1.541,1.5294,1.4883,1.4706,1.4706,1.4706,1.4588,1.441,1.3872,1.34,1.3123,1.302,1.2994,1.3085,1.3287,1.344,1.3492,1.3492,1.3492,1.3492,1.3492,1.3492,1.3492,1.3492,1.3492,1.3492,1.3492,1.3492,0.0,0.0,1.3775,1.3641,1.3312,1.3274,1.3376,0.0,0.0,0.0,0.0,1.4553,1.4277,1.3382,1.3455,1.3492,1.3492,1.3492,1.3492,1.3492,1.3492,1.3492,1.3492,1.3492,1.3492,1.3492,1.3492,1.3492,1.3492,1.3492,1.3492,1.3492,1.3492,1.3653,1.3916,1.4318,1.4626,1.4889,2.7007,2.6959,2.6893,2.6893,2.664,2.628,2.5872,2.5689,2.5259,2.4405,2.4074,2.3694,2.3024,2.2495,2.2091,2.1841,2.1841,2.1712,2.1423,2.1423,2.1326,2.1104,2.0759,2.0321,1.9914,1.9512,1.9081,1.859,1.8255,1.782,1.7257,1.6866,1.6415,1.5921,1.5853,1.5633,1.541,1.541,1.5575,1.5853,1.5517,1.5584,1.5864,1.5526,1.541,1.541,1.541,1.541,1.541,1.541,1.541,1.5294,1.4706,1.4469,1.441,1.3795,1.3674,1.375,1.338,1.302,1.2806,1.2958,1.3132,1.3279,1.3455,1.3492,1.3492,1.3492,1.3492,1.3492,1.3492,1.3492,1.3492,1.3492,1.3492,1.3492,1.3492,1.3492,0.0,1.3492,1.3492,1.3426,1.325,1.3228,1.3364,1.3775,1.3846,0.0,1.4114,1.4122,1.3912,1.3492,1.3492,1.3492,1.3492,1.3492,1.3492,1.3492,1.3492,1.3492,1.3492,1.3492,1.3492,1.3492,1.3492,1.3492,1.3492,1.3492,1.3492,1.3514,1.366,1.3828,1.404,1.4509,1.4794,1.4911,2.7007,2.6942,2.6893,2.6809,2.6418,2.5944,2.5465,2.5121,2.4583,2.3724,2.3551,2.3157,2.231,2.2137,2.1902,2.1423,2.1423,2.1361,2.1313,2.1326,2.1118,2.0709,2.0321,1.9978,1.9617,1.9198,1.8709,1.8093,1.7984,1.7368,1.6301,1.6754,1.6368,1.541,1.5911,1.5853,1.541,1.541,1.541,1.541,1.541,1.541,1.541,1.541,1.541,1.541,1.541,1.541,1.541,1.541,1.5352,1.5177,1.4529,1.4282,1.3992,1.276,1.2656,1.2915,1.286,1.2696,1.2672,1.3001,1.3287,1.3492,1.3492,1.3492,1.3492,1.3492,1.3492,1.3492,1.3492,1.3492,1.3492,1.3492,1.3492,1.3492,1.3492,0.0,1.3492,1.3492,1.3492,1.3492,1.3492,1.3492,1.3492,1.3492,1.3492,1.3492,1.3492,1.3492,1.3492,1.3492,1.3492,1.3492,1.3492,1.3492,1.3492,1.3492,1.3492,1.3492,1.3492,1.3492,1.3492,1.3492,1.3492,1.3492,1.3492,1.3492,1.3521,1.3594,1.3872,1.404,1.4194,1.4743,1.4896,1.5057,2.707,2.699,2.6775,2.6435,2.6227,2.5835,2.5098,2.4942,2.4583,2.3724,2.3246,2.2799,2.2263,2.1793,2.1471,2.1423,2.1423,2.1264,2.0908,2.0894,2.0709,2.0321,1.9926,1.9668,1.9617,1.9198,1.8709,1.8093,1.7589,1.6978,1.6312,1.5853,1.5575,1.541,1.5526,1.5468,1.541,1.541,1.541,1.541,1.541,1.541,1.541,1.541,1.541,1.541,1.541,1.541,1.541,1.541,1.5059,1.4529,1.3872,1.3252,1.2691,1.2251,1.2313,1.2513,1.2232,1.2535,1.3009,1.3338,1.3455,1.3492,1.3492,1.3492,1.3492,1.3492,1.3492,1.3492,1.3492,1.3492,1.3492,1.3492,1.3492,1.3492,1.3492,0.0,1.3492,1.3492,1.3492,1.3492,1.3492,1.3492,1.3492,1.3492,1.3492,1.3492,1.3492,1.3492,1.3492,1.3492,1.3492,1.3492,1.3492,1.3492,1.3492,1.3492,1.3492,1.3492,1.3492,1.3492,1.3492,1.3492,1.3492,1.3492,1.3492,1.3492,1.366,1.3916,1.396,1.4311,1.4809,1.4904,1.5116,1.5357,2.6725,2.6607,2.6435,2.5961,2.5652,2.5313,2.4942,2.4502,2.3964,2.3334,2.2799,2.231,2.1841,2.1568,2.1423,2.1423,2.1215,2.0921,2.051,2.066,2.051,1.9914,1.972,1.9512,1.9303,1.8762,1.8201,1.7644,1.7034,1.6415,1.5806,1.5517,1.541,1.541,1.541,1.541,1.541,1.541,1.541,1.541,1.541,1.541,1.541,1.541,1.541,1.541,1.541,1.541,1.5352,1.5001,1.4706,1.4341,1.3312,1.2757,1.246,1.2126,1.2394,1.2789,1.2811,1.3038,1.3309,1.3455,1.3492,1.3492,1.3492,1.3492,1.3492,1.3492,1.3492,1.3492,1.3492,1.3492,1.3492,1.3492,1.3492,0.0,0.0,1.3492,1.3492,1.3492,1.3492,1.3492,1.3492,1.3492,1.3492,1.3492,1.3492,1.3492,1.3492,1.3492,1.3492,1.3492,1.3492,1.3492,1.3492,1.3492,1.3492,1.3499,1.3675,1.3762,1.3762,1.3945,1.4018,1.4018,1.4018,1.4018,1.4018,1.4018,1.4106,1.426,1.4428,1.4684,1.4881,1.5138,1.5299,1.5431,2.64,2.6208,2.5941,2.5427,2.5098,2.4863,2.4744,2.409,2.3421,2.2979,2.2495,2.1996,2.1471,2.1423,2.1361,2.1264,2.0957,2.061,2.0067,2.0359,2.0207,1.9512,1.946,1.9239,1.8815,1.8321,1.7754,1.6978,1.6528,1.5968,1.541,1.541,1.541,1.541,1.541,1.541,1.541,1.541,1.541,1.541,1.541,1.541,1.541,1.541,1.541,1.541,1.541,1.5294,1.5118,1.4647,1.4282,1.3855,1.281,1.2444,1.2336,1.218,1.2614,1.3177,1.3426,1.3492,1.3492,1.3492,1.3492,1.3492,1.3492,1.3492,1.3492,1.3492,1.3492,1.3492,1.3492,1.3492,1.3492,1.3492,0.0,0.0,0.0,1.3492,1.3492,1.3492,1.3492,1.3492,1.3492,1.3492,1.3492,1.3492,1.3492,1.3492,1.3492,1.3492,1.3492,1.3492,1.3492,1.3492,1.3492,1.3564,1.3564,1.3499,1.3901,1.4055,1.3996,1.4318,1.4472,1.4472,1.4472,1.4472,1.4472,1.4472,1.4516,1.4604,1.4845,1.4984,1.5094,1.5423,1.5496,1.5452,2.6295,2.5888,2.5427,2.502,2.4902,2.4744,2.4385,2.3909,2.3421,2.2979,2.2495,2.1996,2.1471,2.1423,2.1264,2.0858,2.0809,2.0446,1.9708,1.9668,1.9512,1.904,1.904,1.8762,1.8201,1.8147,1.7534,1.6368,1.6312,1.5968,1.541,1.541,1.541,1.541,1.541,1.541,1.541,1.541,1.541,1.541,1.541,1.541,1.541,1.541,1.541,1.541,1.541,1.5059,1.4529,1.4529,1.3674,1.2634,1.2512,1.2304,1.2058,1.2387,1.295,1.3462,1.3484,1.3492,1.3492,1.3492,1.3492,1.3492,1.3492,1.3492,1.3492,1.3492,1.3492,1.3492,1.3492,1.3492,1.3492,1.3492,0.0,0.0,1.3492,1.3492,1.3492,1.3492,1.3492,1.3492,1.3492,1.3492,1.3492,1.3492,1.3492,1.3492,1.3492,1.3492,1.3492,1.3492,1.3492,1.3492,1.3492,1.3827,1.382,1.3506,1.4128,1.4275,1.3996,1.4318,1.4472,1.4472,1.4472,1.4472,1.4472,1.4472,1.464,1.4911,1.4852,1.5131,1.5431,1.576,1.5687,1.5511,2.5556,2.5291,2.502,2.4599,2.4533,2.4369,2.3952,2.3465,2.2979,2.254,2.203,2.1616,2.1423,2.1166,2.0957,2.0795,2.0359,1.9914,1.9604,1.9356,1.9146,1.8987,1.8655,1.8309,1.8093,1.7368,1.6754,1.6312,1.5921,1.5633,1.541,1.541,1.541,1.541,1.541,1.541,1.541,1.541,1.541,1.541,1.541,1.541,1.541,1.541,1.541,1.5352,1.5001,1.4706,1.435,1.3545,1.294,1.2482,1.2279,1.2119,1.2138,1.2665,1.314,1.3492,1.3492,1.3492,1.3492,1.3492,1.3492,1.3492,1.3492,1.3492,1.3492,1.3492,1.3492,1.3492,1.3492,1.3492,1.3492,1.3492,0.0,1.3492,1.3492,1.3492,1.3492,1.3492,1.3492,1.3492,1.3492,1.3492,1.3492,1.3492,1.3492,1.3492,1.3492,1.3689,1.3704,1.3506,1.3926,1.4037,1.3799,1.3932,1.4026,1.4106,1.4553,1.4699,1.4589,1.4918,1.5065,1.5065,1.5065,1.5065,1.5065,1.5065,1.5138,1.524,1.524,1.5445,1.5745,1.587,1.5957,1.6045,2.502,2.4799,2.4639,2.4343,2.4302,2.4135,2.3681,2.3201,2.2709,2.2263,2.1746,2.1361,2.1215,2.0957,2.0696,2.0459,1.9914,1.9565,1.9408,1.9146,1.8934,1.8709,1.8321,1.7929,1.7534,1.6698,1.6197,1.6026,1.5575,1.541,1.541,1.541,1.541,1.541,1.541,1.541,1.541,1.541,1.541,1.541,1.541,1.541,1.541,1.541,1.5294,1.5059,1.4647,1.4222,1.3734,1.2818,1.2398,1.2288,1.2084,1.2036,1.2292,1.2848,1.317,1.3338,1.3338,1.3418,1.3492,1.3492,1.3492,1.3492,1.3492,1.3492,1.3492,1.3492,1.3492,1.3492,1.3492,1.3492,1.3492,1.3492,1.3579,1.3653,1.3653,1.3653,1.3689,1.3784,1.3623,1.3601,1.3792,1.3717,1.3673,1.366,1.374,1.3799,1.3799,1.4011,1.4079,1.38,1.4236,1.4421,1.4315,1.4265,1.4345,1.4472,1.4896,1.5043,1.4874,1.5277,1.5489,1.5584,1.5584,1.5584,1.5592,1.5687,1.5606,1.5438,1.554,1.5716,1.5928,1.6023,1.6191,1.6396,2.4902,2.4558,2.4302,2.4302,2.4302,2.4135,2.3681,2.3201,2.2723,2.2278,2.1746,2.1264,2.0845,2.0795,2.0446,1.9668,1.9617,1.9408,1.904,1.8987,1.8709,1.8147,1.8093,1.7534,1.6301,1.6312,1.6026,1.541,1.541,1.541,1.541,1.541,1.541,1.541,1.541,1.541,1.541,1.541,1.541,1.541,1.541,1.541,1.541,1.541,1.5001,1.4469,1.4469,1.3614,1.2512,1.2512,1.2256,1.2028,1.1971,1.2255,1.2584,1.2914,1.3009,1.3009,1.3009,1.325,1.3492,1.3492,1.3492,1.3492,1.3492,1.3492,1.3492,1.3492,1.3492,1.3492,1.3492,1.3492,1.3492,1.3492,1.377,1.3982,1.3982,1.3982,1.4106,1.4428,1.3913,1.3758,1.4435,1.4279,1.4065,1.4011,1.4289,1.4472,1.4472,1.4472,1.4462,1.4508,1.4532,1.4661,1.4896,1.4928,1.4732,1.4487,1.5123,1.5262,1.4881,1.5284,1.5613,1.5921,1.5921,1.5921,1.5943,1.6243,1.6001,1.5467,1.5796,1.5921,1.5965,1.6265,1.6374,1.6469,2.4533,2.4385,2.4302,2.4302,2.4036,2.3638,2.3201,2.2709,2.2217,2.1712,2.1264,2.0957,2.0795,2.0308,1.9862,1.9604,1.9356,1.9146,1.8987,1.8987,1.8709,1.8147,1.8093,1.7754,1.6922,1.6528,1.6026,1.541,1.541,1.541,1.541,1.541,1.541,1.541,1.541,1.541,1.541,1.541,1.541,1.541,1.541,1.541,1.5352,1.4942,1.4647,1.435,1.3425,1.2818,1.2482,1.2239,1.1992,1.1743,1.1963,1.2255,1.2584,1.2914,1.3009,1.306,1.3287,1.3418,1.3492,1.3492,1.3492,1.3492,1.3492,1.3492,1.3492,1.3492,1.3492,1.3492,1.3492,1.3492,1.3492,1.3492,1.3579,1.3718,1.3953,1.3982,1.4106,1.4428,1.4469,1.4447,1.4457,1.4558,1.4513,1.4333,1.4414,1.4472,1.4472,1.4684,1.467,1.4469,1.4874,1.5191,1.5283,1.4982,1.5012,1.5153,1.557,1.5723,1.5635,1.595,1.614,1.6235,1.6235,1.6235,1.6243,1.633,1.6257,1.6096,1.6199,1.6374,1.6587,1.6674,1.685,1.7069,2.4343,2.4302,2.4219,2.4051,2.3782,2.3377,2.2709,2.2402,2.1996,2.1471,2.1055,2.0759,2.056,2.0016,1.9565,1.9356,1.9146,1.8987,1.8987,1.8987,1.8827,1.8483,1.8483,1.8038,1.7202,1.6585,1.614,1.5748,1.5526,1.541,1.541,1.541,1.541,1.541,1.541,1.541,1.541,1.541,1.541,1.541,1.541,1.5235,1.5001,1.4647,1.4163,1.3606,1.2818,1.2336,1.2127,1.1899,1.1802,1.1809,1.2123,1.2277,1.2394,1.2716,1.2819,1.2884,1.3214,1.3301,1.3301,1.3301,1.3397,1.3462,1.3331,1.3404,1.3492,1.3492,1.3492,1.3492,1.3492,1.3492,1.3492,1.3492,1.3711,1.3953,1.415,1.4282,1.4487,1.4809,1.4735,1.4706,1.4838,1.4947,1.5028,1.4853,1.4728,1.4765,1.5028,1.5226,1.5278,1.5233,1.5573,1.5785,1.5839,1.5597,1.5606,1.5804,1.6001,1.6096,1.6104,1.6287,1.644,1.6557,1.6185,1.6192,1.6572,1.6328,1.6228,1.6382,1.6513,1.6682,1.6857,1.6857,1.7055,1.7232,2.4261,2.4219,2.4094,2.3595,2.3508,2.3201,2.231,2.2184,2.1996,2.141,2.1006,2.061,2.0182,1.9772,1.9408,1.904,1.8987,1.8987,1.8987,1.8987,1.8987,1.8987,1.8987,1.8483,1.7368,1.6698,1.6358,1.6312,1.569,1.541,1.541,1.541,1.541,1.541,1.541,1.541,1.541,1.541,1.541,1.541,1.541,1.5059,1.4469,1.441,1.3614,1.2504,1.2451,1.2097,1.1622,1.1622,1.1772,1.2014,1.235,1.2233,1.2058,1.2416,1.2519,1.2592,1.2921,1.3031,1.3038,1.298,1.3228,1.3411,1.3082,1.3258,1.3492,1.3492,1.3492,1.3492,1.3492,1.3521,1.3536,1.3536,1.4062,1.4479,1.4509,1.4765,1.4983,1.5387,1.4892,1.482,1.5318,1.546,1.5474,1.5474,1.5226,1.5328,1.5921,1.5957,1.6111,1.6408,1.6379,1.6396,1.6448,1.6426,1.6396,1.6367,1.6396,1.6411,1.6411,1.644,1.6616,1.6894,1.5865,1.6049,1.6916,1.6161,1.6139,1.6484,1.6784,1.6901,1.6901,1.6901,1.7006,1.7088,2.3824,2.3739,2.3595,2.3113,2.2875,2.2603,2.2263,2.2044,2.165,2.1006,2.0573,2.0169,1.9759,1.9356,1.9093,1.8987,1.8987,1.8987,1.8987,1.8987,1.8987,1.8987,1.8987,1.8881,1.8602,1.7534,1.6754,1.6312,1.569,1.541,1.541,1.541,1.541,1.541,1.541,1.541,1.541,1.541,1.541,1.541,1.541,1.5059,1.441,1.3932,1.3191,1.2451,1.1981,1.1677,1.1622,1.1622,1.1772,1.2006,1.1823,1.1721,1.1772,1.235,1.2519,1.2592,1.2921,1.3192,1.3265,1.2753,1.3067,1.3411,1.3082,1.3258,1.3492,1.3492,1.3492,1.3492,1.3492,1.3704,1.3879,1.3879,1.4209,1.4553,1.4801,1.4896,1.4983,1.5387,1.5274,1.526,1.5423,1.5657,1.5811,1.5811,1.5965,1.6118,1.6265,1.6272,1.633,1.6374,1.6397,1.6511,1.6793,1.6766,1.6623,1.6374,1.663,1.6748,1.6755,1.7004,1.7157,1.7223,1.6944,1.7037,1.723,1.7016,1.7059,1.7128,1.7194,1.7223,1.7223,1.7223,1.6855,1.6089,2.3882,2.3824,2.3638,2.3024,2.2694,2.2374,2.2077,2.1793,2.1458,2.1104,2.0573,2.0131,1.9926,1.9356,1.8987,1.8987,1.8987,1.8987,1.8987,1.8987,1.8987,1.8987,1.8987,1.8987,1.8987,1.782,1.7034,1.6754,1.5864,1.541,1.541,1.541,1.541,1.541,1.541,1.541,1.541,1.541,1.541,1.5352,1.5118,1.4588,1.3923,1.326,1.2642,1.2035,1.1677,1.1622,1.1622,1.1622,1.167,1.178,1.1611,1.1622,1.1718,1.2145,1.2292,1.2394,1.2877,1.3023,1.2987,1.2804,1.3009,1.3221,1.3045,1.3258,1.3492,1.3492,1.3492,1.3543,1.3697,1.3865,1.4033,1.4187,1.4487,1.475,1.4918,1.5079,1.524,1.5409,1.538,1.5524,1.5862,1.603,1.6133,1.6133,1.6279,1.644,1.6594,1.6601,1.6674,1.6821,1.6828,1.689,1.7109,1.7057,1.6996,1.6828,1.6996,1.7077,1.7091,1.7252,1.7326,1.7232,1.6756,1.6935,1.7458,1.6819,1.6942,1.7545,1.7391,1.7326,1.7254,1.6831,1.5901,1.4678,2.3882,2.3867,2.3638,2.2844,2.2572,2.2296,2.1793,2.1568,2.141,2.1229,2.0623,2.0131,2.0029,1.9408,1.8987,1.8987,1.8987,1.8987,1.8987,1.8987,1.8987,1.8987,1.8881,1.8881,1.8881,1.7644,1.709,1.7202,1.5968,1.541,1.541,1.541,1.541,1.541,1.541,1.541,1.541,1.541,1.5352,1.5177,1.4706,1.4043,1.326,1.2696,1.2158,1.1622,1.1622,1.1622,1.1622,1.1622,1.1622,1.1622,1.1622,1.1622,1.1626,1.1941,1.1971,1.2153,1.2694,1.2723,1.2658,1.287,1.3009,1.3097,1.3097,1.3301,1.3492,1.3492,1.3543,1.366,1.3931,1.407,1.4238,1.4509,1.4867,1.5109,1.5109,1.5387,1.5584,1.55,1.554,1.5886,1.6448,1.6514,1.6455,1.6455,1.6499,1.6674,1.7004,1.6967,1.7062,1.7426,1.7333,1.7326,1.7326,1.7326,1.7355,1.7413,1.7413,1.7413,1.7413,1.7413,1.7443,1.7399,1.6619,1.6868,1.7778,1.6731,1.6875,1.7874,1.7604,1.7399,1.7056,1.6091,1.4749,1.341,2.3113,2.3068,2.2844,2.2077,2.2123,2.2077,2.1506,2.1616,2.141,2.0472,2.0283,1.9926,1.9251,1.9052,1.8987,1.8987,1.8987,1.8987,1.8987,1.8987,1.8987,1.8987,1.8483,1.8201,1.8201,1.7034,1.6698,1.7202,1.5968,1.541,1.541,1.541,1.541,1.541,1.541,1.541,1.541,1.541,1.5118,1.4588,1.4529,1.3734,1.2634,1.2512,1.2158,1.1622,1.1622,1.1622,1.1622,1.1622,1.1622,1.1622,1.1622,1.1622,1.1626,1.1941,1.1971,1.1992,1.208,1.2548,1.2884,1.265,1.3009,1.3433,1.3433,1.3462,1.3492,1.3492,1.3718,1.3931,1.3975,1.4435,1.4823,1.4874,1.5387,1.5782,1.5782,1.6045,1.6235,1.6031,1.6279,1.6727,1.7178,1.6937,1.6791,1.6791,1.704,1.734,1.7669,1.7421,1.7397,1.7759,1.7441,1.7326,1.7326,1.7326,1.7472,1.775,1.775,1.775,1.775,1.775,1.7904,1.8174,1.8069,1.8091,1.8233,1.8091,1.8098,1.8233,1.8189,1.757,1.6507,1.4647,1.3838,1.3583,2.3216,2.3083,2.2859,2.2324,2.2091,2.1841,2.1348,2.1251,2.1006,2.0271,2.0016,1.9708,1.9356,1.9146,1.8987,1.8987,1.8987,1.8987,1.8987,1.8987,1.8881,1.8483,1.8267,1.7929,1.7589,1.6754,1.6415,1.6698,1.5806,1.541,1.541,1.541,1.541,1.541,1.541,1.5235,1.4883,1.4883,1.4529,1.3923,1.3554,1.3061,1.2451,1.2158,1.1856,1.1622,1.1622,1.1622,1.1622,1.1622,1.1622,1.1622,1.1622,1.1622,1.1652,1.1728,1.1772,1.1809,1.1984,1.238,1.2745,1.2782,1.3148,1.3543,1.3726,1.377,1.377,1.377,1.4026,1.4311,1.4487,1.475,1.5057,1.5423,1.5731,1.5972,1.6148,1.6279,1.6337,1.6296,1.6526,1.6816,1.7212,1.7147,1.7194,1.7377,1.7523,1.7743,1.8072,1.7947,1.7824,1.7781,1.7802,1.7808,1.7581,1.7808,1.7947,1.8086,1.8086,1.8086,1.8086,1.8086,1.8167,1.8299,1.8299,1.8408,1.8562,1.8379,1.8408,1.8454,1.7668,1.6384,1.49,1.398,1.3365,1.2954]},{"header":{"parameterUnit":"m.s-1","parameterCategory":1,"la1":30.6,"la2":28.766,"lo1":-90.7593,"lo2":-88.6598,"dy":0.0162,"dx":0.0183,"nx":116,"ny":114,"refTime":"2023-08-17T06:00:00:Z","depth":0,"parameterNumber":3,"parameterNumberName":"V-component_of_WINDS"},"data":[0.0,0.0,0.0,0.0,0.0,0.0,0.0,0.0,0.0,0.0,0.0,0.0,0.0,0.0,0.0,0.0,0.0,0.0,0.0,0.0,0.0,0.0,0.0,0.0,0.0,0.0,0.0,0.0,0.0,0.0,0.0,0.0,0.0,0.0,0.0,0.0,0.0,0.0,0.0,0.0,0.0,0.0,0.0,0.0,0.0,0.0,0.0,0.0,0.0,0.0,0.0,0.0,0.0,0.0,0.0,0.0,0.0,0.0,0.0,0.0,0.0,0.0,0.0,0.0,0.0,0.0,0.0,0.0,0.0,0.0,0.0,0.0,0.0,0.0,0.0,0.0,0.0,0.0,0.0,0.0,0.0,0.0,0.0,0.0,0.0,0.0,0.0,0.0,0.0,0.0,0.0,0.0,0.0,0.0,0.0,0.0,0.0,0.0,0.0,0.0,0.0,0.0,0.0,0.0,0.0,0.0,0.0,0.0,0.0,0.0,0.0,0.0,0.0,0.0,0.0,0.0,0.0,0.0,0.0,0.0,0.0,0.0,0.0,0.0,0.0,0.0,0.0,0.0,0.0,0.0,0.0,0.0,0.0,0.0,0.0,0.0,0.0,0.0,0.0,0.0,0.0,0.0,0.0,0.0,0.0,0.0,0.0,0.0,0.0,0.0,0.0,0.0,0.0,0.0,0.0,0.0,0.0,0.0,0.0,0.0,0.0,0.0,0.0,0.0,0.0,0.0,0.0,0.0,0.0,0.0,0.0,0.0,0.0,0.0,0.0,0.0,0.0,0.0,0.0,0.0,0.0,0.0,0.0,0.0,0.0,0.0,0.0,0.0,0.0,0.0,0.0,0.0,0.0,0.0,0.0,0.0,0.0,0.0,0.0,0.0,0.0,0.0,0.0,0.0,0.0,0.0,0.0,0.0,0.0,0.0,0.0,0.0,0.0,0.0,0.0,0.0,0.0,0.0,0.0,0.0,0.0,0.0,0.0,0.0,0.0,0.0,0.0,0.0,0.0,0.0,0.0,0.0,0.0,0.0,0.0,0.0,0.0,0.0,0.0,0.0,0.0,0.0,0.0,0.0,0.0,0.0,0.0,0.0,0.0,0.0,0.0,0.0,0.0,0.0,0.0,0.0,0.0,0.0,0.0,0.0,0.0,0.0,0.0,0.0,0.0,0.0,0.0,0.0,0.0,0.0,0.0,0.0,0.0,0.0,0.0,0.0,0.0,0.0,0.0,0.0,0.0,0.0,0.0,0.0,0.0,0.0,0.0,0.0,0.0,0.0,0.0,0.0,0.0,0.0,0.0,0.0,0.0,0.0,0.0,0.0,0.0,0.0,0.0,0.0,0.0,0.0,0.0,0.0,0.0,0.0,0.0,0.0,0.0,0.0,0.0,0.0,0.0,0.0,0.0,0.0,0.0,0.0,0.0,0.0,0.0,0.0,0.0,0.0,0.0,0.0,0.0,0.0,0.0,0.0,0.0,0.0,0.0,0.0,0.0,0.0,0.0,0.0,0.0,0.0,0.0,0.0,0.0,0.0,0.0,0.0,0.0,0.0,0.0,0.0,0.0,0.0,0.0,0.0,0.0,0.0,0.0,0.0,0.0,0.0,0.0,0.0,0.0,0.0,0.0,0.0,0.0,0.0,0.0,0.0,0.0,0.0,0.0,0.0,0.0,0.0,0.0,0.0,0.0,0.0,0.0,0.0,0.0,0.0,0.0,0.0,0.0,0.0,0.0,0.0,0.0,0.0,0.0,0.0,0.0,0.0,0.0,0.0,0.0,0.0,0.0,0.0,0.0,0.0,0.0,0.0,0.0,0.0,0.0,0.0,0.0,0.0,0.0,0.0,0.0,0.0,0.0,0.0,0.0,0.0,0.0,0.0,0.0,0.0,0.0,0.0,0.0,0.0,0.0,0.0,0.0,0.0,0.0,0.0,0.0,0.0,0.0,0.0,0.0,0.0,0.0,0.0,0.0,0.0,0.0,0.0,0.0,0.0,0.0,0.0,0.0,0.0,0.0,0.0,0.0,0.0,0.0,0.0,0.0,0.0,0.0,0.0,0.0,0.0,0.0,0.0,0.0,0.0,0.0,0.0,0.0,0.0,0.0,0.0,0.0,0.0,0.0,0.0,0.0,0.0,0.0,0.0,0.0,0.0,0.0,0.0,0.0,0.0,0.0,0.0,0.0,0.0,0.0,0.0,0.0,0.0,0.0,0.0,0.0,0.0,0.0,0.0,0.0,0.0,0.0,0.0,0.0,0.0,0.0,0.0,0.0,0.0,0.0,0.0,0.0,0.0,0.0,0.0,0.0,0.0,0.0,0.0,0.0,0.0,0.0,0.0,0.0,0.0,0.0,0.0,0.0,0.0,0.0,0.0,0.0,0.0,0.0,0.0,0.0,0.0,0.0,0.0,0.0,0.0,0.0,0.0,0.0,0.0,0.0,0.0,0.0,0.0,0.0,0.0,0.0,0.0,0.0,0.0,0.0,0.0,0.0,0.0,0.0,0.0,0.0,0.0,0.0,0.0,0.0,0.0,0.0,0.0,0.0,0.0,0.0,0.0,0.0,0.0,0.0,0.0,0.0,0.0,0.0,0.0,0.0,0.0,0.0,0.0,0.0,0.0,0.0,0.0,0.0,0.0,0.0,0.0,0.0,0.0,0.0,0.0,0.0,0.0,0.0,0.0,0.0,0.0,0.0,0.0,0.0,0.0,0.0,0.0,0.0,0.0,0.0,0.0,0.0,0.0,0.0,0.0,0.0,0.0,0.0,0.0,0.0,0.0,0.0,0.0,0.0,0.0,0.0,0.0,0.0,0.0,0.0,0.0,0.0,0.0,0.0,0.0,0.0,0.0,0.0,0.0,0.0,0.0,0.0,0.0,0.0,0.0,0.0,0.0,0.0,0.0,0.0,0.0,0.0,0.0,0.0,0.0,0.0,0.0,0.0,0.0,0.0,0.0,0.0,0.0,0.0,0.0,0.0,0.0,0.0,0.0,0.0,0.0,0.0,0.0,0.0,0.0,0.0,0.0,0.0,0.0,0.0,0.0,0.0,0.0,0.0,0.0,0.0,0.0,0.0,0.0,0.0,0.0,0.0,0.0,0.0,0.0,0.0,0.0,0.0,0.0,0.0,0.0,0.0,0.0,0.0,0.0,0.0,0.0,0.0,0.0,0.0,0.0,0.0,0.0,0.0,0.0,0.0,0.0,0.0,0.0,0.0,0.0,0.0,0.0,0.0,0.0,0.0,0.0,0.0,0.0,0.0,0.0,0.0,0.0,0.0,0.0,0.0,0.0,0.0,0.0,0.0,0.0,0.0,0.0,0.0,0.0,0.0,0.0,0.0,0.0,0.0,0.0,0.0,0.0,0.0,0.0,0.0,0.0,0.0,0.0,0.0,0.0,0.0,0.0,0.0,0.0,0.0,0.0,0.0,0.0,0.0,0.0,0.0,0.0,0.0,0.0,0.0,0.0,0.0,0.0,0.0,0.0,0.0,0.0,0.0,0.0,0.0,0.0,0.0,0.0,0.0,0.0,0.0,0.0,0.0,0.0,0.0,0.0,0.0,0.0,0.0,0.0,0.0,0.0,0.0,0.0,0.0,0.0,0.0,0.0,0.0,0.0,0.0,0.0,0.0,0.0,0.0,0.0,0.0,0.0,0.0,0.0,0.0,0.0,0.0,0.0,0.0,0.0,0.0,0.0,0.0,0.0,0.0,0.0,0.0,0.0,0.0,0.0,0.0,0.0,0.0,0.0,0.0,0.0,0.0,0.0,0.0,0.0,0.0,0.0,0.0,0.0,0.0,0.0,0.0,0.0,0.0,0.0,0.0,0.0,0.0,0.0,0.0,0.0,0.0,0.0,0.0,0.0,0.0,0.0,0.0,0.0,0.0,0.0,0.0,0.0,0.0,0.0,0.0,0.0,0.0,0.0,0.0,0.0,0.0,0.0,0.0,0.0,0.0,0.0,0.0,0.0,0.0,0.0,0.0,0.0,0.0,0.0,0.0,0.0,0.0,0.0,0.0,0.0,0.0,0.0,0.0,0.0,0.0,0.0,0.0,0.0,0.0,0.0,0.0,0.0,0.0,0.0,0.0,0.0,0.0,0.0,0.0,0.0,0.0,0.0,0.0,0.0,0.0,0.0,0.0,0.0,0.0,0.0,0.0,0.0,0.0,0.0,0.0,0.0,0.0,0.0,0.0,0.0,0.0,0.0,0.0,0.0,0.0,0.0,0.0,0.0,0.0,0.0,0.0,0.0,0.0,0.0,0.0,0.0,0.0,0.0,0.0,0.0,0.0,0.0,0.0,0.0,0.0,0.0,0.0,0.0,0.0,0.0,0.0,0.0,0.0,0.0,0.0,0.0,0.0,0.0,0.0,0.0,0.0,0.0,0.0,0.0,0.0,0.0,0.0,0.0,0.0,0.0,0.0,0.0,0.0,0.0,0.0,0.0,0.0,0.0,0.0,0.0,0.0,0.0,0.0,0.0,0.0,0.0,0.0,0.0,0.0,0.0,0.0,0.0,0.0,0.0,0.0,0.0,0.0,0.0,0.0,0.0,0.0,0.0,0.0,0.0,0.0,0.0,0.0,0.0,0.0,0.0,0.0,0.0,0.0,0.0,0.0,0.0,0.0,0.0,0.0,0.0,0.0,0.0,0.0,0.0,0.0,0.0,0.0,0.0,0.0,0.0,0.0,0.0,0.0,0.0,0.0,0.0,0.0,0.0,0.0,0.0,0.0,0.0,0.0,0.0,0.0,0.0,0.0,0.0,0.0,0.0,0.0,0.0,0.0,0.0,0.0,0.0,0.0,0.0,0.0,0.0,0.0,0.0,0.0,0.0,0.0,0.0,0.0,0.0,0.0,0.0,0.0,0.0,0.0,0.0,0.0,0.0,0.0,0.0,0.0,0.0,0.0,0.0,0.0,0.0,0.0,0.0,0.0,0.0,0.0,0.0,0.0,0.0,0.0,0.0,0.0,0.0,0.0,0.0,0.0,0.0,0.0,0.0,0.0,0.0,0.0,0.0,0.0,0.0,0.0,0.0,0.0,0.0,0.0,0.0,0.0,0.0,0.0,0.0,0.0,0.0,0.0,0.0,0.0,0.0,0.0,0.0,0.0,0.0,0.0,0.0,0.0,0.0,0.0,0.0,0.0,0.0,0.0,0.0,0.0,0.0,0.0,0.0,0.0,0.0,0.0,0.0,0.0,0.0,0.0,0.0,0.0,0.0,0.0,0.0,0.0,0.0,0.0,0.0,0.0,0.0,0.0,0.0,0.0,0.0,0.0,0.0,0.0,0.0,0.0,0.0,0.0,0.0,0.0,0.0,0.0,0.0,0.0,0.0,0.0,0.0,0.0,0.0,0.0,0.0,0.0,0.0,0.0,0.0,0.0,0.0,0.0,0.0,0.0,0.0,0.0,0.0,0.0,0.0,0.0,0.0,0.0,0.0,0.0,0.0,0.0,0.0,0.0,0.0,0.0,0.0,0.0,0.0,0.0,0.0,0.0,0.0,0.0,0.0,0.0,0.0,0.0,0.0,0.0,0.0,0.0,0.0,0.0,0.0,0.0,0.0,0.0,0.0,0.0,0.0,0.0,0.0,0.0,0.0,0.0,0.0,0.0,0.0,0.0,0.0,0.0,0.0,0.0,0.0,0.0,0.0,0.0,0.0,0.0,0.0,0.0,0.0,0.0,0.0,0.0,0.0,0.0,0.0,0.0,0.0,0.0,0.0,0.0,0.0,0.0,0.0,0.0,0.0,0.0,0.0,0.0,0.0,0.0,0.0,0.0,0.0,0.0,0.0,0.0,0.0,0.0,0.0,0.0,0.0,0.0,0.0,0.0,0.0,0.0,0.0,0.0,0.0,0.0,0.0,0.0,0.0,0.0,0.0,0.0,0.0,0.0,0.0,0.0,0.0,0.0,0.0,0.0,0.0,0.0,0.0,0.0,0.0,0.0,0.0,0.0,0.0,0.0,0.0,0.0,0.0,0.0,0.0,0.0,0.0,0.0,0.0,0.0,0.0,0.0,0.0,0.0,0.0,0.0,0.0,0.0,0.0,0.0,0.0,0.0,0.0,0.0,0.0,0.0,0.0,1.0919,0.0,0.0,0.0,0.0,0.0,0.0,0.0,0.0,0.0,0.0,0.0,0.0,0.0,0.0,0.0,0.0,0.0,0.0,0.0,0.0,0.0,0.0,0.0,0.0,0.0,0.0,0.0,0.0,0.0,0.0,0.0,0.0,0.0,0.0,0.0,0.0,0.0,0.0,0.0,0.0,0.0,0.0,0.0,0.0,0.0,0.0,0.0,0.0,0.0,0.0,0.0,0.0,0.0,0.0,0.0,0.0,0.0,0.0,0.0,0.0,0.0,0.0,0.0,0.0,0.0,0.0,0.0,0.0,0.0,0.0,0.0,0.0,0.0,0.0,0.0,0.0,0.0,0.0,0.0,0.0,0.0,0.0,0.0,0.0,0.0,0.0,0.0,0.0,0.0,0.0,0.0,0.0,0.0,0.0,0.0,0.0,0.0,0.0,0.0,0.0,0.0,0.0,0.0,0.0,0.0,0.0,0.0,0.0,0.0,0.0,0.0,0.0,0.0,0.0,0.0,0.0,1.1613,0.0,0.0,0.0,0.0,0.0,0.0,0.0,0.0,0.0,0.0,0.0,0.0,0.0,0.0,0.0,0.0,0.0,0.0,0.0,0.0,0.0,0.0,0.0,0.0,0.0,0.0,0.0,0.0,0.0,0.0,0.0,0.0,0.0,0.0,0.0,0.0,0.0,0.0,0.0,0.0,0.0,0.0,0.0,0.0,0.0,0.0,0.0,0.0,0.0,0.0,0.0,0.0,0.0,0.0,0.0,0.0,0.0,0.0,0.0,0.0,0.0,0.0,0.0,0.0,0.0,0.0,0.0,0.0,0.0,0.0,0.0,0.0,0.0,0.0,0.0,0.0,0.0,0.0,0.0,0.0,0.0,0.0,0.0,0.0,0.0,0.0,0.0,0.0,0.0,0.0,0.0,0.0,0.0,0.0,0.0,0.0,0.0,0.0,0.0,0.0,0.0,0.0,0.0,0.0,0.0,0.0,0.0,0.0,0.4846,0.5011,0.4952,0.5374,0.6077,0.7106,0.9065,1.1157,1.3082,1.253,0.0,0.0,0.0,0.0,0.0,0.0,0.0,0.0,0.0,0.0,0.0,0.0,0.0,0.0,0.0,0.0,0.0,0.0,0.0,0.0,0.0,0.0,0.0,0.0,0.0,0.0,0.0,0.0,0.0,0.0,0.0,0.0,0.0,0.0,0.0,0.0,0.0,0.0,-1.9922,-2.1098,-2.2,-2.2665,0.0,0.0,0.0,0.0,0.0,0.0,0.0,0.0,0.0,0.0,0.0,0.0,0.0,0.0,0.0,0.0,0.0,0.0,0.0,0.0,0.0,0.0,0.0,0.0,0.0,0.0,0.0,0.0,0.0,0.0,0.0,0.0,0.0,0.0,0.0,0.0,0.0,0.0,0.0,0.0,0.0,0.0,0.0,0.0,-0.2614,-0.1285,0.0,0.0,0.0,0.0,0.0,0.0,0.0,0.0,0.0,0.0,0.0,0.0,0.0,0.0723,0.0444,0.0502,0.1624,0.3772,0.3822,0.3758,0.3588,0.3608,0.4146,0.5085,0.7143,0.0,1.2061,1.2783,0.0,0.0,0.0,0.0,0.0,0.0,0.0,0.0,0.0,0.0,0.0,0.0,0.0,0.0,0.0,0.0,0.0,0.0,0.0,0.0,0.0,0.0,0.0,0.0,0.0,0.0,0.0,0.0,0.0,0.0,0.0,0.0,0.0,0.0,0.0,0.0,0.0,0.0,0.0,0.0,-2.071,-2.2373,-2.1875,-2.2757,-2.4566,-2.4492,0.0,0.0,0.0,0.0,0.0,0.0,0.0,0.0,0.0,0.0,0.0,0.0,0.0,0.0,0.0,0.0,0.0,0.0,0.0,0.0,0.0,0.0,0.0,0.0,0.0,0.0,0.0,0.0,0.0,0.0,0.0,0.0,0.0,0.0,0.0,0.0,0.0,0.0,0.0,-0.2362,-0.2594,-0.1863,-0.2115,-0.2081,0.0,0.0,0.0,0.0,0.0,0.0,0.0,0.0,0.0,-0.0615,0.0056,0.0112,-0.0505,-0.0336,0.0505,0.1909,0.2186,0.2465,0.2691,0.2679,0.3387,0.4703,0.6117,0.8115,1.0378,1.172,1.2812,1.3695,0.0,0.0,0.0,0.0,1.7271,1.7693,0.0,0.0,0.0,0.0,0.0,0.0,0.0,0.0,0.0,0.0,0.0,0.0,0.0,0.0,0.0,-1.4216,0.0,0.0,0.0,0.0,0.0,0.0,0.0,0.0,0.0,0.0,0.0,0.0,0.0,0.0,0.0,0.0,0.0,0.0,0.0,0.0,-2.4224,-2.4033,-2.4019,0.0,0.0,0.0,0.0,0.0,0.0,0.0,0.0,0.0,0.0,0.0,0.0,0.0,0.0,0.0,0.0,0.0,0.0,0.0,0.0,0.0,0.0,0.0,0.0,0.0,0.0,0.0,0.0,0.0,0.0,0.0,0.0,0.0,0.0,0.0,0.0,0.0,0.0,-0.228,-0.2574,-0.2442,-0.2641,-0.2619,0.0,0.0,0.0,0.0,0.0,0.0,-0.3585,-0.1902,-0.1064,-0.1455,-0.056,-0.0336,-0.0785,-0.0617,-0.028,0.0224,0.0896,0.1511,0.2015,0.224,0.3123,0.4542,0.5521,0.6956,0.8826,1.0864,1.2141,1.2956,1.4744,1.5365,1.5398,1.66,1.7366,1.7881,0.0,0.0,0.0,0.0,0.0,0.0,0.0,0.0,0.0,0.0,0.0,0.0,0.0,0.0,-1.3384,-1.4222,-1.4271,-1.4404,0.0,0.0,0.0,0.0,0.0,0.0,0.0,0.0,0.0,0.0,0.0,0.0,0.0,0.0,0.0,0.0,0.0,0.0,0.0,0.0,-2.3018,-2.4201,0.0,0.0,0.0,0.0,0.0,0.0,0.0,0.0,0.0,0.0,0.0,0.0,0.0,0.0,0.0,0.0,0.0,0.0,0.0,0.0,0.0,0.0,0.0,0.0,0.0,0.0,0.0,0.0,0.0,0.0,0.0,0.0,0.0,0.0,0.0,0.0,0.0,0.0,0.0,-0.3337,-0.3447,0.0,0.0,0.0,0.0,-0.3585,-0.3585,-0.3585,-0.3585,-0.3471,-0.2517,-0.0561,-0.0393,-0.0393,-0.0449,-0.0729,-0.0842,-0.0785,0.0336,0.112,0.1566,0.2352,0.3239,0.4271,0.5253,0.6338,0.7617,1.0689,1.2318,1.2966,1.4365,1.4949,1.5073,1.6207,1.7164,1.7946,0.0,0.0,0.0,0.0,0.0,0.0,0.0,0.0,0.0,0.0,0.0,0.0,0.0,-1.4101,-1.4218,-1.4537,-1.4565,-1.4962,-1.5923,0.0,0.0,0.0,0.0,0.0,0.0,0.0,0.0,0.0,0.0,0.0,0.0,0.0,0.0,0.0,0.0,0.0,0.0,0.0,0.0,0.0,0.0,0.0,0.0,0.0,0.0,0.0,0.0,0.0,0.0,0.0,0.0,0.0,0.0,0.0,0.0,0.0,0.0,0.0,0.0,0.0,0.0,0.0,0.0,0.0,0.0,0.0,0.0,0.0,0.0,0.0,0.0,0.0,0.0,0.0,0.0,0.0,0.0,0.0,0.0,-0.34,-0.3509,0.0,-0.3188,-0.3413,-0.3585,-0.3585,-0.3585,-0.3585,-0.3585,-0.3697,-0.3416,-0.2687,-0.1398,-0.0952,-0.1512,-0.1121,-0.0898,-0.0898,-0.0056,0.0616,0.1118,0.179,0.2899,0.4271,0.5257,0.6288,0.7522,1.0689,1.2122,1.2464,1.4215,1.522,1.5768,1.6058,1.704,1.8238,0.0,0.0,0.0,0.0,0.0,0.0,0.0,0.0,0.0,0.0,0.0,-1.4006,-1.4087,-1.4342,-1.4588,-1.4778,-1.4789,-1.5227,-1.6228,0.0,0.0,0.0,0.0,0.0,0.0,0.0,0.0,0.0,0.0,0.0,0.0,0.0,0.0,0.0,0.0,0.0,0.0,0.0,0.0,0.0,0.0,0.0,-2.1728,0.0,0.0,0.0,0.0,0.0,0.0,0.0,0.0,0.0,0.0,0.0,0.0,0.0,0.0,0.0,0.0,0.0,0.0,0.0,0.0,0.0,0.0,0.0,0.0,0.0,0.0,0.0,0.0,0.0,0.0,0.0,0.0,0.0,0.0,0.0,-0.3621,-0.3621,-0.3695,-0.3749,-0.3749,-0.3749,-0.3749,-0.3749,-0.3749,-0.3749,-0.3749,-0.3863,-0.3866,-0.3755,-0.2237,-0.1621,-0.2015,-0.1289,-0.0898,-0.0898,-0.0056,0.0503,0.095,0.2063,0.339,0.4765,0.5797,0.6929,0.8265,1.0713,1.1837,1.222,1.4446,1.5697,1.6232,1.6318,1.7536,1.9011,0.0,0.0,0.0,0.0,0.0,0.0,0.0,0.0,0.0,0.0,0.0,-1.401,-1.4256,-1.4219,-1.4403,-1.4979,-1.5018,-1.5173,-1.5514,-1.5514,0.0,0.0,0.0,0.0,0.0,0.0,0.0,0.0,0.0,0.0,0.0,0.0,0.0,0.0,0.0,0.0,0.0,0.0,0.0,0.0,0.0,0.0,-2.1707,0.0,0.0,0.0,0.0,0.0,0.0,0.0,0.0,0.0,0.0,0.0,0.0,0.0,0.0,0.0,0.0,0.0,0.0,0.0,0.0,0.0,0.0,0.0,0.0,0.0,0.0,0.0,0.0,0.0,0.0,0.0,0.0,0.0,-0.3841,-0.3938,-0.4024,-0.4021,-0.4024,-0.4024,-0.4021,-0.4024,-0.4024,-0.4024,-0.4024,-0.4024,-0.4024,-0.4024,-0.3802,-0.3413,-0.28,-0.2296,-0.1793,-0.1177,-0.0898,-0.0899,0.0336,0.0894,0.0949,0.3166,0.4761,0.5747,0.6827,0.8165,0.9666,1.0762,1.1516,1.2267,1.505,1.6182,1.6359,1.6982,1.8475,2.026,0.0,0.0,0.0,0.0,0.0,0.0,0.0,0.0,0.0,0.0,-1.4145,-1.4227,-1.4109,-1.5054,-1.5676,-1.5655,-1.5478,-1.5708,-1.6535,0.0,0.0,0.0,0.0,0.0,0.0,0.0,0.0,0.0,0.0,0.0,0.0,0.0,0.0,0.0,0.0,0.0,0.0,0.0,0.0,0.0,0.0,0.0,-2.1543,0.0,0.0,0.0,0.0,0.0,0.0,0.0,0.0,0.0,0.0,0.0,0.0,0.0,0.0,0.0,0.0,0.0,0.0,0.0,0.0,0.0,0.0,0.0,0.0,0.0,0.0,0.0,0.0,0.0,0.0,0.0,0.0,-0.4122,-0.3972,-0.3999,-0.4187,-0.4625,-0.4242,-0.4187,-0.4625,-0.4242,-0.4024,-0.4024,-0.4024,-0.4024,-0.4024,-0.4079,-0.3913,-0.3413,-0.2907,-0.2375,-0.1798,-0.1191,-0.0909,-0.0872,0.034,0.0894,0.0949,0.3166,0.4761,0.5747,0.6827,0.8165,0.9666,1.0762,1.1379,1.1912,1.3889,1.5349,1.636,1.6765,1.7933,1.9333,0.0,0.0,0.0,0.0,0.0,0.0,0.0,0.0,0.0,0.0,-1.4422,-1.4799,-1.4371,-1.5459,-1.6048,-1.5635,-1.5487,-1.5666,-1.6246,0.0,0.0,0.0,0.0,0.0,0.0,0.0,0.0,0.0,0.0,0.0,0.0,0.0,0.0,0.0,0.0,0.0,0.0,0.0,0.0,0.0,0.0,0.0,-2.1336,-2.0975,-2.0181,-1.9045,-1.7688,-1.675,-1.5825,-1.4048,0.0,0.0,0.0,0.0,0.0,0.0,0.0,0.0,0.0,0.0,0.0,0.0,0.0,0.0,0.0,0.0,0.0,0.0,0.0,0.0,0.0,0.0,0.0,0.0,-0.5386,-0.5057,-0.4724,-0.4612,-0.4787,-0.5391,-0.5117,-0.4952,-0.5062,-0.4732,-0.446,-0.4242,-0.4187,-0.4212,-0.4273,-0.4392,-0.4308,-0.4019,-0.3218,-0.2592,-0.2291,-0.1368,-0.0793,-0.0519,0.0452,0.095,0.1174,0.3713,0.5159,0.0,0.7637,0.9039,0.9925,1.0883,1.1791,0.0,0.0,0.0,0.0,0.0,1.9094,1.9561,0.0,0.0,0.0,0.0,0.0,0.0,0.0,0.0,0.0,0.0,0.0,-1.5351,-1.4783,-1.5466,-1.575,-1.5185,-1.5108,-1.5118,0.0,0.0,0.0,0.0,0.0,0.0,0.0,0.0,0.0,0.0,0.0,0.0,0.0,0.0,0.0,0.0,0.0,0.0,0.0,0.0,0.0,0.0,0.0,0.0,-2.1135,-2.0478,-2.003,-1.9498,-1.7693,-1.6869,-1.6376,-1.4906,0.0,0.0,0.0,0.0,0.0,0.0,0.0,0.0,0.0,0.0,0.0,0.0,0.0,0.0,0.0,0.0,0.0,0.0,0.0,0.0,0.0,0.0,0.0,0.0,-0.6692,-0.6601,-0.6036,-0.5776,-0.5817,-0.6268,-0.6282,-0.6069,-0.5555,-0.5386,-0.5117,-0.4625,-0.4532,-0.4604,-0.4742,0.0,0.0,0.0,0.0,-0.2769,-0.2671,-0.1434,-0.0566,-0.0057,0.0736,0.1299,0.1582,0.4673,0.591,0.5863,0.8947,1.0313,1.0462,1.1353,1.2742,1.4416,1.5776,1.652,1.7208,2.058,2.1172,2.0548,0.0,0.0,0.0,0.0,0.0,0.0,0.0,0.0,0.0,-1.3495,-1.4247,-1.4665,-1.4295,-1.4777,-1.5024,-1.4742,-1.4077,-1.3976,0.0,0.0,0.0,0.0,0.0,0.0,0.0,0.0,0.0,0.0,0.0,0.0,0.0,0.0,0.0,0.0,0.0,0.0,0.0,0.0,0.0,0.0,0.0,0.0,-2.134,-2.1135,-2.0581,-1.9743,-1.8994,-1.8313,-1.7555,-1.6124,-1.5377,-1.4829,-1.3938,0.0,0.0,0.0,0.0,0.0,0.0,0.0,0.0,0.0,0.0,0.0,0.0,0.0,0.0,0.0,0.0,0.0,0.0,0.0,0.0,-0.8293,-0.8252,-0.8096,-0.8044,-0.7999,-0.7711,-0.7014,-0.6688,-0.6556,-0.6717,-0.5878,-0.5281,-0.5171,-0.4858,-0.4714,-0.4915,-0.4323,-0.3845,-0.3559,-0.2565,-0.1808,-0.1395,-0.0781,-0.0479,-0.0377,0.0,0.0,0.2885,0.588,0.7534,0.8052,0.9973,1.112,1.1784,1.3164,1.507,1.7155,1.7559,1.8153,1.9069,2.1138,2.1801,2.1852,0.0,0.0,0.0,0.0,0.0,0.0,0.0,0.0,0.0,0.0,-1.4144,-1.4516,-1.4145,-1.434,-1.4388,-1.411,-1.3656,0.0,0.0,0.0,0.0,0.0,0.0,0.0,0.0,0.0,0.0,0.0,0.0,0.0,0.0,0.0,0.0,0.0,0.0,0.0,0.0,0.0,0.0,0.0,0.0,0.0,-2.134,-2.1119,-2.063,-2.0,-1.9427,-1.8817,-1.8196,-1.7116,-1.6478,-1.6006,-1.5262,-1.4292,-1.3232,0.0,0.0,0.0,0.0,0.0,0.0,0.0,0.0,0.0,0.0,0.0,0.0,0.0,0.0,-0.8918,0.0,0.0,-0.9459,-0.9517,-0.988,-0.9953,-0.9445,-0.9907,-0.9735,-0.8113,-0.7661,-0.733,-0.6991,-0.6215,-0.5593,-0.5133,-0.4876,-0.4634,-0.453,-0.417,-0.3793,-0.3339,-0.2561,-0.1874,-0.1417,-0.0864,-0.0306,0.0252,0.2159,0.3179,0.3486,0.6986,0.8486,0.855,1.0982,1.2298,1.285,1.5068,1.6871,1.8285,1.902,1.9975,2.0934,2.1743,2.2594,2.3455,0.0,0.0,0.0,0.0,0.0,0.0,0.0,0.0,0.0,0.0,0.0,-1.4331,-1.4009,-1.3951,-1.3779,0.0,0.0,0.0,0.0,0.0,0.0,0.0,0.0,0.0,0.0,0.0,0.0,0.0,0.0,0.0,0.0,0.0,0.0,0.0,0.0,0.0,0.0,0.0,0.0,0.0,0.0,0.0,-2.1277,-2.1023,-2.0695,-2.0289,-1.9403,-1.8883,-1.8484,-1.7705,-1.7143,-1.6704,-1.6387,-1.5721,-1.4748,-1.3053,-1.2656,0.0,0.0,0.0,0.0,0.0,0.0,0.0,0.0,0.0,-1.0216,-1.0337,-1.0532,-1.073,-1.0785,-1.1163,-1.1359,-1.1027,-1.1636,-1.1841,-1.088,-1.1569,-1.1448,-0.9583,-0.9054,-0.8444,-0.7435,-0.6809,-0.6184,-0.5533,-0.5024,-0.4667,-0.4284,-0.4126,-0.3858,-0.3418,-0.2544,-0.1934,-0.1619,-0.0821,0.0125,0.1376,0.2801,0.3979,0.4927,0.8282,0.9766,0.9722,1.257,1.4102,1.4673,1.6859,1.8246,1.9033,2.027,2.148,2.26,2.2451,2.3364,2.4581,0.0,0.0,0.0,0.0,0.0,0.0,0.0,0.0,0.0,0.0,0.0,0.0,0.0,0.0,0.0,0.0,0.0,0.0,0.0,0.0,0.0,0.0,0.0,0.0,0.0,0.0,0.0,0.0,0.0,0.0,0.0,0.0,0.0,0.0,0.0,0.0,0.0,0.0,0.0,0.0,0.0,0.0,-2.1309,-2.1324,-2.1055,-2.0499,-1.9228,-1.8673,-1.8444,-1.7487,-1.7079,-1.7095,-1.7222,-1.6567,-1.5549,-1.4484,0.0,-1.2698,-1.1863,-1.2331,-1.3028,-1.2686,-1.2904,-1.3381,0.0,0.0,-1.2313,-1.2929,-1.289,-1.2653,-1.2414,-1.3132,-1.3822,-1.3751,-1.3802,-1.363,-1.3139,-1.2819,-1.2427,-1.1721,-1.1128,-1.0429,-0.9445,-0.8114,-0.7343,-0.7459,-0.6011,-0.5016,-0.4798,-0.4211,-0.3611,-0.309,-0.1699,-0.0978,-0.0936,-0.0,0.1168,0.2513,0.4213,0.6473,0.9162,1.0438,1.2273,1.4591,1.5651,1.6984,1.8366,1.8229,1.9008,2.0403,2.0992,2.22,2.3601,2.3283,2.3596,2.4383,0.0,0.0,0.0,0.0,0.0,0.0,0.0,0.0,0.0,0.0,0.0,0.0,0.0,0.0,0.0,0.0,0.0,0.0,0.0,0.0,0.0,0.0,0.0,0.0,0.0,0.0,0.0,0.0,0.0,0.0,0.0,0.0,0.0,0.0,0.0,0.0,0.0,0.0,0.0,0.0,0.0,0.0,-2.1245,-2.067,-2.0353,-2.0049,-1.9083,-1.8384,0.0,0.0,-1.6629,-1.661,-1.6566,-1.6061,-1.5299,-1.4247,-1.3848,0.0,-1.3979,-1.43,-1.4753,0.0,-1.5464,-1.5776,-1.6248,-1.5938,-1.5627,-1.5881,-1.6036,-1.5748,-1.4784,-1.5281,-1.5506,0.0,-1.4464,-1.4455,-1.3819,-1.3545,-1.3295,-1.2932,-1.2431,-1.1567,-1.0214,-0.9057,-0.8366,-0.8345,-0.7076,-0.5925,-0.5147,-0.4279,-0.3222,-0.1949,-0.1328,-0.073,-0.0134,0.106,0.2116,0.3004,0.6055,0.8153,0.9466,1.2297,1.4799,1.6957,1.8395,1.938,2.0098,2.0755,2.1594,2.2421,2.2235,2.3215,2.4567,2.3836,2.4524,2.5935,0.0,0.0,0.0,0.0,0.0,0.0,0.0,0.0,0.0,0.0,0.0,0.0,0.0,0.0,0.0,0.0,0.0,0.0,0.0,0.0,0.0,0.0,0.0,0.0,0.0,0.0,0.0,0.0,0.0,0.0,0.0,0.0,0.0,0.0,0.0,0.0,0.0,0.0,0.0,0.0,0.0,0.0,-2.0876,-2.0207,-1.9638,-1.9122,-1.8526,-1.7885,0.0,0.0,-1.6159,-1.6096,-1.5951,-1.5623,-1.5119,-1.4162,-1.4205,-1.472,-1.5507,0.0,0.0,-1.7483,-1.79,-1.8203,-1.86,-1.8502,-1.8328,-1.84,-1.8442,-1.8057,-1.6948,-1.6845,-1.6538,-1.516,-1.4917,-1.472,-1.421,-1.4023,-1.3789,-1.3501,-1.3076,-1.2318,-1.1122,-1.0065,-0.9379,-0.9287,-0.7976,-0.6629,-0.5432,-0.4333,-0.3017,-0.148,-0.1076,-0.0404,0.0745,0.1957,0.3295,0.4954,0.7867,0.9793,1.0933,1.4701,1.7185,1.864,2.0551,2.1424,2.1597,2.3139,2.3978,2.4259,2.3894,2.4594,2.5722,2.4912,2.5742,2.7164,0.0,0.0,0.0,0.0,0.0,0.0,0.0,0.0,0.0,0.0,0.0,0.0,0.0,0.0,0.0,0.0,0.0,0.0,0.0,0.0,0.0,0.0,0.0,0.0,0.0,0.0,0.0,0.0,0.0,0.0,0.0,0.0,0.0,0.0,0.0,0.0,0.0,0.0,0.0,0.0,0.0,0.0,-2.0061,-2.0221,-1.9251,-1.772,-1.7444,0.0,0.0,0.0,-1.5886,-1.5747,-1.5852,-1.571,0.0,-1.4827,-1.4776,-1.5049,-1.5845,0.0,-1.8524,-1.9338,-2.0046,-2.0753,-2.1277,-2.0618,-1.9982,-2.0205,-1.9576,-1.8881,-1.8561,-1.7462,-1.6749,-1.7082,-1.5664,-1.4543,-1.4515,-1.4148,-1.3745,-1.3351,-1.2938,-1.2681,0.0,-1.1174,-1.0429,-1.0726,-0.8603,-0.6805,-0.5744,-0.4322,-0.308,-0.222,-0.1076,0.0271,0.1938,0.2493,0.5005,0.9311,0.9443,1.1454,1.5204,1.7989,1.9422,1.9841,2.201,2.2989,2.3234,2.4857,2.5514,2.5575,2.6106,2.6595,2.7058,2.7015,2.7183,2.7427,0.0,0.0,0.0,0.0,0.0,0.0,0.0,0.0,0.0,0.0,0.0,0.0,0.0,0.0,0.0,0.0,0.0,0.0,0.0,0.0,0.0,0.0,0.0,0.0,0.0,0.0,0.0,0.0,0.0,0.0,0.0,0.0,0.0,0.0,0.0,0.0,0.0,0.0,0.0,0.0,0.0,0.0,-2.0054,-1.8781,-1.7945,-1.7319,0.0,0.0,0.0,0.0,0.0,0.0,-1.4849,-1.4544,-1.4269,-1.4499,-1.5155,-1.6188,-1.7889,0.0,-2.0107,-2.1778,-2.2422,-2.279,-2.3138,-2.3007,-2.2698,-2.2337,-2.1487,-2.0313,-1.8723,-1.8057,-1.7197,-1.5642,-1.5156,-1.4751,-1.4165,-1.3551,-1.3131,-1.3277,-1.269,0.0,0.0,0.0,0.0,-1.0794,-0.9365,-0.7563,-0.5289,-0.4124,-0.2744,-0.1142,0.0536,0.1757,0.2495,0.5805,0.8159,0.9514,1.222,1.4884,1.753,1.9767,2.1204,2.2095,2.4745,2.5912,2.6046,2.6918,2.7221,2.7174,2.6945,2.7418,2.8233,2.8484,2.8864,2.927,0.0,0.0,0.0,0.0,0.0,0.0,0.0,0.0,0.0,0.0,0.0,0.0,0.0,0.0,0.0,0.0,0.0,0.0,0.0,0.0,0.0,0.0,0.0,0.0,0.0,0.0,0.0,0.0,0.0,0.0,0.0,0.0,0.0,0.0,0.0,0.0,0.0,0.0,0.0,0.0,0.0,0.0,-1.9076,-1.7708,-1.7038,0.0,0.0,0.0,0.0,0.0,0.0,0.0,-1.4662,-1.466,-1.4699,-1.5172,-1.6222,-1.7686,-1.9525,-2.0948,-2.2258,-2.3698,-2.4533,-2.4864,-2.4559,-2.4405,-2.4043,-2.3083,-2.1902,-2.0461,-1.8838,-1.7702,-1.653,-1.4924,-1.4612,-1.435,-1.3777,-1.3221,-1.2813,-1.2573,-1.2114,-1.1489,0.0,0.0,0.0,-1.0192,-0.9048,-0.7401,-0.5293,-0.3195,-0.1404,0.0068,0.2161,0.3966,0.5281,0.8303,1.0565,1.2056,1.52,1.7584,1.9305,2.1023,2.2444,2.3699,2.6228,2.7286,2.7364,2.8054,2.8311,2.8295,2.8147,2.8613,2.9342,2.9593,2.9997,3.0369,0.0,0.0,0.0,0.0,0.0,0.0,0.0,0.0,0.0,0.0,0.0,0.0,0.0,0.0,0.0,0.0,0.0,0.0,0.0,0.0,0.0,0.0,0.0,0.0,0.0,0.0,0.0,0.0,0.0,0.0,0.0,0.0,0.0,0.0,0.0,0.0,0.0,0.0,0.0,0.0,0.0,0.0,-1.7279,-1.7013,0.0,0.0,0.0,0.0,0.0,0.0,0.0,0.0,-1.5308,-1.5973,-1.6651,-1.6832,-1.8016,-1.9573,-2.0932,-2.3022,-2.4941,-2.5232,-2.6294,-2.6844,-2.5495,-2.4778,-2.3986,-2.2577,-2.0847,-1.9343,0.0,0.0,-1.499,-1.4924,-1.4052,-1.3314,-1.3231,-1.3277,-1.2752,0.0,0.0,0.0,0.0,0.0,0.0,-0.9014,0.0,-0.6399,-0.5391,-0.1623,0.0805,0.1384,0.3851,0.6644,0.9777,1.0049,1.2398,1.6799,1.8261,1.948,2.0505,2.1837,2.3289,2.4757,2.6471,2.7226,2.7365,2.8414,2.8881,2.8988,2.967,3.0087,3.0351,3.0335,3.0543,3.0788,0.0,0.0,0.0,0.0,0.0,0.0,0.0,0.0,0.0,0.0,0.0,0.0,0.0,0.0,0.0,0.0,0.0,0.0,0.0,0.0,0.0,0.0,0.0,0.0,0.0,0.0,0.0,0.0,0.0,0.0,0.0,0.0,0.0,0.0,0.0,0.0,0.0,0.0,0.0,0.0,0.0,0.0,-1.7204,0.0,0.0,0.0,0.0,0.0,0.0,0.0,0.0,0.0,0.0,-1.7001,-1.8636,-1.9132,-2.0937,-2.3107,-2.4865,-2.609,-2.7121,-2.7966,-2.7769,-2.7034,-2.5466,-2.5177,-2.4413,-2.167,-2.0038,-1.8548,0.0,0.0,0.0,-1.3764,-1.3972,0.0,-1.2353,-1.2822,0.0,-1.0009,0.0,-1.0473,-0.8336,-0.768,0.0,0.0,-0.6667,-0.5011,-0.1005,0.0,0.1688,0.4174,0.6689,0.8594,0.9777,1.3161,1.6357,1.9382,1.9812,2.0348,2.1016,2.3392,2.4987,2.597,2.7624,2.8785,2.9497,2.9802,3.0071,3.031,3.0493,3.0601,3.0707,3.0965,3.1083,3.1162,0.0,0.0,0.0,0.0,0.0,0.0,0.0,0.0,0.0,0.0,0.0,0.0,0.0,0.0,0.0,0.0,0.0,0.0,0.0,0.0,0.0,0.0,0.0,0.0,0.0,0.0,0.0,0.0,0.0,0.0,0.0,0.0,0.0,0.0,0.0,0.0,0.0,0.0,0.0,0.0,0.0,0.0,0.0,0.0,0.0,0.0,0.0,0.0,0.0,0.0,0.0,-1.6515,-1.695,-1.8313,-1.989,-2.0739,0.0,-2.4637,-2.6246,-2.7735,-2.8936,-2.923,-2.8622,-2.7569,-2.5751,-2.4348,-2.2774,-2.0407,-1.8407,0.0,-1.5191,0.0,0.0,0.0,0.0,0.0,-1.174,-1.2043,-1.1524,0.0,-0.9273,0.0,-0.6913,-0.6165,-0.4951,0.0,-0.357,-0.2687,0.0206,0.223,0.4493,0.6999,0.9439,1.1579,1.3447,1.6685,1.9388,2.1506,2.1262,2.1749,2.296,2.4521,2.5808,2.6972,0.0,2.9026,2.9889,3.0013,3.0175,3.0409,3.0687,3.0885,3.1044,3.1218,3.1372,3.1504,0.0,0.0,0.0,0.0,0.0,0.0,0.0,0.0,0.0,0.0,0.0,0.0,0.0,0.0,0.0,0.0,0.0,0.0,0.0,0.0,0.0,0.0,0.0,0.0,0.0,0.0,0.0,0.0,0.0,0.0,0.0,0.0,0.0,0.0,0.0,0.0,0.0,0.0,0.0,0.0,0.0,0.0,0.0,0.0,0.0,0.0,0.0,0.0,0.0,0.0,-1.6522,-1.7543,-1.8659,-1.9766,-2.0953,-2.203,-2.3583,-2.5255,-2.6572,-2.8561,-3.0118,-2.9587,-2.8915,-2.7853,-2.5582,-2.2936,-2.0475,-1.8828,0.0,-1.4494,-1.381,-1.3474,-1.3074,-1.2255,0.0,-1.2497,-1.1011,-1.1028,-1.0387,-0.8259,-0.7653,-0.6811,-0.5408,-0.4384,-0.2707,-0.0138,0.0473,0.0742,0.0694,0.4884,0.828,1.0319,1.2344,1.5027,1.8375,1.9904,2.14,2.2863,2.2603,2.3429,2.5083,2.5397,2.6356,2.7786,2.8165,0.0,2.9525,2.9844,3.0017,3.0068,3.069,3.1123,3.1372,3.1372,3.1542,3.18,0.0,0.0,0.0,0.0,0.0,0.0,0.0,0.0,0.0,0.0,-1.1371,0.0,0.0,0.0,0.0,0.0,0.0,0.0,0.0,0.0,0.0,0.0,0.0,0.0,0.0,0.0,0.0,0.0,0.0,0.0,0.0,0.0,0.0,0.0,0.0,0.0,0.0,0.0,0.0,0.0,0.0,0.0,0.0,0.0,0.0,0.0,0.0,0.0,0.0,0.0,-1.6859,-1.8492,-1.967,-2.1124,-2.2637,-2.387,-2.5249,-2.6733,-2.8584,-2.9289,-2.9567,-2.9546,-2.8267,-2.6154,-2.3003,-2.1963,0.0,0.0,-1.5291,-1.3886,-1.2782,-1.2134,-1.1423,-1.0351,0.0,0.0,0.0,0.0,-0.9388,0.0,0.0,0.0,0.0,0.0,0.0,0.0,0.0,0.6191,0.6349,0.8017,1.1009,1.554,1.6666,1.81,2.0158,2.1182,2.1875,2.2302,2.3885,2.4557,2.4451,2.6386,2.7559,2.8162,2.881,0.0,3.058,3.0898,3.1031,3.1087,3.1452,3.1671,3.1709,3.1709,3.1746,3.18,0.0,0.0,0.0,0.0,0.0,0.0,0.0,0.0,0.0,-1.0381,-1.0562,-1.079,0.0,0.0,0.0,0.0,0.0,0.0,0.0,0.0,0.0,0.0,0.0,0.0,0.0,0.0,0.0,0.0,0.0,0.0,0.0,0.0,0.0,0.0,0.0,0.0,0.0,0.0,0.0,0.0,0.0,0.0,0.0,0.0,0.0,0.0,0.0,0.0,0.0,0.0,-1.6087,-1.7851,-1.9787,-2.1125,-2.2335,-2.3904,-2.526,-2.6526,-2.7835,-2.8624,-2.8862,-2.8267,-2.674,-2.4644,-2.1897,0.0,0.0,0.0,-1.3055,-1.1534,-1.0972,-1.0388,0.0,0.0,0.0,0.0,0.0,0.0,0.0,0.0,0.0,0.0,0.0,0.0,0.0,0.0,0.0,0.8468,0.9095,1.24,1.5402,1.8015,1.8921,2.009,2.1688,2.1615,2.2424,2.4138,2.485,2.5508,2.6059,2.6976,2.7879,2.8784,2.9048,0.0,3.1083,3.1411,3.1542,3.1596,3.1763,3.18,3.18,3.18,3.18,3.1837,0.0,0.0,0.0,0.0,0.0,0.0,0.0,-0.9747,-0.9601,-0.9528,-0.9289,-0.941,-1.0168,-1.0602,-1.094,0.0,0.0,0.0,0.0,0.0,0.0,0.0,0.0,0.0,0.0,0.0,0.0,-1.086,0.0,0.0,0.0,0.0,0.0,0.0,0.0,0.0,0.0,0.0,0.0,0.0,0.0,0.0,0.0,0.0,0.0,0.0,0.0,0.0,0.0,0.0,-1.4771,-1.6218,-1.8583,-2.0057,-2.1254,-2.2804,-2.4211,-2.5435,-2.6254,-2.7369,-2.7989,-2.6808,-2.5175,-2.3173,-2.0515,-1.7024,0.0,0.0,-1.0506,-0.8892,-0.8892,0.0,-0.828,0.0,-0.7629,0.0,0.0,0.0,0.0,0.0,0.0,0.0,0.0,0.0,0.0,0.0,0.0,0.0,1.1847,1.5974,1.8733,1.9652,2.0509,2.1512,2.2724,2.2305,2.3293,2.563,2.5746,2.6433,2.7582,2.78,2.8489,2.952,2.9546,0.0,0.0,3.1671,3.1763,3.1709,3.1746,3.18,3.18,3.18,3.1873,3.1929,0.0,0.0,0.0,0.0,0.0,0.0,0.0,-0.7452,-0.752,-0.7634,-0.7262,-0.7521,-0.8911,-0.956,-1.0058,0.0,0.0,0.0,0.0,0.0,0.0,0.0,0.0,0.0,0.0,0.0,0.0,-1.0719,-1.0798,0.0,0.0,0.0,0.0,0.0,0.0,0.0,0.0,0.0,0.0,0.0,0.0,0.0,0.0,0.0,0.0,0.0,0.0,0.0,0.0,0.0,0.0,-1.3423,-1.5011,-1.751,-1.9917,-2.0341,0.0,0.0,-2.4924,-2.6059,-2.668,-2.5786,-2.4163,-2.1663,-1.7265,0.0,0.0,-0.99,-0.7992,-0.6887,-0.6887,-0.6742,-0.6328,0.0,0.0,-0.5209,0.0,0.0,0.0,0.0,0.0,0.0,0.0,0.0,0.0,0.0,0.0,0.0,1.7145,1.7122,1.8529,2.1581,2.2067,2.2522,2.2857,2.406,2.4539,2.4394,2.6768,2.7662,2.7229,2.9459,3.032,3.0153,3.0819,0.0,0.0,3.1671,3.1634,3.1389,3.1671,3.18,3.18,3.18,3.1984,3.2214,0.0,0.0,0.0,0.0,0.0,0.0,0.0,-0.7352,-0.7266,-0.68,-0.6716,-0.6705,-0.6737,-0.7196,-0.8189,0.0,0.0,0.0,0.0,0.0,0.0,0.0,0.0,0.0,0.0,0.0,0.0,-1.0705,-1.0656,0.0,0.0,0.0,0.0,0.0,0.0,-1.02,0.0,0.0,0.0,0.0,0.0,0.0,0.0,0.0,0.0,0.0,0.0,0.0,0.0,0.0,0.0,0.0,-1.1984,-1.3316,0.0,0.0,-2.0088,-2.1352,-2.2995,-2.382,-2.3892,-2.2578,-2.0746,-1.8345,-1.4769,0.0,-0.9906,-0.7927,-0.59,-0.4504,-0.4504,-0.3517,-0.2642,0.0,0.0,0.0,0.0,0.0,0.0,0.0,0.0,0.0,0.0,0.0,0.0,0.0,0.0,0.0,2.0607,2.0644,2.1485,2.3599,2.3299,2.385,2.5414,2.5213,2.542,2.5972,2.7921,2.8566,2.806,2.9703,3.0586,3.0874,3.0905,0.0,0.0,3.1746,3.1709,3.1634,3.1746,3.18,3.18,3.18,3.1893,3.2053,0.0,0.0,0.0,0.0,0.0,-0.6193,-0.6247,-0.6285,-0.6167,-0.5694,-0.5662,-0.5573,-0.5341,-0.5596,-0.6562,-0.8502,0.0,0.0,0.0,0.0,0.0,0.0,0.0,0.0,0.0,0.0,0.0,-1.0172,-1.011,-1.0059,0.0,0.0,-0.9856,-0.9625,0.0,0.0,0.0,0.0,0.0,0.0,0.0,0.0,0.0,0.0,0.0,0.0,0.0,0.0,0.0,0.0,0.0,0.0,0.0,0.0,0.0,0.0,-1.7591,-1.867,-2.0364,-2.1159,-2.117,-1.971,-1.7757,-1.545,0.0,0.0,-0.7026,-0.5618,-0.3627,-0.2099,-0.2099,-0.094,-0.0111,0.0,0.0,0.1312,0.0,0.0,0.0,0.0,0.0,0.0,0.0,0.0,0.0,0.0,0.0,0.0,2.2419,2.3395,2.4203,2.4928,2.4224,2.4716,2.6458,2.5987,2.6206,2.7114,2.8544,2.9054,2.8777,2.985,3.0646,3.1124,3.1055,0.0,0.0,3.18,3.18,3.18,3.1893,3.1965,3.1982,3.2208,3.2367,3.258,0.0,0.0,0.0,0.0,0.0,0.0,0.0,-0.3525,-0.3528,-0.4045,-0.3611,-0.3757,-0.515,-0.5298,-0.5497,-0.6003,0.0,0.0,0.0,0.0,0.0,0.0,0.0,0.0,0.0,0.0,0.0,-0.8915,-0.886,-0.8816,-0.8816,-0.8816,-0.8816,-0.8816,0.0,0.0,0.0,0.0,0.0,0.0,0.0,0.0,0.0,0.0,0.0,0.0,0.0,0.0,0.0,0.0,0.0,0.0,0.0,0.0,0.0,0.0,-1.4135,-1.5808,-1.6916,-1.8085,-1.8694,-1.7664,-1.5851,-1.3643,0.0,0.0,-0.4414,-0.2642,-0.0941,0.0222,0.0333,0.0388,0.0388,0.0388,0.0,0.0,0.0,0.0,0.0,0.0,0.0,0.0,0.0,0.0,0.0,0.0,0.0,0.0,2.23,2.4798,2.5923,2.525,2.4878,2.4785,2.5019,2.6405,2.7081,2.7118,2.846,2.9121,2.9138,3.0228,3.0696,0.0,0.0,0.0,0.0,3.18,3.18,3.1819,3.2161,3.2283,3.2371,3.3125,3.3652,3.3981,0.0,0.0,0.0,0.0,0.0,0.0,0.0,-0.3876,-0.3872,-0.3535,-0.3545,-0.3572,-0.3467,-0.3737,-0.398,-0.4147,0.0,0.0,0.0,0.0,0.0,0.0,0.0,0.0,0.0,0.0,-0.8618,-0.8844,-0.8773,-0.8623,-0.8396,-0.834,-0.8222,-0.8065,-0.8105,0.0,0.0,0.0,0.0,0.0,0.0,0.0,0.0,0.0,0.0,0.0,0.0,0.0,0.0,0.0,0.0,0.0,0.0,0.0,0.0,0.0,0.0,0.0,-1.3214,-1.3992,-1.4278,-1.2963,-1.0719,-0.835,-0.6528,0.0,-0.1586,-0.0718,0.0884,0.221,0.221,0.3259,0.4177,0.4445,0.4676,0.0,0.0,0.0,0.0,0.0,0.0,0.0,0.0,0.0,0.0,0.0,0.0,0.0,2.4941,2.5697,2.6428,2.7236,2.647,2.686,2.8555,2.8037,2.8219,2.9106,3.007,3.067,3.0967,3.1298,3.1731,0.0,0.0,0.0,0.0,3.1746,3.1893,3.2091,3.2249,3.2283,3.2371,3.3125,3.3315,3.3358,0.0,0.0,0.0,0.0,0.0,0.0,0.0,-0.3483,-0.3428,-0.3155,-0.3377,-0.3293,-0.2664,-0.3099,-0.3327,-0.3166,0.0,0.0,0.0,0.0,0.0,0.0,0.0,0.0,0.0,-0.7396,-0.7463,-0.7675,-0.7598,-0.7453,-0.7269,-0.7299,-0.7231,-0.7065,-0.7182,0.0,0.0,0.0,0.0,0.0,0.0,0.0,-0.7307,0.0,0.0,0.0,0.0,0.0,0.0,0.0,0.0,0.0,0.0,0.0,0.0,0.0,-0.6246,0.0,0.0,-0.9925,-0.9911,-0.8534,-0.643,0.0,0.0,0.0,0.1047,0.1598,0.3032,0.42,0.4255,0.5258,0.6197,0.644,0.6693,0.0,0.0,0.0,0.0,0.0,0.0,0.0,0.0,0.0,0.0,0.0,0.0,0.0,2.6075,2.6898,2.7718,2.8685,2.7474,2.7646,2.9386,2.9327,2.9504,2.9943,3.0934,3.1422,3.1369,3.1369,3.1627,0.0,0.0,0.0,0.0,3.1875,3.2055,3.2266,3.2737,3.2911,3.2966,3.3879,3.4097,3.4192,0.0,0.0,0.0,0.0,0.0,0.0,0.0,0.0,0.0,-0.2885,-0.301,-0.2928,-0.2611,-0.3137,-0.336,0.0,0.0,0.0,0.0,0.0,0.0,0.0,0.0,0.0,0.0,-0.5837,-0.5776,-0.5768,-0.5751,-0.5703,-0.5679,-0.5883,-0.6004,-0.6005,-0.6192,-0.6525,-0.6987,-0.7304,-0.7224,-0.6862,-0.682,-0.682,0.0,0.0,0.0,0.0,0.0,0.0,0.0,0.0,0.0,0.0,0.0,0.0,0.0,0.0,0.0,0.0,0.0,-0.5872,0.0,0.0,0.0,0.0,0.0,0.0,0.0,0.4226,0.5341,0.6253,0.6386,0.6657,0.6857,0.6892,0.7235,0.0,0.0,0.0,0.0,0.0,0.0,0.0,0.0,0.0,0.0,0.0,0.0,0.0,2.5984,2.8065,2.9323,2.9416,2.7899,2.7482,2.8263,3.0208,3.0723,2.995,3.1196,3.1455,3.0851,3.08,3.0834,0.0,0.0,0.0,0.0,3.2248,3.2406,3.2581,3.3612,3.3946,3.3969,3.5104,3.5703,3.5998,0.0,0.0,0.0,0.0,0.0,0.0,0.0,0.0,0.0,0.0,-0.2481,-0.2572,-0.2381,-0.2617,-0.273,0.0,0.0,0.0,0.0,0.0,0.0,0.0,0.0,0.0,0.0,-0.5356,-0.5373,-0.5408,-0.5762,-0.5724,-0.533,-0.5724,-0.5911,-0.5938,-0.5968,-0.6188,-0.6444,-0.6018,-0.5706,-0.5503,-0.5255,-0.4952,0.0,0.0,0.0,0.0,-0.4504,-0.4731,0.0,0.0,0.0,0.0,0.0,0.0,0.0,0.0,-0.0111,0.0385,0.0546,0.0,-0.1745,-0.0544,0.0763,0.1915,0.0,0.0,0.0,0.0,0.0,0.0,0.0,0.8974,0.95,0.9962,1.0093,1.065,0.0,0.0,0.0,0.0,0.0,0.0,0.0,0.0,0.0,0.0,0.0,2.5784,2.6461,2.7074,2.7688,2.8388,2.824,2.8766,3.0094,3.0549,3.0954,3.1172,3.1452,3.1836,3.229,3.1631,3.1935,0.0,0.0,0.0,3.3723,3.3873,3.4074,3.4217,3.4177,3.4154,3.4259,3.5447,3.572,3.5649,0.0,0.0,0.0,0.0,0.0,0.0,0.0,0.0,0.0,0.0,0.0,0.0,0.0,0.0,0.0,0.0,0.0,0.0,0.0,0.0,0.0,0.0,0.0,0.0,-0.4151,-0.4191,-0.4238,-0.4289,-0.4603,-0.4619,-0.434,-0.4676,-0.4848,-0.4853,-0.4956,-0.5017,-0.5038,-0.4778,-0.4561,-0.443,-0.4447,0.0,0.0,0.0,0.0,0.0,-0.268,-0.2537,0.0,-0.2585,-0.1571,-0.0541,0.0,0.0,0.0,0.0,0.2211,0.3094,0.3817,0.2646,0.1541,0.2806,0.3854,0.479,0.0,0.0,0.0,0.0,0.0,0.0,0.0,0.0,0.0,0.0,1.2447,0.0,0.0,0.0,0.0,0.0,0.0,0.0,0.0,0.0,0.0,0.0,0.0,2.593,2.6471,2.672,2.734,2.8421,2.8951,2.9492,3.0175,3.1103,3.1512,3.1406,3.182,3.2047,3.2192,3.2047,3.2457,0.0,0.0,0.0,3.4125,3.4318,3.4434,3.4528,3.4704,3.4843,3.5028,3.5854,3.6112,3.616,0.0,0.0,0.0,0.0,0.0,0.0,0.0,0.0,0.0,0.0,0.0,0.0,0.0,0.0,0.0,0.0,0.0,0.0,0.0,0.0,0.0,0.0,0.0,-0.291,-0.2944,-0.3078,-0.3115,-0.3079,-0.3176,-0.3254,-0.3278,-0.353,-0.3644,-0.3632,-0.3774,-0.3792,-0.3697,-0.3656,-0.3615,-0.366,-0.398,0.0,0.0,0.0,0.0,0.0,0.0,0.0,0.0,0.0469,0.0968,0.1491,0.1711,0.0,0.0,0.0,0.0,0.0,0.581,0.5124,0.4667,0.5634,0.6298,0.6945,0.78,0.0,0.0,0.0,0.0,0.0,0.0,0.0,0.0,0.0,0.0,0.0,0.0,0.0,0.0,0.0,0.0,0.0,0.0,0.0,0.0,0.0,0.0,2.6198,2.6254,2.6716,2.7522,2.8633,2.955,2.9906,2.9655,3.1568,3.2117,3.1269,3.2015,3.2059,3.1496,3.211,3.2508,3.274,0.0,0.0,3.4117,3.425,3.438,3.4606,3.5161,3.554,3.5854,3.6296,3.662,3.6821,0.0,0.0,0.0,0.0,0.0,0.0,0.0,0.0,0.0,0.0,0.0,0.0,0.0,0.0,0.0,0.0,0.0,0.0,0.0,0.0,0.0,0.0,-0.2633,-0.3011,-0.3245,-0.3308,-0.3211,-0.2943,-0.2956,-0.3066,-0.3232,-0.354,-0.3749,-0.3843,-0.37,-0.3843,-0.4112,-0.2909,-0.296,-0.3821,-0.3328,0.0,0.0,0.0,0.0,0.0,0.0,0.0,0.0,0.4089,0.4287,0.434,0.5492,0.0,0.0,0.0,0.0,0.0,0.7272,0.7982,0.8593,0.7629,0.7272,0.7545,0.8974,0.0,0.0,0.0,0.0,0.0,0.0,0.0,0.0,0.0,0.0,0.0,0.0,0.0,0.0,0.0,0.0,0.0,0.0,0.0,0.0,0.0,0.0,2.5799,2.6028,2.67,2.724,2.7616,2.9235,3.0005,2.9854,3.1455,3.2004,3.1559,3.1492,3.1453,3.1351,3.1453,3.1822,3.2411,0.0,3.3963,3.5065,3.4463,3.4966,3.6017,3.5475,3.5376,3.5727,3.6545,3.6638,3.6451,0.0,0.0,0.0,0.0,0.0,0.0,0.0,0.0,0.0,0.0,0.0,0.0,0.0,0.0,0.0,0.0,0.0,0.0,0.0,0.0,0.0,-0.1859,-0.2406,-0.2721,-0.2865,-0.2893,-0.2545,-0.1765,-0.2223,-0.2444,-0.2407,-0.2695,-0.3033,-0.336,-0.3274,-0.3049,-0.2682,-0.2016,-0.1657,-0.152,0.0,0.0,0.0,0.0,0.0,0.0,0.0,0.0,0.0,0.0,0.5766,0.5987,0.6918,0.0,0.0,0.0,0.0,0.0,0.8692,0.9311,0.9872,0.971,0.9607,0.9717,1.0501,0.0,0.0,0.0,0.0,0.0,0.0,0.0,0.0,0.0,0.0,0.0,0.0,0.0,0.0,0.0,0.0,0.0,0.0,0.0,0.0,0.0,0.0,0.0,2.6225,2.6435,2.7055,2.8253,2.8668,2.9451,3.0747,3.0997,3.1244,3.1466,3.1329,3.1274,3.1312,3.1698,3.2072,3.2508,0.0,3.3768,3.4363,3.4207,3.4404,3.4778,3.4805,3.5054,3.5522,3.6521,3.6536,3.6138,0.0,0.0,0.0,0.0,0.0,0.0,0.0,0.0,0.0,0.0,0.0,0.0,0.0,0.0,0.0,0.0,0.0,0.0,0.0,0.0,-0.1034,-0.1436,-0.1749,-0.2004,-0.2235,-0.2488,-0.2048,-0.0954,-0.1075,-0.1213,-0.135,-0.159,-0.2003,-0.2537,-0.2306,-0.1794,-0.1074,-0.085,-0.0179,0.0716,0.0,0.0,0.0,0.0,0.0,0.0,0.0,0.0,0.0,0.0,0.0,0.0,0.0,0.0,0.0,0.934,0.9496,0.9599,1.0041,1.0391,1.0797,1.1466,0.0,1.1416,1.1724,0.0,0.0,0.0,0.0,0.0,0.0,0.0,0.0,0.0,0.0,0.0,0.0,0.0,0.0,0.0,0.0,0.0,0.0,0.0,0.0,0.0,0.0,0.0,2.6349,2.6428,2.7188,2.8723,2.8352,2.9016,3.0895,3.0241,3.0357,3.1295,3.1213,3.123,3.1291,3.1828,3.2139,3.231,3.2849,3.3189,3.3424,3.3503,3.3562,3.3581,3.4091,3.4606,3.5174,3.616,3.6112,3.5766,0.0,0.0,0.0,0.0,0.0,0.0,0.0,0.0,0.0,0.0,0.0,0.0,0.0,0.0,0.0,0.0,0.0,0.0,0.0,0.0,-0.009,-0.0135,-0.018,-0.0582,-0.1465,-0.2379,-0.2357,-0.1372,0.0711,0.1003,-0.0312,-0.0441,-0.0892,-0.1486,-0.0593,-0.0179,-0.0045,0.085,0.1254,0.1439,0.253,0.0,0.0,0.0,0.0,0.0,0.0,0.0,0.0,0.0,0.0,0.0,0.0,0.0,1.0064,1.1107,1.1534,1.161,1.1375,1.1931,1.254,1.2365,1.1765,0.0,1.2264,1.2628,0.0,0.0,0.0,0.0,0.0,0.0,0.0,0.0,0.0,0.0,0.0,0.0,0.0,0.0,0.0,0.0,0.0,0.0,0.0,0.0,0.0,0.0,2.6295,2.7123,2.7737,2.8066,2.866,2.9049,2.918,2.913,2.9827,3.1295,3.1213,3.119,3.123,3.1325,3.1359,3.1314,3.1409,3.2012,3.2882,3.2179,3.2693,3.3933,3.3665,3.4003,3.4719,3.5139,3.5238,3.5348,0.0,0.0,0.0,0.0,0.0,0.0,0.0,0.0,0.0,0.0,0.0,0.0,0.0,0.0,0.0,0.0,0.0,0.0,0.0,0.0,0.0,0.0,0.1166,0.1615,0.1299,0.1535,0.189,0.2281,0.2335,0.1997,0.1286,0.0783,0.0455,0.0375,0.0701,0.1208,0.1839,0.2201,0.2685,0.3256,0.3691,0.4348,0.0,0.0,0.0,0.0,0.0,0.0,0.0,0.0,0.8915,0.9169,0.0,1.0821,1.0889,1.1601,1.1859,1.1977,1.2157,1.2774,1.3351,1.3112,0.0,0.0,0.0,0.0,0.0,0.0,0.0,0.0,0.0,0.0,0.0,0.0,0.0,0.0,0.0,0.0,0.0,0.0,0.0,0.0,0.0,0.0,0.0,0.0,0.0,0.0,2.5997,2.6316,2.6878,2.7614,2.7463,2.7904,2.8975,2.8501,2.8808,2.9878,3.0332,3.0789,3.1274,3.1252,3.1389,3.1617,3.1582,3.1774,3.2145,3.2089,3.215,3.2315,3.2893,3.312,3.3318,3.4434,3.4516,3.4327,0.0,0.0,0.0,0.0,0.0,0.0,0.0,0.0,0.0,0.0,0.0,0.0,0.0,0.0,0.0,0.0,0.0,0.0,0.0,0.1254,0.076,0.0447,0.202,0.2915,0.2884,0.3374,0.3695,0.377,0.3398,0.2882,0.2255,0.2043,0.1904,0.1901,0.2067,0.2556,0.3194,0.3366,0.3802,0.442,0.467,0.5078,0.0,0.0,0.0,0.0,0.0,0.0,0.0,0.0,1.0072,0.0,0.0,0.0,0.0,0.0,1.254,1.2822,1.3256,1.3815,1.4272,0.0,0.0,0.0,0.0,0.0,0.0,0.0,0.0,0.0,0.0,0.0,0.0,0.0,0.0,0.0,0.0,0.0,0.0,0.0,0.0,0.0,0.0,0.0,0.0,0.0,0.0,0.0,0.0,2.5855,2.6283,2.7138,2.6686,2.7026,2.8247,2.774,2.7858,2.8619,2.9144,2.9926,3.0934,3.0874,3.1147,3.1691,3.16,3.1582,3.1714,3.2003,3.1913,3.1614,3.2259,3.2437,3.2475,3.3757,3.3825,3.3525,0.0,0.0,0.0,0.0,0.0,0.0,0.0,0.0,0.0,0.0,0.0,0.0,0.0,0.0,0.0,0.0,0.0,0.0,0.0,0.2881,0.2471,0.1433,0.2382,0.2884,0.2904,0.2178,0.194,0.22,0.3756,0.3788,0.2433,0.33,0.3419,0.2951,0.3517,0.3806,0.3862,0.4371,0.4625,0.4705,0.5517,0.6191,0.6791,0.0,0.0,0.0,0.0,0.0,0.0,0.0,1.0753,0.0,0.0,0.0,0.0,0.0,1.3909,1.4538,1.4744,1.5106,1.5431,0.0,0.0,0.0,0.0,0.0,0.0,0.0,0.0,0.0,0.0,0.0,0.0,0.0,0.0,0.0,0.0,0.0,0.0,0.0,0.0,0.0,0.0,0.0,0.0,0.0,0.0,0.0,0.0,2.5997,2.628,2.6691,2.6691,2.6691,2.6691,2.6691,2.7063,2.7772,2.7772,2.8619,3.0091,3.0108,3.0497,3.1173,3.119,3.1389,3.1677,3.1677,3.1932,3.2248,3.186,3.1967,3.2405,3.3178,3.3225,3.311,0.0,0.0,0.0,0.0,0.0,0.0,0.0,0.0,0.0,0.0,0.0,0.0,0.0,0.0,0.0,0.0,0.0,0.0,0.0,0.2918,0.2553,0.1787,0.2509,0.2909,0.2884,0.2864,0.2769,0.2558,0.429,0.4424,0.3031,0.3549,0.3647,0.342,0.3904,0.4211,0.4417,0.4872,0.5481,0.6112,0.6643,0.7275,0.7986,0.0,0.0,0.0,0.0,0.0,0.0,0.0,0.0,0.0,0.0,0.0,0.0,1.3065,1.3344,1.3525,1.3627,1.4365,0.0,0.0,0.0,0.0,0.0,0.0,0.0,0.0,0.0,0.0,0.0,0.0,0.0,0.0,0.0,0.0,0.0,0.0,0.0,0.0,0.0,0.0,0.0,0.0,0.0,0.0,0.0,0.0,0.0,2.5652,2.5872,2.628,2.628,2.6385,2.6691,2.6691,2.681,2.7029,2.7029,2.7824,2.933,2.9871,3.0343,3.0827,3.1322,3.162,3.1677,3.1677,3.175,3.1896,3.2074,3.2196,3.23,3.2264,3.2169,3.2214,0.0,0.0,0.0,0.0,0.0,0.0,0.0,0.0,0.0,0.0,0.0,0.0,0.0,0.0,0.0,0.0,0.0,0.0,0.0,0.0,0.2732,0.2324,0.2684,0.293,0.2941,0.3357,0.3429,0.3104,0.4361,0.4487,0.3599,0.3991,0.4043,0.3909,0.4578,0.5009,0.5208,0.5974,0.6661,0.724,0.7743,0.8261,0.8685,0.0,0.0,0.0,0.0,0.0,0.0,0.0,0.0,0.0,0.0,0.0,0.0,1.3836,1.419,1.4492,1.4846,0.0,0.0,0.0,0.0,0.0,0.0,0.0,0.0,0.0,0.0,0.0,0.0,0.0,0.0,0.0,0.0,0.0,0.0,0.0,0.0,0.0,0.0,0.0,0.0,0.0,0.0,0.0,0.0,0.0,0.0,2.5726,2.5908,2.6315,2.635,2.647,2.6691,2.6691,2.6691,2.6691,2.6691,2.7182,2.8112,2.9178,2.9935,3.0446,3.1199,3.1582,3.1677,3.1677,3.1787,3.1967,3.2214,3.2214,3.2039,3.1787,3.1677,3.1797,0.0,0.0,0.0,0.0,0.0,0.0,0.0,0.0,0.0,0.0,0.0,0.0,0.0,0.0,0.0,0.0,0.0,0.0,0.0,0.0,0.2912,0.2912,0.2957,0.3004,0.3111,0.3707,0.3926,0.3767,0.4137,0.424,0.404,0.4495,0.4631,0.4495,0.0,0.6003,0.627,0.7376,0.7971,0.8171,0.8795,0.9061,0.9159,0.9569,0.0,0.0,0.0,0.0,0.0,0.0,0.0,0.0,0.0,0.0,1.3884,1.4982,1.5772,1.6421,1.7164,0.0,0.0,0.0,0.0,0.0,0.0,0.0,0.0,0.0,0.0,0.0,0.0,0.0,0.0,0.0,0.0,0.0,0.0,0.0,0.0,0.0,0.0,0.0,0.0,0.0,0.0,0.0,0.0,0.0,0.0,2.6175,2.6315,2.6691,2.6691,2.6691,2.6691,2.6691,2.6691,2.6691,2.6691,2.6691,2.6742,2.8281,2.9468,3.0264,3.0925,3.1393,3.1627,3.1716,3.1915,3.2143,3.2213,3.2039,3.1677,3.1677,3.1677,3.1723,0.0,0.0,0.0,0.0,0.0,0.0,0.0,0.0,0.0,0.0,0.0,0.0,0.0,0.0,0.0,0.0,0.0,0.0,0.0,0.0,0.2912,0.2912,0.3262,0.3608,0.4017,0.4173,0.4215,0.4186,0.4479,0.449,0.0,0.0,0.0,0.5646,0.0,0.6881,0.761,0.8194,0.8574,0.8808,0.928,0.9725,1.0146,1.0506,1.0702,0.0,0.0,0.0,0.0,0.0,0.0,0.0,1.3873,1.4165,1.4212,1.4479,1.4903,1.5374,0.0,1.6391,0.0,0.0,0.0,0.0,0.0,0.0,0.0,0.0,0.0,0.0,0.0,0.0,0.0,0.0,0.0,0.0,0.0,0.0,0.0,0.0,0.0,0.0,0.0,0.0,0.0,0.0,0.0,0.0,2.6539,2.6573,2.6607,2.6691,2.6691,2.6691,2.6691,2.6691,2.6691,0.0,2.6691,2.6691,2.6742,2.8281,2.9853,3.1359,3.1514,3.1313,3.0904,3.1812,3.1708,3.1011,3.1581,3.1787,3.1677,3.1677,3.1524,3.1385,0.0,0.0,0.0,0.0,0.0,0.0,0.0,0.0,0.0,0.0,0.0,0.0,0.0,0.0,0.0,0.0,0.0,0.0,0.0,0.0,0.0,0.3214,0.37,0.4136,0.4622,0.4618,0.4836,0.5226,0.5334,0.0,0.0,0.0,0.0,0.6361,0.0,0.7836,0.8323,0.8838,0.9283,0.9681,0.988,1.0293,1.0804,1.0964,1.1108,1.1259,1.1819,0.0,0.0,0.0,0.0,0.0,0.0,0.0,1.4846,1.5107,1.541,1.5808,0.0,0.0,0.0,0.0,0.0,0.0,0.0,0.0,0.0,0.0,0.0,0.0,0.0,0.0,0.0,0.0,0.0,0.0,0.0,0.0,0.0,0.0,0.0,0.0,0.0,0.0,0.0,0.0,0.0,2.647,2.6691,2.6691,2.6691,2.6691,2.6691,2.6691,2.6691,2.6691,2.6691,2.6691,2.6691,2.6978,2.752,2.8698,2.9843,3.0919,3.1106,3.0955,3.0645,3.1237,3.0925,3.0145,3.1063,3.1062,3.0609,3.0609,3.085,3.1177,0.0,0.0,0.0,0.0,0.0,0.0,0.0,0.0,0.0,0.0,0.0,0.0,0.0,0.0,0.0,0.0,0.0,0.0,0.0,0.0,0.0,0.0,0.4224,0.4666,0.5183,0.5226,0.5572,0.6264,0.0,0.0,0.0,0.0,0.0,0.7053,0.0,0.8595,0.882,0.9287,0.9845,1.0403,1.0403,1.0804,1.136,1.136,1.141,1.156,1.2076,1.2274,1.2323,1.2958,0.0,0.0,0.0,0.0,1.5478,1.5908,1.6269,1.6595,0.0,0.0,0.0,0.0,0.0,0.0,0.0,0.0,0.0,0.0,0.0,0.0,0.0,0.0,0.0,0.0,0.0,0.0,0.0,0.0,0.0,0.0,0.0,0.0,0.0,0.0,0.0,0.0,0.0,2.6691,2.6691,2.6691,2.6691,2.6691,2.6691,2.6691,2.6691,2.6691,2.6691,2.6691,2.6691,2.7164,2.8063,2.9058,2.9729,3.0111,3.0434,3.0455,3.0231,3.0507,3.0058,2.9334,3.0524,3.03,2.9334,2.9472,3.0127,3.0855,0.0,0.0,0.0,0.0,0.0,0.0,0.0,0.0,0.0,0.0,0.0,0.0,0.0,0.0,0.0,0.0,0.0,0.0,0.4228,0.0,0.0,0.4792,0.4874,0.527,0.6007,0.605,0.6221,0.6641,0.0,0.0,0.0,0.0,0.0,0.8364,0.0,0.0,0.9489,0.954,0.9898,1.0403,1.0403,1.1006,1.1968,1.1968,1.2274,1.2725,1.2881,1.2881,1.2968,1.3941,1.434,0.0,0.0,0.0,1.5901,1.5869,1.6132,1.6522,0.0,0.0,0.0,0.0,0.0,0.0,0.0,0.0,0.0,0.0,0.0,0.0,0.0,0.0,0.0,0.0,0.0,0.0,0.0,0.0,0.0,0.0,0.0,0.0,0.0,0.0,0.0,0.0,2.6657,2.6691,2.6691,2.6691,2.6691,2.6691,2.6691,2.6691,2.6691,2.6691,2.6691,2.6691,2.6691,2.6775,2.6978,2.8716,2.9693,3.0031,3.0422,2.9851,2.8779,3.0058,2.9573,2.8201,2.99,2.9932,2.9138,2.9708,3.0058,3.0299,0.0,0.0,0.0,0.0,0.0,0.0,0.0,0.0,0.0,0.0,0.0,0.0,0.0,0.0,0.0,0.5009,0.4792,0.4705,0.4705,0.4927,0.5058,0.5009,0.5443,0.5836,0.6179,0.6392,0.6716,0.0,0.0,0.0,0.0,0.831,0.8442,0.0,0.0,0.0,0.0,0.0,1.0661,1.1679,1.1679,1.2379,1.3372,1.3113,1.3214,1.3478,1.322,1.322,1.3488,1.3931,1.4514,1.5062,1.54,0.0,0.0,0.0,1.5792,0.0,1.7146,0.0,0.0,0.0,0.0,0.0,0.0,0.0,0.0,0.0,0.0,0.0,0.0,0.0,0.0,0.0,0.0,0.0,0.0,0.0,0.0,0.0,0.0,0.0,0.0,0.0,0.0,0.0,2.6691,2.6691,2.6691,2.6691,2.6691,2.6691,2.6691,2.6691,2.6691,2.6691,2.6691,2.6691,2.7068,2.7164,2.7023,2.8268,2.88,2.8801,2.9627,2.9265,2.8152,2.9472,2.8888,2.7402,2.9419,2.9315,2.8116,2.9036,2.965,3.0145,0.0,0.0,0.0,0.0,0.0,0.0,0.0,0.0,0.0,0.0,0.0,0.0,0.0,0.0,0.0,0.0,0.5183,0.5183,0.5183,0.5501,0.5588,0.5313,0.5879,0.627,0.6441,0.6796,0.0,0.0,0.0,0.0,0.9224,0.9248,0.9227,0.0,0.9555,0.0,0.0,0.0,0.0,0.0,1.2852,1.3498,1.4341,1.401,1.3997,1.4025,1.3583,1.3631,1.3941,1.4107,1.4698,1.5389,1.5445,1.578,0.0,0.0,0.0,0.0,0.0,0.0,0.0,0.0,0.0,0.0,0.0,0.0,0.0,0.0,0.0,0.0,0.0,0.0,0.0,0.0,0.0,0.0,0.0,0.0,0.0,0.0,0.0,0.0,0.0,0.0,0.0,0.0,2.6758,2.6725,2.6825,2.6758,2.6691,2.6691,2.6691,2.6691,2.6691,2.6691,2.6758,2.6825,2.7258,2.7321,2.7103,2.7825,2.793,2.7571,2.8613,2.8528,2.7743,2.8973,2.8544,2.7317,2.9443,2.9266,2.7883,2.8837,2.9664,3.0402,0.0,0.0,0.0,0.0,0.0,0.0,0.0,0.0,0.0,0.0,0.0,0.0,0.0,0.568,0.568,0.568,0.568,0.568,0.568,0.568,0.5847,0.6136,0.6184,0.0,0.7125,0.7476,0.0,0.0,0.0,0.0,0.9182,0.946,0.985,1.032,1.0344,1.0352,1.047,0.0,0.0,0.0,0.0,0.0,0.0,0.0,1.4398,0.0,0.0,1.4258,1.4387,1.5028,1.5266,1.54,1.5812,1.5988,1.6001,0.0,0.0,0.0,0.0,0.0,0.0,0.0,0.0,0.0,0.0,0.0,0.0,0.0,0.0,0.0,0.0,0.0,0.0,0.0,0.0,0.0,0.0,0.0,0.0,0.0,0.0,0.0,0.0,0.0,0.0,0.0,2.6891,2.6825,2.7149,2.6858,2.6691,2.6691,2.6691,2.6691,2.6691,2.6691,2.6858,2.7181,2.6891,2.6758,2.6759,2.7469,2.7435,2.6793,2.7554,2.7657,2.7353,2.8851,2.8989,2.842,3.0311,3.0366,2.9419,2.9817,3.0454,3.1205,0.0,0.0,0.0,0.0,0.0,0.0,0.0,0.0,0.0,0.0,0.0,0.0,0.0,0.568,0.568,0.568,0.589,0.6013,0.6013,0.6221,0.6392,0.6513,0.6738,0.7042,0.7527,0.7865,0.0,0.0,0.0,0.9477,0.9977,1.0084,1.0395,1.0905,1.0549,1.0935,1.1886,1.2235,0.0,0.0,0.0,0.0,0.0,0.0,0.0,0.0,0.0,0.0,0.0,1.5299,1.5579,1.5913,1.5988,1.5988,1.6105,1.667,0.0,0.0,0.0,0.0,0.0,0.0,0.0,0.0,0.0,0.0,0.0,0.0,0.0,0.0,0.0,0.0,0.0,0.0,0.0,0.0,0.0,0.0,0.0,0.0,0.0,0.0,0.0,0.0,0.0,0.0,0.0,2.6758,2.6858,2.6758,2.6691,2.6691,2.6923,2.7021,2.7021,2.7227,2.7195,2.6891,2.6989,2.6923,2.6708,2.6962,2.6945,2.6708,2.6979,2.7284,2.7691,2.8973,2.9214,2.892,3.0539,3.0469,2.9626,3.0706,3.128,3.1631,0.0,0.0,0.0,0.0,0.0,0.0,0.0,0.0,0.0,0.0,0.0,0.0,0.0,0.0,0.6013,0.6013,0.6221,0.6349,0.6349,0.6556,0.6768,0.6859,0.7083,0.7389,0.7863,0.8106,0.8524,0.0,0.0,0.0,0.0,1.06,1.0956,1.151,1.1108,1.1618,0.0,0.0,0.0,1.5124,0.0,0.0,1.597,0.0,0.0,0.0,0.0,0.0,0.0,0.0,1.6269,1.6552,1.6509,0.0,0.0,0.0,0.0,0.0,2.0302,0.0,0.0,0.0,0.0,0.0,0.0,0.0,0.0,0.0,0.0,0.0,0.0,0.0,0.0,0.0,0.0,0.0,0.0,0.0,0.0,0.0,0.0,0.0,0.0,0.0,0.0,0.0,0.0,0.0,2.6858,2.6758,2.6758,2.6858,2.7085,2.7244,2.7369,2.7612,2.7454,2.6858,2.7212,2.7179,2.6691,2.6825,2.6791,2.6691,2.6825,2.7283,2.8032,2.9093,2.9593,2.9814,3.1062,3.1179,3.0742,3.1706,3.2138,3.2367,0.0,0.0,0.0,0.0,0.0,0.0,0.0,0.0,0.0,0.0,0.0,0.0,0.0,0.0,0.0,0.6683,0.6725,0.6725,0.6725,0.6725,0.6859,0.7216,0.7223,0.7545,0.8209,0.8224,0.8592,0.0,0.0,0.0,0.0,0.0,1.156,1.2126,1.2126,1.2347,1.2794,0.0,1.471,1.5727,0.0,1.6087,1.6474,0.0,0.0,0.0,1.6349,1.6522,0.0,1.7105,0.0,0.0,0.0,0.0,0.0,0.0,0.0,0.0,0.0,0.0,0.0,0.0,0.0,0.0,0.0,0.0,0.0,0.0,0.0,0.0,0.0,0.0,0.0,0.0,0.0,0.0,0.0,0.0,0.0,0.0,0.0,0.0,0.0,0.0,0.0,0.0,2.6891,2.6858,2.7181,2.6891,2.6891,2.7181,2.7213,2.7369,2.7672,2.774,2.7589,2.7198,2.7589,2.7402,2.6725,2.7053,2.7053,2.6758,2.7053,2.7644,2.842,2.9178,3.0091,3.1128,3.1949,3.2484,3.2759,3.2795,3.305,3.3393,0.0,0.0,0.0,0.0,0.0,0.0,0.0,0.0,0.0,0.0,0.0,0.0,0.0,0.0,0.6683,0.6683,0.6907,0.7083,0.7083,0.7286,0.7454,0.7552,0.781,0.8128,0.8546,0.9197,0.9681,1.0066,0.0,0.0,0.0,0.0,0.0,0.0,1.2676,1.3096,1.3811,1.3998,0.0,0.0,1.5796,1.6216,0.0,0.0,0.0,0.0,0.0,1.7076,1.7118,0.0,1.7312,1.7391,0.0,0.0,0.0,0.0,0.0,0.0,2.1799,0.0,0.0,0.0,0.0,0.0,0.0,0.0,0.0,0.0,0.0,0.0,0.0,0.0,0.0,0.0,0.0,0.0,0.0,0.0,0.0,0.0,0.0,0.0,0.0,0.0,0.0,0.0,2.6989,2.7085,2.7181,2.7321,2.7352,2.7213,2.743,2.7491,2.7338,2.7356,2.7194,2.6825,2.694,2.7006,2.7085,2.7278,2.737,2.7413,2.7276,2.8083,2.9473,2.8882,2.9126,2.9989,3.1288,3.1845,3.2041,3.2913,3.3286,3.3393,0.0,0.0,0.0,0.0,0.0,0.0,0.0,0.0,0.0,0.0,0.0,0.0,0.0,0.0,0.6943,0.7112,0.7167,0.7258,0.7377,0.7587,0.7712,0.7712,0.8026,0.8355,0.8677,0.9431,1.0011,1.0403,0.0,0.0,0.0,0.0,0.0,0.0,0.0,0.0,0.0,0.0,0.0,0.0,1.6376,0.0,0.0,1.7011,1.6934,0.0,0.0,0.0,1.753,1.7814,1.8098,0.0,0.0,0.0,0.0,0.0,0.0,0.0,0.0,0.0,0.0,0.0,0.0,0.0,2.3666,2.4006,2.442,0.0,0.0,0.0,0.0,0.0,0.0,0.0,0.0,0.0,0.0,0.0,0.0,0.0,0.0,0.0,0.0,2.6971,2.6989,2.71,2.7289,2.7338,2.7213,2.7522,2.7552,2.7213,2.74,2.74,2.7213,2.7379,2.7263,2.6923,2.7179,2.7358,2.74,2.7409,2.75,2.7701,2.7474,2.801,2.9,2.8448,2.9064,3.041,3.1266,3.1678,3.1972,3.3027,3.3393,3.3393,0.0,0.0,0.0,0.0,0.0,0.0,0.0,0.0,0.0,0.0,0.0,0.0,0.0,0.0,0.0,0.0,0.7525,0.7482,0.7779,0.7821,0.7843,0.788,0.8151,0.8458,0.8787,0.9393,0.9971,1.0506,0.0,0.0,0.0,0.0,0.0,0.0,0.0,0.0,0.0,0.0,0.0,1.7375,1.7248,1.7568,0.0,0.0,1.7282,1.7406,1.776,1.7882,1.7962,1.8503,1.9227,0.0,0.0,0.0,0.0,0.0,2.2278,0.0,0.0,0.0,0.0,0.0,0.0,0.0,2.4241,2.4567,2.4902,2.5351,0.0,0.0,0.0,0.0,0.0,0.0,0.0,0.0,0.0,0.0,0.0,0.0,0.0,0.0,2.7582,2.74,2.7369,2.7672,2.7701,2.7582,2.7276,2.7552,2.7522,2.7149,2.7181,2.7164,2.7149,2.7555,2.7538,2.7198,2.7861,2.8008,2.7701,2.7517,2.7548,2.7742,2.7713,2.7813,2.7924,2.8055,2.9333,3.1242,3.1451,3.1739,3.218,3.3067,3.3393,3.3393,0.7712,0.0,0.0,0.0,0.0,0.0,0.0,0.0,0.0,0.0,0.0,0.0,0.0,0.0,0.0,0.0,0.8211,0.8456,0.8494,0.8494,0.8619,0.8882,0.8955,0.9124,0.9424,1.0382,1.0906,1.1057,0.0,0.0,0.0,0.0,0.0,0.0,0.0,0.0,0.0,0.0,0.0,1.7921,1.7388,0.0,1.8007,1.7783,1.7935,1.8268,1.8361,1.8347,1.8386,1.8634,1.928,2.0045,0.0,0.0,0.0,0.0,0.0,0.0,0.0,0.0,0.0,0.0,0.0,0.0,2.3824,2.3994,2.423,0.0,0.0,0.0,0.0,0.0,0.0,0.0,0.0,0.0,0.0,0.0,0.0,0.0,0.0,0.0,2.7276,2.7491,2.7642,2.7701,2.7701,2.7672,2.7612,2.7654,2.7413,2.6825,2.7063,2.7063,2.6791,2.7137,2.7282,2.7213,2.7622,2.7757,2.7701,2.7659,2.7789,2.7992,2.78,2.8326,2.9323,2.8452,2.837,2.8933,3.0512,3.1165,3.1401,3.2868,3.3393,3.3393,0.7712,0.0,0.0,0.0,0.0,0.0,0.0,0.0,0.0,0.0,0.0,0.0,0.0,0.0,0.0,0.0,0.0,0.0,0.0,0.8692,0.8966,0.963,0.9815,1.0207,1.0842,1.1765,1.2236,1.2236,0.0,0.0,0.0,0.0,0.0,0.0,0.0,0.0,0.0,0.0,1.7831,1.7786,1.7939,0.0,1.8401,1.8275,1.8386,1.8595,1.8595,1.8736,1.8936,1.8927,1.9754,0.0,0.0,2.1783,2.2688,0.0,2.3008,2.3275,0.0,0.0,0.0,2.3538,0.0,0.0,0.0,2.4354,2.4502,2.5082,2.5198,0.0,0.0,0.0,0.0,0.0,0.0,0.0,0.0,0.0,0.0,0.0,0.0,0.0,2.7636,2.7811,2.7897,2.7897,2.7897,2.7754,2.7461,2.7461,2.7227,2.6725,2.6872,2.6935,2.6935,2.7126,2.7361,2.7666,2.7657,2.7853,2.8128,2.7824,2.7924,2.8326,2.8037,2.8379,2.9174,2.8585,2.8352,2.8478,2.9863,3.0387,3.0586,3.2198,3.2795,3.285,0.7712,0.0,0.0,0.0,0.0,0.0,0.0,0.0,0.0,0.0,0.0,0.0,0.0,0.0,0.0,0.0,0.0,0.0,0.0,0.0,0.0,1.0507,1.0802,1.1391,1.2244,1.2969,1.3304,1.3304,0.0,0.0,0.0,0.0,0.0,0.0,0.0,0.0,0.0,0.0,0.0,1.7738,0.0,1.8521,1.8367,1.8474,1.8542,1.8556,1.8711,1.8988,1.9295,1.9176,2.0215,2.1555,2.1465,2.2271,0.0,0.0,0.0,0.0,0.0,0.0,0.0,0.0,0.0,2.4385,0.0,0.0,0.0,2.5313,0.0,0.0,0.0,0.0,0.0,0.0,0.0,0.0,0.0,0.0,0.0,0.0,0.0,0.0,0.0,2.8102,2.8075,2.802,2.7964,2.7707,2.7244,2.7149,2.6989,2.6725,2.6691,2.6872,2.7213,2.7251,2.756,2.802,2.7899,2.8065,2.8414,2.8029,2.8082,2.8492,2.8228,2.8299,2.8587,2.8587,2.8587,2.8677,2.9481,2.9816,2.997,3.16,3.2198,3.2325,0.767,0.7712,0.0,0.0,0.0,0.0,0.0,0.0,0.0,0.0,0.0,0.0,0.0,0.0,0.0,0.0,0.0,0.0,1.0183,0.0,0.0,1.2129,1.2226,1.2479,1.2914,1.3139,1.3304,1.3304,0.0,0.0,0.0,0.0,0.0,0.0,1.7684,0.0,0.0,0.0,1.8814,0.0,1.8228,1.754,0.0,1.7611,1.7922,1.8002,1.863,1.8898,1.8974,0.0,2.0253,2.1475,0.0,2.2438,2.3797,2.3407,0.0,0.0,0.0,0.0,0.0,0.0,2.4261,0.0,0.0,0.0,2.4492,2.4902,0.0,0.0,0.0,0.0,0.0,0.0,0.0,0.0,0.0,0.0,0.0,0.0,0.0,0.0,0.0,2.8102,2.7992,2.7771,2.7474,2.7258,2.7213,2.6923,2.6725,2.6691,2.6691,2.6872,2.7213,2.749,2.7677,2.7742,2.8248,2.823,2.7836,2.8294,2.8369,2.8156,2.8129,2.8299,2.8587,2.8587,2.8587,2.8677,2.9481,2.9816,2.997,3.16,3.2198,3.2325,0.7644,0.7663,0.0,0.0,0.0,0.0,0.0,0.0,0.0,0.0,0.0,0.0,0.0,0.0,0.0,0.0,0.0,1.0138,0.0,0.0,0.0,0.0,0.0,0.0,1.4369,1.4497,1.4525,1.4525,1.476,0.0,0.0,0.0,0.0,0.0,1.8809,0.0,1.9384,0.0,1.8273,0.0,0.0,0.0,0.0,1.7841,1.8411,1.8592,1.8822,1.9432,2.0169,0.0,2.1188,0.0,0.0,0.0,0.0,0.0,0.0,0.0,0.0,0.0,0.0,0.0,0.0,0.0,2.4302,0.0,2.4343,0.0,0.0,0.0,0.0,0.0,0.0,0.0,2.6104,0.0,0.0,0.0,0.0,0.0,0.0,0.0,0.0,0.0,0.0,0.0,2.7276,2.7117,2.6923,2.6791,2.6691,2.6691,2.6691,2.6872,2.7213,2.7339,2.7512,2.7701,2.7964,2.8032,2.7971,2.8383,2.8532,2.8396,2.8396,2.8448,2.8587,2.8587,2.8587,2.8623,2.8974,2.9101,2.93,3.0912,3.1492,3.1691,0.7874,0.0,0.0,0.0,0.0,0.0,0.0,0.0,0.0,0.0,0.0,0.0,0.9614,0.9614,0.0,0.0,1.0087,1.0454,0.0,0.0,1.2475,0.0,0.0,0.0,0.0,0.0,1.5514,1.5642,1.5806,0.0,0.0,0.0,0.0,0.0,0.0,1.9397,1.942,0.0,0.0,1.7587,1.7068,1.7109,1.7576,1.8504,1.9069,1.9391,1.9628,2.0414,2.131,2.1182,2.2033,0.0,2.3326,0.0,0.0,0.0,0.0,0.0,2.4451,0.0,0.0,0.0,0.0,0.0,0.0,0.0,0.0,0.0,0.0,0.0,0.0,0.0,0.0,0.0,0.0,2.6367,0.0,0.0,0.0,0.0,0.0,0.0,0.0,0.0,0.0,2.7085,2.7149,2.7085,2.6858,2.6906,2.694,2.6826,2.6825,2.6952,2.7213,2.7192,2.7334,2.7631,2.7654,2.7826,2.8084,2.8425,2.8603,2.8587,2.8587,2.8587,2.8587,2.8587,2.8587,2.8587,2.8587,2.8739,2.9101,3.0477,3.1129,3.1528,0.8493,0.8594,0.0,0.0,0.0,0.0,0.0,0.0,0.0,0.0,0.0,0.0,0.0,0.0,0.0,0.0,0.0,1.06,1.115,0.0,1.2931,0.0,0.0,1.4301,0.0,0.0,1.5877,1.6255,1.6866,1.7146,0.0,0.0,0.0,0.0,0.0,1.846,1.892,1.8332,1.8279,1.8499,1.799,1.8601,1.9861,0.0,1.9591,2.0132,2.138,0.0,0.0,2.1963,2.2419,0.0,0.0,0.0,0.0,0.0,0.0,0.0,0.0,0.0,0.0,2.4302,0.0,0.0,0.0,0.0,2.4533,0.0,0.0,0.0,0.0,0.0,0.0,0.0,0.0,0.0,0.0,0.0,0.0,0.0,0.0,0.0,0.0,0.0,2.7085,2.6725,2.7021,2.7181,2.7181,2.7474,2.7535,2.7182,2.7173,2.7192,2.7213,2.7192,2.7251,2.7397,2.7596,2.7816,2.8013,2.8422,2.8605,2.8587,2.8587,2.8587,2.8587,2.8587,2.8587,2.8587,2.8587,2.9083,2.9844,3.0677,3.1492,3.227,0.9192,0.0,0.0,0.0,0.0,0.0,0.0,0.9614,0.0,0.0,0.0,0.0,0.0,0.9614,0.9718,0.0,0.0,1.1158,1.1769,1.2697,0.0,0.0,0.0,1.436,0.0,0.0,1.5572,1.6351,1.6559,1.7059,0.0,0.0,0.0,0.0,0.0,1.8639,0.0,0.0,0.0,0.0,0.0,1.9701,2.0518,0.0,0.0,2.1326,2.1747,2.2306,0.0,2.2845,2.3474,2.4295,2.4398,2.4595,2.4879,2.5351,2.5214,0.0,0.0,0.0,2.5082,2.5082,0.0,0.0,0.0,0.0,0.0,0.0,0.0,0.0,0.0,0.0,0.0,0.0,0.0,0.0,0.0,0.0,0.0,0.0,0.0,0.0,0.0,0.0,0.0,2.7053,2.7149,2.7307,2.7522,2.7227,2.7087,2.7206,2.699,2.6873,2.6872,2.71,2.7092,2.693,2.7459,2.7798,2.8013,2.843,2.8587,2.8587,2.8587,2.8587,2.8587,2.8587,2.8587,2.8587,2.8587,2.9427,3.055,3.0296,3.1039,3.2325,0.9562,0.0,0.0,0.0,0.0,0.0,0.0,0.0,0.0,0.0,0.9614,0.0,0.9614,0.0,1.0035,0.0,1.1108,1.1719,1.2076,1.2826,0.0,1.3521,1.379,0.0,0.0,0.0,0.0,1.6439,1.6658,1.7139,0.0,0.0,0.0,0.0,0.0,1.8257,1.8372,0.0,1.8481,0.0,0.0,2.0834,0.0,0.0,2.145,2.2104,0.0,2.3127,2.3696,2.3801,2.424,2.4759,2.5198,2.5137,2.5036,2.5726,2.554,2.5176,2.5615,2.5615,0.0,2.5503,2.5313,0.0,2.5427,0.0,0.0,0.0,0.0,0.0,0.0,0.0,0.0,0.0,0.0,0.0,0.0,2.686,0.0,0.0,0.0,0.0,0.0,0.0,2.7021,2.7021,2.7117,2.7307,0.0,0.0,2.7117,2.7213,2.6989,2.6891,2.6891,2.7375,2.7428,2.7061,2.7494,2.7879,2.8201,2.8474,2.8587,2.8587,2.8587,2.8587,2.8587,2.8587,2.8587,2.8587,2.8587,2.9409,3.0532,3.0296,3.1238,3.2705,0.9614,0.0,0.0,0.0,0.9614,0.0,0.0,0.0,0.9614,0.0,0.9614,0.9614,0.9614,1.0087,1.0403,1.0506,1.146,1.2126,1.2126,1.2627,0.0,0.0,1.3621,1.4058,1.498,0.0,0.0,1.6505,1.7071,1.7388,1.7412,0.0,0.0,0.0,1.6846,0.0,1.8347,1.7853,1.8747,2.0567,2.1213,2.2084,2.2944,2.2944,2.2709,2.256,2.3849,2.4302,2.4385,2.4744,2.4679,2.4614,2.5726,2.5313,2.4679,2.6245,2.5872,2.5121,2.5908,2.5835,2.5577,2.5577,0.0,0.0,0.0,0.0,2.5652,0.0,0.0,0.0,0.0,0.0,0.0,0.0,0.0,0.0,0.0,0.0,0.0,0.0,0.0,0.0,0.0,2.6725,2.6725,2.6725,2.7021,0.0,0.0,0.0,2.7574,2.7264,2.7267,2.7316,2.7316,2.8085,2.8211,2.7816,2.7776,2.8031,2.8587,2.8587,2.8587,2.8587,2.8587,2.8587,2.8587,2.8587,2.8587,2.8587,2.8587,2.9119,2.9952,3.0749,3.2035,3.3357,0.9562,0.9932,1.019,0.0,0.9873,0.9614,0.0,0.0,0.0,0.0,0.9614,0.9769,1.0138,1.03,1.0753,1.1569,1.1927,0.0,0.0,0.0,0.0,1.3563,1.3621,1.4041,1.5061,1.5211,0.0,1.6575,1.6728,1.7027,1.7412,0.0,0.0,0.0,0.0,0.0,1.8193,1.8316,1.9836,2.2305,2.2671,2.3102,0.0,0.0,2.3694,2.3498,2.4074,2.4492,2.4759,2.4863,2.5237,2.5689,2.598,2.5872,2.5799,2.6505,2.628,2.5908,2.6401,2.647,2.6385,2.6385,2.6175,2.6016,0.0,0.0,0.0,0.0,0.0,0.0,0.0,0.0,0.0,0.0,0.0,0.0,0.0,0.0,0.0,2.6759,0.0,0.0,2.6725,2.6923,2.7085,2.7085,2.7149,0.0,0.0,0.0,0.0,2.8008,2.8592,2.8919,2.8919,2.9031,2.92,2.9454,2.8721,2.8448,2.8587,2.8587,2.8587,2.8587,2.8587,2.8587,2.8587,2.8587,2.8587,2.8587,2.8587,2.9463,3.0785,3.16,3.2144,3.2596,0.9814,0.0,0.0,1.0753,0.0,0.0,0.9932,0.0,0.0,0.9614,0.9821,0.0,1.0661,1.0953,1.1479,1.2264,1.2426,0.0,1.2881,0.0,0.0,1.3894,1.4129,1.464,1.5379,1.5424,0.0,1.6236,0.0,0.0,1.6679,0.0,0.0,0.0,0.0,1.7226,0.0,1.9795,2.1374,2.2914,2.3488,2.384,0.0,2.4219,2.4177,2.4051,2.4219,2.4574,2.4942,2.5082,2.5465,2.5908,2.6245,2.6139,2.5944,2.6539,2.6436,2.6175,2.6573,2.6691,2.6691,2.6691,2.6539,2.6436,2.6657,2.6539,2.6436,0.0,0.0,0.0,0.0,0.0,0.0,0.0,0.0,0.0,0.0,0.0,0.0,0.0,2.7351,0.0,2.6759,2.7021,2.7149,2.6989,2.6989,0.0,0.0,0.0,0.0,2.7801,2.8575,2.8965,2.8886,2.9377,2.9554,2.9449,2.9365,2.9047,2.8587,2.8587,2.8587,2.8587,2.8587,2.8587,2.8623,2.8993,2.9119,2.9156,2.9518,3.0423,3.1582,3.2035,3.2415,3.2795,1.0226,0.0,0.0,0.0,0.0,0.0,0.0,1.0079,0.0,0.9718,0.0,1.0793,1.126,1.1885,1.242,1.2874,0.0,1.3096,1.3185,1.3565,1.3994,1.4496,1.4971,1.5404,1.5792,1.5881,1.5881,0.0,0.0,0.0,0.0,0.0,0.0,0.0,0.0,0.0,0.0,2.1689,2.2903,2.3065,2.3948,2.4302,2.4302,2.4302,2.4343,2.4385,2.4385,2.4639,2.502,2.5389,2.5577,2.5799,2.647,2.621,2.5799,2.6505,2.647,2.6245,2.6624,2.6691,2.6691,2.6691,2.6691,2.6691,2.6691,2.6691,2.6725,2.6758,2.6989,2.7247,0.0,0.0,0.0,0.0,0.0,0.0,0.0,0.0,0.0,0.0,0.0,0.0,2.6759,2.6956,2.7021,2.6725,0.0,0.0,0.0,0.0,0.0,2.7319,2.8107,2.8446,2.8294,0.0,2.9574,2.8815,2.9616,2.9489,2.8587,2.8587,2.8587,2.8587,2.8587,2.8641,2.8811,2.95,2.9844,3.0025,3.0822,3.1582,3.2216,3.2325,3.2795,3.3393,0.0,0.0,0.0,0.0,0.0,1.1819,1.1819,1.0905,1.0241,1.0241,1.1058,1.1852,1.2341,1.2839,1.329,1.3801,1.3902,0.0,0.0,0.0,0.0,1.5597,1.5728,1.5765,1.5804,1.6175,1.6392,0.0,0.0,0.0,0.0,0.0,0.0,0.0,0.0,0.0,2.1212,2.2337,0.0,2.405,2.4214,2.4302,2.4302,2.4302,2.4492,2.4784,2.4784,2.5044,2.5427,2.5465,2.5944,2.6505,2.6657,2.6624,2.6505,2.6657,2.6657,2.6607,2.6691,2.6691,2.6691,2.6691,2.6691,2.6691,2.6691,2.6691,2.6791,2.7053,2.7149,2.7497,2.8421,0.0,0.0,0.0,0.0,0.0,0.0,0.0,0.0,0.0,0.0,2.7445,0.0,2.6758,0.0,0.0,0.0,0.0,0.0,0.0,0.0,0.0,2.9147,0.0,0.0,0.0,2.9748,2.9907,2.9204,2.8793,2.8587,2.8587,2.8587,2.8587,2.8587,2.8993,2.959,2.9735,3.017,3.0858,3.1673,3.2071,3.227,3.294,3.3284,3.3393,0.0,0.0,0.0,0.0,0.0,0.0,0.0,1.2263,0.0,1.1264,1.1861,1.2608,1.3295,1.3594,1.3949,1.4398,1.4526,1.4704,1.5008,1.5566,1.5987,1.6305,1.6812,0.0,1.7057,1.7543,1.781,1.781,0.0,0.0,0.0,0.0,0.0,0.0,0.0,2.0454,0.0,0.0,0.0,2.4051,2.4219,2.4302,2.4302,2.4302,2.4533,2.4902,2.4902,2.5275,2.5799,2.5799,2.621,2.6691,2.6691,2.6691,2.6691,2.6691,2.6691,2.6691,2.6691,2.6691,2.6691,2.6691,2.6691,2.6758,2.6923,2.6956,2.7156,2.7935,2.8189,2.8705,3.0057,3.0762,0.0,0.0,0.0,0.0,0.0,0.0,0.0,0.0,0.0,0.0,0.0,0.0,0.0,0.0,0.0,0.0,0.0,0.0,0.0,0.0,0.0,0.0,0.0,0.0,0.0,2.9359,2.8845,2.8616,2.8587,2.8587,2.8587,2.8587,2.8587,2.9065,2.9844,3.0695,3.151,3.227,3.2669,3.2814,3.2868,3.3266,3.3393,3.3393,0.0,1.3023,0.0,0.0,1.3537,0.0,1.3467,1.3467,1.314,1.2299,1.2759,1.3427,1.4082,1.4275,1.4541,1.4893,1.5127,1.5341,1.5447,1.6542,1.7178,1.7173,1.8078,1.8516,1.8389,1.8898,1.9125,0.0,0.0,0.0,0.0,0.0,0.0,0.0,0.0,0.0,0.0,0.0,2.3839,2.3925,2.4177,2.4302,2.4302,2.4302,2.4599,2.502,2.502,2.554,2.6245,2.6245,2.6436,2.6691,2.6691,2.6691,2.6691,2.6691,2.6691,2.6691,2.6691,2.6691,2.6691,2.6691,2.6691,2.6791,2.7117,2.7333,2.7736,2.878,2.9478,3.0259,3.1385,3.159,0.0,0.0,0.0,0.0,0.0,0.0,0.0,0.0,0.0,0.0,2.739,0.0,0.0,0.0,0.0,0.0,0.0,0.0,0.0,0.0,0.0,2.8986,2.9355,0.0,2.943,2.8999,2.9071,2.9024,2.8866,2.8866,2.8866,2.8866,2.8866,2.9409,3.0405,3.1854,3.2832,3.3393,3.3393,3.3393,3.3393,3.3393,3.3393,3.3393,0.0,0.0,0.0,0.0,0.0,0.0,1.4024,1.4024,1.3844,1.3258,1.4022,1.4632,1.4719,1.5088,1.5312,1.5352,1.5877,1.6402,1.6949,1.807,1.8721,1.8772,1.9333,1.9433,1.8957,1.9364,1.9646,0.0,0.0,1.9601,0.0,0.0,0.0,0.0,0.0,0.0,0.0,2.3739,2.3967,2.4261,2.4317,2.4302,2.4302,2.4302,2.4799,2.5465,2.5465,2.5944,2.6657,2.6657,2.6657,2.6691,2.6691,2.6691,2.6691,2.6691,2.6691,2.6691,2.6691,2.6691,2.6691,2.6691,2.6691,2.6791,2.7117,2.7762,2.8488,2.9118,3.0689,3.1867,3.166,3.2475,3.3105,0.0,0.0,0.0,0.0,0.0,0.0,0.0,0.0,0.0,0.0,2.71,0.0,0.0,2.6858,0.0,0.0,0.0,0.0,2.8163,0.0,2.9082,2.9486,2.9841,3.0125,3.0337,3.063,3.0387,2.9681,2.9681,2.9681,2.9681,2.9681,3.055,3.2035,3.2922,3.3339,3.3393,3.3393,3.3393,3.3393,3.3393,3.3393,3.3393,0.0,0.0,0.0,0.0,0.0,0.0,0.0,1.4902,1.479,1.461,1.4722,1.4883,1.5127,1.5312,1.5526,1.5911,1.6472,1.7246,1.8155,1.898,1.9583,1.9937,2.0466,2.0649,2.0469,2.1153,2.1516,0.0,0.0,0.0,0.0,0.0,0.0,0.0,0.0,2.3809,2.4173,2.412,2.4436,2.4981,2.4492,2.4451,2.4639,2.4639,2.502,2.554,2.5762,2.621,2.6691,2.6691,2.6691,2.6691,2.6691,2.6691,2.6691,2.6691,2.6691,2.6691,2.6691,2.6691,2.6758,2.6956,2.6989,2.7252,2.8245,2.8699,2.9343,3.0733,3.2022,3.2875,3.2709,3.2883,3.3068,0.0,0.0,0.0,0.0,0.0,0.0,0.0,0.0,0.0,0.0,0.0,0.0,0.0,0.0,0.0,0.0,0.0,0.0,2.7998,0.0,3.0084,3.052,3.0617,3.1175,3.2231,3.1419,3.0994,3.0975,3.016,3.0043,3.0532,3.1021,3.16,3.2252,3.3067,3.3393,3.3393,3.3393,3.3393,3.3393,3.3393,3.3719,3.4117,1.3765,0.0,1.4971,0.0,1.5215,1.541,1.541,1.541,1.541,1.541,1.5318,1.5305,1.5381,1.5575,1.5864,1.6244,1.7034,1.7841,1.885,1.9619,2.0258,2.0809,2.1361,0.0,2.1779,2.2388,2.2754,2.2889,2.2512,0.0,0.0,0.0,0.0,0.0,2.3979,2.4338,2.4712,2.4558,2.4784,2.5275,2.4574,2.4533,2.4902,2.4902,2.5198,2.5726,2.598,2.635,2.6691,2.6691,2.6691,2.6691,2.6691,2.6691,2.6691,2.6691,2.6691,2.6691,2.6691,2.6691,2.6791,2.7117,2.7213,2.756,2.8987,2.9487,3.0198,3.2141,3.2995,3.3393,3.3393,3.3178,3.3068,3.3364,0.0,0.0,0.0,0.0,0.0,0.0,2.9898,2.8855,2.8495,2.8088,0.0,0.0,0.0,0.0,0.0,0.0,0.0,0.0,0.0,0.0,3.1638,3.1667,3.2296,3.3382,3.2244,3.1773,3.1883,3.0939,3.0803,3.1401,3.2198,3.2542,3.2596,3.3176,3.3393,3.3393,3.3393,3.3393,3.3429,3.3665,3.4117,3.4643,1.5139,1.54,1.54,1.54,1.541,1.541,1.541,1.541,1.541,1.541,1.5911,1.6083,1.5468,1.5921,1.6312,1.6312,1.7424,1.8298,1.885,1.9965,2.0809,0.0,0.0,2.2356,2.2663,2.2694,2.2889,2.3275,0.0,0.0,2.3319,0.0,2.4021,2.4389,2.4744,2.5121,2.5465,2.5059,2.4902,2.4863,2.4451,2.4533,2.4902,2.4902,2.5389,2.6087,2.6104,2.635,2.6691,2.6691,2.6691,2.6691,2.6691,2.6691,2.6691,2.6691,2.6691,2.6691,2.6691,2.6691,2.6791,2.7117,2.7213,2.756,2.8987,2.9915,3.104,3.2972,3.3393,3.3393,3.3393,3.3411,3.3393,3.3393,0.0,0.0,0.0,0.0,0.0,3.163,3.0645,2.9792,2.9318,2.8669,0.0,0.0,0.0,0.0,0.0,0.0,0.0,2.9948,3.1071,0.0,3.2674,3.3124,3.3375,3.3393,3.3375,3.2958,3.218,3.218,3.218,3.2234,3.3049,3.3393,3.3393,3.3393,3.3393,3.3393,3.3393,3.3393,3.3502,3.4298,3.4606,3.4715,1.4678,1.5118,1.541,1.541,1.541,1.541,1.541,1.541,1.5526,1.5968,1.6197,1.6358,1.6585,1.681,1.7246,0.0,1.8424,1.9218,0.0,2.0957,2.1361,2.1949,2.2137,2.2356,2.2694,2.2979,2.3304,2.3668,0.0,0.0,0.0,2.4048,2.4405,2.4768,2.5121,2.554,2.5872,2.5465,2.5465,2.5689,2.5275,2.5198,2.5351,2.5615,2.5872,2.6139,2.6385,2.6573,2.6691,2.6691,2.6691,2.6691,2.6691,2.6691,2.6691,2.6691,2.6691,2.6691,2.6691,2.6858,2.7117,2.7461,2.8099,2.8947,3.0168,3.1495,3.2642,3.3255,3.3393,3.3393,3.3393,3.3393,3.3393,3.3393,3.3393,0.0,0.0,0.0,0.0,0.0,3.1211,3.0391,2.9701,2.924,0.0,0.0,0.0,0.0,0.0,0.0,0.0,0.0,3.2143,0.0,3.2706,3.316,3.3393,3.3393,3.3408,3.299,3.2216,3.2777,3.3013,3.3031,3.3284,3.3393,3.3393,3.3393,3.3393,3.3393,3.3393,3.3393,3.3502,3.4298,3.495,3.553,1.4715,1.5128,1.5362,1.5303,1.5362,1.5468,1.569,1.5748,1.5968,1.6585,1.6866,1.7191,1.7786,1.8058,0.0,1.885,1.9282,2.0067,2.1326,2.1423,2.1664,2.2184,2.231,2.2586,2.2934,2.3304,0.0,2.4009,2.4009,2.4078,2.423,2.4297,2.4728,2.5351,2.5465,2.5799,2.628,2.5908,2.5872,2.6052,2.5652,2.5577,2.5762,2.6016,2.621,2.635,2.6624,2.6691,2.6691,2.6691,2.6691,2.6691,2.6691,2.6691,2.6691,2.6691,2.6791,2.6891,2.6891,2.7132,2.7513,2.8153,2.8809,2.9669,3.1128,3.2451,3.3393,3.3393,3.3393,3.3393,3.3393,3.3393,3.3393,3.3393,3.3393,3.3393,3.3393,0.0,0.0,0.0,0.0,0.0,0.0,3.0288,3.0214,0.0,0.0,0.0,0.0,0.0,0.0,3.156,3.2751,0.0,3.2983,3.3268,3.3393,3.3393,3.3379,3.3125,3.2669,3.3176,3.3393,3.3393,3.3393,3.3393,3.3393,3.3393,3.3393,3.3393,3.3393,3.3393,3.3538,3.4643,3.5385,3.5965,1.5088,1.5313,1.5362,0.0,1.5313,0.0,1.6197,1.6312,1.6528,1.7202,1.7754,1.8352,1.8915,1.9515,1.967,1.9113,0.0,0.0,0.0,2.1471,2.1664,2.2184,2.2526,2.2889,2.3275,2.3625,2.3952,2.4302,2.4343,2.4533,2.4902,2.4558,2.5005,2.6087,2.5726,2.598,2.6691,2.628,2.6139,2.6068,2.5726,2.5799,2.6104,2.6123,2.635,2.6691,2.6691,2.6691,2.6691,2.6691,2.6691,2.6691,2.6725,2.6725,2.6725,2.6725,2.6956,2.7213,2.7244,2.7526,2.8047,2.9045,2.9397,2.9983,3.1852,3.2868,3.3393,3.3393,3.3393,3.3393,3.3393,3.3393,3.3393,3.3393,3.3393,3.3393,3.3393,0.0,0.0,0.0,0.0,0.0,0.0,3.1648,3.1482,0.0,0.0,0.0,0.0,0.0,3.1618,3.2242,3.3013,3.3393,3.3393,3.3393,3.3393,3.3393,3.3393,3.3393,3.3393,3.3393,3.3393,3.3393,3.3393,3.3393,3.3393,3.3393,3.3393,3.3393,3.3393,3.3429,3.3665,3.524,3.5856,3.6109,0.0,0.0,1.5264,1.5215,1.5313,1.5575,1.6197,1.6312,1.6698,1.7754,1.8394,1.8915,1.9527,2.0459,2.0957,2.0845,2.1055,2.1458,2.1996,2.1996,2.2091,2.2184,2.2526,2.2889,2.3275,2.3625,2.3952,2.4302,2.4614,2.4799,2.4902,2.5427,2.5835,2.6104,2.6315,2.6505,2.6691,2.6624,2.6385,2.6139,2.6315,2.628,2.6123,2.6436,2.6624,2.6691,2.6691,2.6691,2.6691,2.6691,2.6691,2.6758,2.6989,2.7085,2.7085,2.7085,2.7149,2.7244,2.7522,2.8253,2.8963,2.9244,3.0427,3.1787,3.2886,3.3266,3.3393,3.3393,3.3393,3.3393,3.3393,3.3393,3.3393,3.3393,3.3393,3.3393,3.3393,3.3393,0.0,0.0,3.3256,3.2931,3.2137,3.2047,3.1899,0.0,0.0,0.0,0.0,3.2495,3.2639,3.3121,3.3302,3.3393,3.3393,3.3393,3.3393,3.3393,3.3393,3.3393,3.3393,3.3393,3.3393,3.3393,3.3393,3.3393,3.3393,3.3393,3.3393,3.3393,3.3393,3.3791,3.4443,3.5439,3.62,3.6852,1.497,1.5098,1.5215,1.5215,1.5536,1.6026,1.6641,1.6922,1.7523,1.8727,1.915,1.9619,2.0459,2.1068,2.152,2.1746,2.1746,2.1902,2.2184,2.2184,2.2278,2.2434,2.2754,2.3172,2.3523,2.3882,2.4204,2.4558,2.4784,2.5098,2.5465,2.5726,2.6016,2.6367,2.6385,2.6539,2.6691,2.6691,2.6573,2.6385,2.6607,2.659,2.6401,2.6624,2.6691,2.6691,2.6691,2.6691,2.6691,2.6691,2.6691,2.6758,2.7085,2.7213,2.7244,2.7517,2.7882,2.8193,2.837,2.9244,3.0168,3.0528,3.1704,3.2868,3.3302,3.3393,3.3393,3.3393,3.3393,3.3393,3.3393,3.3393,3.3393,3.3393,3.3393,3.3393,3.3393,3.3393,0.0,3.3393,3.3393,3.323,3.2795,3.2741,3.2665,3.2451,3.2421,0.0,3.305,3.3068,3.3178,3.3393,3.3393,3.3393,3.3393,3.3393,3.3393,3.3393,3.3393,3.3393,3.3393,3.3393,3.3393,3.3393,3.3393,3.3393,3.3393,3.3393,3.3393,3.3447,3.381,3.4226,3.4751,3.591,3.6616,3.7138,1.497,1.5088,1.5215,1.5323,1.5874,1.6528,1.7257,1.7754,1.8525,1.9643,1.985,2.0308,2.1264,2.1471,2.1712,2.2184,2.2184,2.2217,2.2263,2.2278,2.2449,2.2799,2.3172,2.3494,2.3797,2.4135,2.4492,2.4902,2.4981,2.5389,2.6087,2.5799,2.6068,2.6691,2.635,2.6385,2.6691,2.6691,2.6691,2.6691,2.6691,2.6691,2.6691,2.6691,2.6691,2.6691,2.6691,2.6691,2.6691,2.6691,2.6725,2.6825,2.7181,2.7289,2.7461,2.8162,2.8935,2.9526,2.94,3.0278,3.1365,3.218,3.2886,3.3393,3.3393,3.3393,3.3393,3.3393,3.3393,3.3393,3.3393,3.3393,3.3393,3.3393,3.3393,3.3393,3.3393,0.0,3.3393,3.3393,3.3393,3.3393,3.3393,3.3393,3.3393,3.3393,3.3393,3.3393,3.3393,3.3393,3.3393,3.3393,3.3393,3.3393,3.3393,3.3393,3.3393,3.3393,3.3393,3.3393,3.3393,3.3393,3.3393,3.3393,3.3393,3.3393,3.3393,3.3393,3.3465,3.3647,3.4335,3.4751,3.5131,3.649,3.7102,3.7268,1.4775,1.4961,1.5381,1.5884,1.6151,1.6698,1.782,1.8038,1.8525,1.9643,2.0207,2.0709,2.1313,2.1793,2.2137,2.2184,2.2184,2.231,2.2618,2.2603,2.2799,2.3172,2.3538,2.3754,2.3797,2.4135,2.4492,2.4902,2.5237,2.5652,2.6104,2.6385,2.6573,2.6691,2.6624,2.6657,2.6691,2.6691,2.6691,2.6691,2.6691,2.6691,2.6691,2.6691,2.6691,2.6691,2.6691,2.6691,2.6691,2.6691,2.6891,2.7181,2.7522,2.7783,2.8172,2.9215,3.0098,3.0586,2.9899,3.083,3.2198,3.3013,3.3302,3.3393,3.3393,3.3393,3.3393,3.3393,3.3393,3.3393,3.3393,3.3393,3.3393,3.3393,3.3393,3.3393,3.3393,0.0,3.3393,3.3393,3.3393,3.3393,3.3393,3.3393,3.3393,3.3393,3.3393,3.3393,3.3393,3.3393,3.3393,3.3393,3.3393,3.3393,3.3393,3.3393,3.3393,3.3393,3.3393,3.3393,3.3393,3.3393,3.3393,3.3393,3.3393,3.3393,3.3393,3.3393,3.381,3.4443,3.4552,3.5421,3.6653,3.6888,3.7413,3.8011,1.5352,1.5594,1.5884,1.6539,1.6978,1.7479,1.8038,1.8632,1.9319,2.0105,2.0709,2.1264,2.1746,2.2044,2.2184,2.2184,2.2356,2.2632,2.2979,2.2844,2.2979,2.3523,2.3711,2.3882,2.4051,2.4451,2.4823,2.5198,2.5615,2.6016,2.6436,2.6607,2.6691,2.6691,2.6691,2.6691,2.6691,2.6691,2.6691,2.6691,2.6691,2.6691,2.6691,2.6691,2.6691,2.6691,2.6691,2.6691,2.6725,2.6923,2.7085,2.7258,2.7754,2.7992,2.8317,2.9457,3.0677,3.1655,3.1709,3.227,3.294,3.3302,3.3393,3.3393,3.3393,3.3393,3.3393,3.3393,3.3393,3.3393,3.3393,3.3393,3.3393,3.3393,3.3393,0.0,0.0,3.3393,3.3393,3.3393,3.3393,3.3393,3.3393,3.3393,3.3393,3.3393,3.3393,3.3393,3.3393,3.3393,3.3393,3.3393,3.3393,3.3393,3.3393,3.3393,3.3393,3.3411,3.3846,3.4063,3.4063,3.4516,3.4697,3.4697,3.4697,3.4697,3.4697,3.4697,3.4914,3.5294,3.5711,3.6345,3.7065,3.7468,3.7866,3.8192,1.5941,1.6218,1.6606,1.7313,1.782,1.8147,1.8309,1.9162,2.0003,2.051,2.1068,2.1616,2.2137,2.2184,2.2217,2.231,2.2572,2.2889,2.3392,2.3113,2.3246,2.3882,2.3925,2.4078,2.441,2.4759,2.5121,2.5652,2.5944,2.6315,2.6691,2.6691,2.6691,2.6691,2.6691,2.6691,2.6691,2.6691,2.6691,2.6691,2.6691,2.6691,2.6691,2.6691,2.6691,2.6691,2.6691,2.6758,2.6858,2.7117,2.7289,2.7487,2.7946,2.8282,2.8712,2.9773,3.122,3.2614,3.323,3.3393,3.3393,3.3393,3.3393,3.3393,3.3393,3.3393,3.3393,3.3393,3.3393,3.3393,3.3393,3.3393,3.3393,3.3393,0.0,0.0,0.0,3.3393,3.3393,3.3393,3.3393,3.3393,3.3393,3.3393,3.3393,3.3393,3.3393,3.3393,3.3393,3.3393,3.3393,3.3393,3.3393,3.3393,3.3393,3.3785,3.3785,3.3411,3.4407,3.4787,3.4643,3.5439,3.582,3.582,3.582,3.582,3.582,3.582,3.5928,3.6146,3.6743,3.7087,3.7359,3.8174,3.8355,3.8246,1.6114,1.6652,1.7313,1.7929,1.8093,1.8309,1.8881,1.9448,2.0003,2.051,2.1068,2.1616,2.2137,2.2184,2.231,2.2663,2.2709,2.3009,2.3696,2.3754,2.3882,2.4261,2.4261,2.4451,2.4823,2.4863,2.5275,2.6068,2.6104,2.6315,2.6691,2.6691,2.6691,2.6691,2.6691,2.6691,2.6691,2.6691,2.6691,2.6691,2.6691,2.6691,2.6691,2.6691,2.6691,2.6691,2.6691,2.6891,2.7181,2.7181,2.7577,2.8047,2.8102,2.8811,2.9844,3.0659,3.2053,3.3321,3.3375,3.3393,3.3393,3.3393,3.3393,3.3393,3.3393,3.3393,3.3393,3.3393,3.3393,3.3393,3.3393,3.3393,3.3393,3.3393,0.0,0.0,3.3393,3.3393,3.3393,3.3393,3.3393,3.3393,3.3393,3.3393,3.3393,3.3393,3.3393,3.3393,3.3393,3.3393,3.3393,3.3393,3.3393,3.3393,3.3393,3.4879,3.4861,3.3429,3.4969,3.5331,3.4643,3.5439,3.582,3.582,3.582,3.582,3.582,3.582,3.6236,3.6906,3.6993,3.7449,3.8192,3.9007,3.8826,3.8391,1.7157,1.7545,1.7929,1.8536,1.8655,1.8869,1.9396,1.9952,2.051,2.1019,2.1554,2.1996,2.2184,2.2402,2.2572,2.2694,2.3113,2.3523,2.3782,2.4009,2.4177,2.4302,2.4533,2.4744,2.4902,2.5389,2.5799,2.6104,2.6367,2.6539,2.6691,2.6691,2.6691,2.6691,2.6691,2.6691,2.6691,2.6691,2.6691,2.6691,2.6691,2.6691,2.6691,2.6691,2.6691,2.6725,2.6923,2.7085,2.7276,2.7619,2.7908,2.8201,2.8928,2.9439,3.0043,3.1347,3.2524,3.3393,3.3393,3.3393,3.3393,3.3393,3.3393,3.3393,3.3393,3.3393,3.3393,3.3393,3.3393,3.3393,3.3393,3.3393,3.3393,3.3393,0.0,3.3393,3.3393,3.3393,3.3393,3.3393,3.3393,3.3393,3.3393,3.3393,3.3393,3.3393,3.3393,3.3393,3.3393,3.3882,3.3918,3.3429,3.4039,3.431,3.4154,3.4921,3.5157,3.4914,3.6019,3.6381,3.6109,3.6924,3.7286,3.7286,3.7286,3.7286,3.7286,3.7286,3.7468,3.7721,3.7721,3.8228,3.8971,3.9278,3.9496,3.9713,1.7929,1.8267,1.8483,1.8934,1.8987,1.9198,1.9695,2.0258,2.0809,2.1313,2.1841,2.2217,2.2356,2.2572,2.2785,2.3024,2.3523,2.3839,2.3967,2.4177,2.4343,2.4492,2.4759,2.502,2.5275,2.5835,2.6175,2.628,2.6573,2.6691,2.6691,2.6691,2.6691,2.6691,2.6691,2.6691,2.6691,2.6691,2.6691,2.6691,2.6691,2.6691,2.6691,2.6691,2.6758,2.6891,2.7117,2.7321,2.7547,2.7964,2.8344,2.8775,2.9538,2.9979,3.0423,3.1799,3.2596,3.3013,3.3013,3.3212,3.3393,3.3393,3.3393,3.3393,3.3393,3.3393,3.3393,3.3393,3.3393,3.3393,3.3393,3.3393,3.3393,3.3393,3.361,3.3791,3.3791,3.3791,3.3882,3.4117,3.393,3.3876,3.4135,3.4166,3.4057,3.381,3.4009,3.4154,3.4154,3.4679,3.463,3.3942,3.4798,3.525,3.5209,3.5755,3.5955,3.582,3.687,3.7232,3.7047,3.7812,3.8337,3.8572,3.8572,3.8572,3.859,3.8826,3.8627,3.821,3.8464,3.8898,3.9423,3.9659,4.0075,4.0582,1.8093,1.859,1.8987,1.8987,1.8987,1.9198,1.9695,2.0258,2.0822,2.1326,2.1841,2.231,2.2649,2.2694,2.3009,2.3754,2.3797,2.3967,2.4261,2.4302,2.4492,2.4863,2.4902,2.5275,2.6087,2.6104,2.628,2.6691,2.6691,2.6691,2.6691,2.6691,2.6691,2.6691,2.6691,2.6691,2.6691,2.6691,2.6691,2.6691,2.6691,2.6691,2.6691,2.6691,2.6923,2.7213,2.7213,2.7607,2.8102,2.8102,2.8874,2.9771,2.9816,3.0333,3.1148,3.1962,3.2198,3.2198,3.2198,3.2795,3.3393,3.3393,3.3393,3.3393,3.3393,3.3393,3.3393,3.3393,3.3393,3.3393,3.3393,3.3393,3.3393,3.3393,3.4081,3.4606,3.4606,3.4606,3.4914,3.5711,3.5097,3.4927,3.5729,3.5792,3.5478,3.4679,3.5367,3.582,3.582,3.582,3.5571,3.5024,3.5521,3.6059,3.6638,3.7657,3.7398,3.5856,3.7431,3.7775,3.7065,3.783,3.8645,3.9405,3.9405,3.9405,3.946,4.0202,3.9604,3.8282,3.9097,3.9405,3.9514,4.0256,4.0528,4.0763,1.8655,1.8881,1.8987,1.8987,1.9291,1.9747,2.0258,2.0809,2.1361,2.1902,2.231,2.2572,2.2694,2.3157,2.3566,2.3782,2.4009,2.4177,2.4302,2.4302,2.4492,2.4863,2.4902,2.5121,2.5689,2.5944,2.628,2.6691,2.6691,2.6691,2.6691,2.6691,2.6691,2.6691,2.6691,2.6691,2.6691,2.6691,2.6691,2.6691,2.6691,2.6691,2.6725,2.6956,2.7117,2.7276,2.7678,2.7964,2.8201,2.9008,2.9132,2.9065,2.9608,3.0333,3.1148,3.1962,3.2198,3.2325,3.2886,3.3212,3.3393,3.3393,3.3393,3.3393,3.3393,3.3393,3.3393,3.3393,3.3393,3.3393,3.3393,3.3393,3.3393,3.3393,3.361,3.3954,3.4534,3.4606,3.4914,3.5711,3.5589,3.5535,3.5783,3.5806,3.5698,3.5476,3.5675,3.582,3.582,3.6345,3.6309,3.5589,3.6816,3.8077,3.9301,3.8034,3.7392,3.7504,3.8536,3.8916,3.8699,3.9478,3.9948,4.0184,4.0184,4.0184,4.0202,4.0419,4.0238,3.984,4.0093,4.0528,4.1053,4.127,4.1705,4.2248,1.8934,1.8987,1.9093,1.9303,1.9604,2.0055,2.0809,2.1166,2.1616,2.2137,2.248,2.2754,2.2934,2.3436,2.3839,2.4009,2.4177,2.4302,2.4302,2.4302,2.4426,2.4639,2.4639,2.4942,2.5503,2.5908,2.621,2.647,2.6624,2.6691,2.6691,2.6691,2.6691,2.6691,2.6691,2.6691,2.6691,2.6691,2.6691,2.6691,2.6691,2.6791,2.6923,2.7117,2.7352,2.7589,2.7964,2.8201,2.8398,2.9086,2.921,2.9228,3.0007,3.0387,3.0677,3.1473,3.1727,3.189,3.2705,3.2922,3.2922,3.2922,3.3158,3.3321,3.2995,3.3176,3.3393,3.3393,3.3393,3.3393,3.3393,3.3393,3.3393,3.3393,3.3936,3.4534,3.5023,3.5349,3.5856,3.6653,3.6472,3.6399,3.6725,3.6765,3.6732,3.6761,3.6453,3.6544,3.7196,3.7685,3.7579,3.6775,3.8303,3.9565,4.0468,3.9093,3.8627,3.9115,3.9604,3.984,3.9858,4.0311,4.0691,4.0981,4.1087,4.1105,4.1017,4.1451,4.1196,4.0546,4.0872,4.1289,4.1723,4.1723,4.2212,4.292,1.904,1.9093,1.9251,1.9798,1.9901,2.0258,2.1264,2.1423,2.1616,2.217,2.2526,2.2889,2.3319,2.3668,2.3967,2.4261,2.4302,2.4302,2.4302,2.4302,2.4302,2.4302,2.4302,2.4639,2.5389,2.5835,2.6052,2.6104,2.6505,2.6691,2.6691,2.6691,2.6691,2.6691,2.6691,2.6691,2.6691,2.6691,2.6691,2.6691,2.6691,2.6891,2.7213,2.7244,2.7607,2.8084,2.8129,2.8326,2.8587,2.8587,2.9137,2.9924,3.0568,3.0278,2.9844,3.0731,3.0985,3.1166,3.1981,3.2252,3.227,3.2125,3.2741,3.3194,3.2379,3.2814,3.3393,3.3393,3.3393,3.3393,3.3393,3.3465,3.3502,3.3502,3.4806,3.5838,3.591,3.6544,3.7319,3.8083,3.7566,3.7384,3.8153,3.8264,3.8301,3.8301,3.7685,3.7938,3.9405,3.9496,3.9138,3.842,3.9788,4.0582,4.0709,4.0655,4.0582,4.051,4.0582,4.0619,4.0619,4.0691,4.1126,4.1814,4.2152,4.2083,4.1868,4.2938,4.232,4.08,4.1542,4.1832,4.1832,4.1832,4.2358,4.3104,1.9552,1.9656,1.9798,2.0359,2.0597,2.0894,2.1313,2.1568,2.1935,2.2526,2.2949,2.3304,2.3653,2.4009,2.4219,2.4302,2.4302,2.4302,2.4302,2.4302,2.4302,2.4302,2.4302,2.4385,2.4574,2.5275,2.5799,2.6104,2.6505,2.6691,2.6691,2.6691,2.6691,2.6691,2.6691,2.6691,2.6691,2.6691,2.6691,2.6691,2.6691,2.6891,2.7244,2.7491,2.7811,2.8129,2.8396,2.8543,2.8587,2.8587,2.9137,2.9717,2.9264,2.9011,2.9137,3.0568,3.0985,3.1166,3.1981,3.2651,3.2832,3.1564,3.2343,3.3194,3.2379,3.2814,3.3393,3.3393,3.3393,3.3393,3.3393,3.3918,3.4353,3.4353,3.5168,3.6019,3.6635,3.687,3.7319,3.8083,3.8044,3.8008,3.8174,3.8753,3.9134,3.9134,3.9514,3.9894,4.0256,4.0274,4.0166,4.0022,4.0329,4.1125,4.2359,4.176,4.1144,4.0528,4.1162,4.1452,4.147,4.2085,4.2466,4.2629,4.274,4.2703,4.2647,4.2922,4.2758,4.2393,4.2556,4.2629,4.2629,4.2629,4.3342,4.4505,1.9512,1.9552,1.9747,2.0459,2.0795,2.114,2.1506,2.1793,2.2123,2.2434,2.2949,2.3363,2.3538,2.4009,2.4302,2.4302,2.4302,2.4302,2.4302,2.4302,2.4302,2.4302,2.4302,2.4302,2.4302,2.5098,2.5615,2.5799,2.6401,2.6691,2.6691,2.6691,2.6691,2.6691,2.6691,2.6691,2.6691,2.6691,2.6691,2.6725,2.6858,2.7149,2.7474,2.78,2.8065,2.8352,2.8543,2.8587,2.8587,2.8587,2.8884,2.9156,2.8739,2.8587,2.8822,3.0061,3.0423,3.0677,3.1872,3.2234,3.2144,3.1691,3.2198,3.2723,3.2288,3.2814,3.3393,3.3393,3.3393,3.352,3.39,3.4317,3.4733,3.5113,3.5856,3.6508,3.6924,3.7323,3.7721,3.8138,3.8549,3.8912,3.926,3.9677,3.993,3.993,4.0293,4.0691,4.1071,4.1089,4.127,4.1633,4.1651,4.2068,4.2885,4.2485,4.2067,4.1651,4.2067,4.2266,4.2303,4.2701,4.2882,4.292,4.3087,4.3269,4.3482,4.3251,4.3287,4.3425,4.3045,4.2882,4.2974,4.3561,4.4593,4.5853,1.9512,1.95,1.9747,2.066,2.0957,2.1251,2.1793,2.2044,2.217,2.237,2.2904,2.3363,2.3451,2.3967,2.4302,2.4302,2.4302,2.4302,2.4302,2.4302,2.4302,2.4302,2.4385,2.4385,2.4385,2.5198,2.5577,2.5503,2.6315,2.6691,2.6691,2.6691,2.6691,2.6691,2.6691,2.6691,2.6691,2.6691,2.6725,2.6825,2.7085,2.7413,2.78,2.802,2.8299,2.8587,2.8587,2.8587,2.8587,2.8587,2.8587,2.8587,2.8587,2.8587,2.8775,2.9554,2.9816,3.0079,3.1419,3.1492,3.1329,3.1854,3.2198,3.2415,3.2415,3.2922,3.3393,3.3393,3.352,3.381,3.448,3.4824,3.524,3.591,3.6798,3.7395,3.7395,3.8083,3.8572,3.8606,3.92,3.9819,4.0456,4.0619,4.0727,4.0727,4.0836,4.127,4.2085,4.1995,4.223,4.2862,4.29,4.2882,4.2882,4.2882,4.2955,4.3099,4.3099,4.3099,4.3099,4.3099,4.3172,4.3337,4.3579,4.3944,4.4279,4.3871,4.3962,4.424,4.357,4.3337,4.3578,4.4816,4.6076,4.7154,2.0359,2.0409,2.066,2.1506,2.1458,2.1506,2.2077,2.1996,2.217,2.3038,2.3231,2.3538,2.4094,2.4276,2.4302,2.4302,2.4302,2.4302,2.4302,2.4302,2.4302,2.4302,2.4639,2.4823,2.4823,2.5615,2.5835,2.5503,2.6315,2.6691,2.6691,2.6691,2.6691,2.6691,2.6691,2.6691,2.6691,2.6691,2.6858,2.7149,2.7181,2.7547,2.8047,2.8102,2.8299,2.8587,2.8587,2.8587,2.8587,2.8587,2.8587,2.8587,2.8587,2.8587,2.8775,2.9554,2.9816,2.987,3.0087,3.1057,3.189,3.131,3.2198,3.3248,3.3248,3.3321,3.3393,3.3393,3.3954,3.448,3.4588,3.5729,3.6689,3.6816,3.8083,3.9061,3.9061,3.9713,4.0184,4.0182,4.0293,4.0384,4.047,4.1142,4.156,4.156,4.2176,4.2918,4.3733,4.3118,4.279,4.2874,4.2899,4.2882,4.2882,4.2882,4.3244,4.3932,4.3932,4.3932,4.3932,4.3932,4.4313,4.4983,4.5004,4.5059,4.5128,4.5059,4.5077,4.5128,4.5019,4.518,4.5662,4.7173,4.7864,4.816,2.0271,2.0422,2.0673,2.1277,2.152,2.1746,2.2203,2.2296,2.2526,2.3216,2.3436,2.3696,2.4009,2.4177,2.4302,2.4302,2.4302,2.4302,2.4302,2.4302,2.4385,2.4639,2.4799,2.502,2.5237,2.5799,2.6016,2.5835,2.6436,2.6691,2.6691,2.6691,2.6691,2.6691,2.6691,2.6791,2.6989,2.6989,2.7181,2.7474,2.7636,2.7851,2.8129,2.8299,2.8448,2.8587,2.8587,2.8587,2.8587,2.8587,2.8587,2.8587,2.8587,2.8587,2.8659,2.9029,2.9137,2.9228,2.9663,3.064,3.1546,3.1636,3.2542,3.352,3.3973,3.4081,3.4081,3.4081,3.4715,3.5421,3.5856,3.6508,3.7268,3.8174,3.8934,3.9532,3.9967,4.0293,4.069,4.1106,4.1162,4.1361,4.1811,4.2175,4.2556,4.3009,4.3371,4.3914,4.4729,4.4421,4.3839,4.2928,4.3785,4.4077,4.379,4.4077,4.4421,4.4765,4.4765,4.4765,4.4765,4.4765,4.4965,4.5291,4.5291,4.5562,4.5943,4.549,4.5562,4.5965,4.5729,4.6267,4.7257,4.7965,4.8606,4.9202]}]]